[[[{"header":{"parameterUnit":"kt","parameterCategory":2,"dx":1,"dy":1,"la1":29.587661999999998,"la2":31.0,"lo1":-88.76705300000003,"lo2":-86.6583820000003,"nx":115,"ny":88,"refTime":"2022-10-17T18:00:00:Z","depth":0,"parameterNumber":1,"parameterNumberName":"U-component_of_WINDS"},"data":[21.6781,21.6781,21.6781,21.6781,21.6781,21.6781,21.6781,21.6781,21.6781,21.6781,21.6781,21.6781,21.6781,21.6781,21.6781,21.6781,21.6781,21.7005,21.7112,21.7321,21.7614,21.8016,21.7543,21.6098,21.4865,21.3106,21.1506,21.0376,20.9898,20.99,20.995,20.995,20.995,20.995,20.995,20.995,20.995,20.995,20.995,20.995,20.995,20.995,20.995,20.995,20.995,20.995,20.995,20.995,20.995,20.995,20.995,20.995,20.995,20.995,20.995,20.995,20.995,20.995,20.995,20.995,20.995,20.995,20.995,20.995,20.995,20.995,20.995,20.995,20.995,20.995,20.995,20.995,20.995,20.995,20.995,20.995,20.995,20.995,20.995,20.995,20.995,20.995,20.995,20.995,20.995,20.995,20.995,20.995,20.995,20.995,20.995,20.995,20.995,20.995,20.995,20.995,20.995,20.995,20.995,20.995,20.995,20.995,20.995,20.995,20.995,20.995,20.995,20.995,20.995,20.995,20.995,20.995,20.995,20.995,20.995,21.6781,21.6781,21.6781,21.6781,21.6781,21.6781,21.6781,21.6781,21.6781,21.6781,21.6781,21.6781,21.6781,21.6781,21.6781,21.6781,21.6855,21.708,21.7187,21.7477,21.7832,21.8139,21.7858,21.7222,21.6456,21.5107,21.3349,21.1894,21.0293,20.995,20.995,20.995,20.995,20.995,20.995,20.995,20.995,20.995,20.995,20.995,21.0026,20.995,21.0178,21.0102,20.995,20.995,20.995,20.995,20.995,20.995,20.995,20.995,20.995,20.995,20.995,20.995,20.995,20.995,20.995,20.995,20.995,20.995,20.995,20.995,20.995,20.995,20.995,20.995,20.995,20.995,20.995,20.995,20.995,20.995,20.995,20.995,20.995,20.995,20.995,20.995,20.995,20.995,20.995,20.995,20.995,20.995,20.995,20.995,20.995,20.995,20.995,20.995,20.995,20.995,20.995,20.995,20.995,20.995,20.995,20.995,20.995,20.995,20.995,20.995,20.995,20.995,20.995,20.995,20.995,20.995,20.995,20.995,20.995,20.995,20.995,21.6781,21.6781,21.6781,21.6781,21.6781,21.6781,21.6781,21.6781,21.6781,21.6781,21.6781,21.6781,21.6781,21.6781,21.6781,21.6781,21.693,21.7229,21.7339,21.7552,21.7898,21.8274,21.839,21.8152,21.7626,21.685,21.5222,21.354,21.1559,21.0709,21.0026,20.995,20.995,20.995,20.995,20.995,20.995,21.0026,20.995,21.1089,21.2911,21.2759,21.2456,21.1469,21.1165,21.0633,21.0481,20.995,20.995,20.995,20.995,20.995,20.995,20.995,20.995,20.995,20.995,20.995,20.995,20.995,20.995,20.995,20.995,20.995,20.995,20.995,20.995,20.995,20.995,20.995,20.995,20.995,20.995,20.995,20.995,20.995,20.995,20.995,20.995,20.995,20.995,20.995,20.995,20.995,20.995,20.995,20.995,20.995,20.995,20.995,20.995,20.995,20.995,20.995,20.995,20.995,20.995,20.995,20.995,20.995,20.995,20.995,20.995,20.995,20.995,20.995,20.995,20.995,20.995,20.995,20.995,20.995,20.995,20.995,20.995,21.6781,21.6781,21.6781,21.6781,21.6781,21.6781,21.6781,21.6781,21.6781,21.6781,21.6781,21.6781,21.6781,21.6781,21.6781,21.6855,21.6938,21.717,21.7415,21.7627,21.8058,21.8365,21.8564,21.8727,21.8485,21.7772,21.6966,21.5724,21.3837,21.1772,21.0481,21.0026,20.995,21.0406,21.0709,21.0785,21.1165,21.1848,21.1848,21.2911,21.4278,21.4582,21.4582,21.3595,21.2911,21.2304,21.1241,21.0633,21.0406,20.995,20.995,20.995,20.995,20.995,20.995,20.995,20.995,20.995,20.995,20.995,20.995,20.995,20.995,20.995,20.995,20.995,20.995,20.995,20.995,20.995,20.995,20.995,20.995,20.995,20.995,20.995,20.995,20.995,20.995,20.995,20.995,20.995,20.995,20.995,20.995,20.995,20.995,20.995,20.995,20.995,20.995,20.995,20.995,20.995,20.995,20.995,20.995,20.995,20.995,20.995,20.995,20.995,20.995,20.995,20.995,20.995,20.995,20.995,20.995,20.995,20.995,20.995,20.995,20.995,20.995,21.6781,21.6781,21.6781,21.6781,21.6781,21.6781,21.6781,21.6781,21.6781,21.6781,21.6781,21.6781,21.6781,21.6781,21.6781,21.6781,21.7013,21.7185,21.7485,21.769,21.8124,21.8467,21.8779,21.9105,21.9047,21.8837,21.817,21.7259,21.6102,21.3974,21.1544,20.995,21.033,21.1089,21.2076,21.2228,21.3139,21.4126,21.4734,21.4885,21.5341,21.5189,21.4885,21.481,21.4582,21.405,21.2759,21.2,21.1544,21.0481,20.995,20.995,20.995,20.995,20.995,20.995,20.995,20.995,20.995,20.995,20.995,20.995,20.995,20.995,20.995,20.995,20.995,20.995,20.995,20.995,20.995,20.995,20.995,20.995,20.995,20.995,20.995,20.995,20.995,20.995,20.995,20.995,20.995,20.995,20.995,20.995,20.995,20.995,20.995,20.995,20.995,20.995,20.995,20.995,20.995,20.995,20.995,20.995,20.995,20.995,20.995,20.995,20.995,20.995,20.995,20.995,20.995,20.995,20.995,20.995,20.995,20.995,20.995,20.995,20.995,21.6781,21.6781,21.6781,21.6781,21.6781,21.6781,21.6781,21.6781,21.6781,21.6781,21.6781,21.6781,21.6781,21.6781,21.6789,21.702,21.7088,21.734,21.7627,21.7964,21.8274,21.8566,21.8899,21.918,21.9457,21.952,21.9025,21.8352,21.696,21.5037,21.3746,21.2759,21.2987,21.3443,21.3822,21.4278,21.5493,21.6936,21.7923,21.8075,21.815,21.815,21.7315,21.6784,21.6556,21.5569,21.4202,21.2759,21.2304,21.162,21.0178,20.995,20.995,20.995,20.995,20.995,20.995,20.995,20.995,20.995,20.995,20.995,20.995,20.995,20.995,20.995,20.995,20.995,20.995,20.995,20.995,20.995,20.995,20.995,20.995,20.995,20.995,20.995,20.995,20.995,20.995,20.995,20.995,20.995,20.995,20.995,20.995,20.995,20.995,20.995,20.995,20.995,20.995,20.995,20.995,20.995,20.995,20.995,20.995,20.995,20.995,20.995,20.995,20.995,20.995,20.995,20.995,20.995,20.995,20.995,20.995,20.995,20.995,20.995,20.995,21.6781,21.6781,21.6781,21.6781,21.6781,21.6781,21.6781,21.6781,21.6781,21.6781,21.6781,21.6781,21.6781,21.6781,21.6951,21.7101,21.7262,21.7488,21.784,21.8091,21.8448,21.8687,21.899,21.9252,21.9487,21.962,21.9651,21.9201,21.8041,21.6632,21.5645,21.5113,21.4506,21.5113,21.5645,21.6252,21.7847,21.9138,21.9517,21.9517,21.9669,21.9593,21.9138,21.853,21.8226,21.7315,21.6024,21.4734,21.3367,21.2683,21.1241,21.0254,21.0102,20.995,20.995,20.995,20.995,20.995,20.995,20.995,20.995,20.995,20.995,20.995,20.995,20.995,20.995,20.995,20.995,20.995,20.995,20.995,20.995,20.995,20.995,20.995,20.995,20.995,20.995,20.995,20.995,20.995,20.995,20.995,20.995,20.995,20.995,20.995,20.995,20.995,20.995,20.995,20.995,20.995,20.995,20.995,20.995,20.995,20.995,20.995,20.995,20.995,20.995,20.995,20.995,20.995,20.995,20.995,20.995,20.995,21.0102,21.0026,20.995,20.995,21.0026,21.6781,21.6781,21.6781,21.6781,21.6781,21.6781,21.6781,21.6781,21.6781,21.6781,21.6781,21.6781,21.6781,21.6789,21.6876,21.7035,21.7339,21.7552,21.7907,21.8242,21.8559,21.8779,21.9105,21.9381,21.9543,21.9696,21.9727,21.9657,21.956,21.8146,21.6708,21.5797,21.5873,21.648,21.7543,21.8378,21.9289,21.9745,22.0049,22.0049,22.0049,22.0049,21.9821,21.9669,21.9441,21.8682,21.7771,21.6708,21.5189,21.3595,21.2304,21.1241,21.0481,20.995,20.995,20.995,20.995,20.995,20.995,20.995,20.995,20.995,20.995,20.995,20.995,20.995,20.995,20.995,20.995,20.995,20.995,20.995,20.995,20.995,20.995,20.995,20.995,20.995,20.995,20.995,20.995,20.995,20.995,20.995,20.995,20.995,20.995,20.995,20.995,20.995,20.995,20.995,20.995,20.995,20.995,20.995,20.995,20.995,20.995,20.995,20.995,20.995,20.995,20.995,20.995,20.995,20.995,20.995,20.995,21.0178,21.0406,21.0406,21.0785,21.0633,21.1469,21.6781,21.6781,21.6781,21.6781,21.6781,21.6781,21.6781,21.6781,21.6781,21.6781,21.6781,21.6781,21.6789,21.6951,21.7112,21.7339,21.7477,21.7765,21.8124,21.8353,21.8642,21.8942,21.9217,21.9457,21.9646,21.9742,21.9822,21.9884,21.9795,21.9363,21.8682,21.815,21.8378,21.8378,21.8834,21.9441,22.0049,22.0049,22.0049,22.0049,22.0049,22.0049,22.0049,22.0049,21.9973,21.9821,21.9062,21.7923,21.648,21.4506,21.2987,21.162,21.0481,20.995,20.995,20.995,20.995,20.995,20.995,20.995,20.995,20.995,20.995,20.995,20.995,20.995,20.995,20.995,20.995,20.995,20.995,20.995,20.995,20.995,20.995,20.995,20.995,20.995,20.995,20.995,20.995,20.995,20.995,20.995,20.995,20.995,20.995,20.995,20.995,20.995,20.995,20.995,20.995,20.995,20.995,20.995,20.995,20.995,20.995,20.995,20.995,20.995,20.995,20.995,20.995,20.995,20.995,20.995,20.995,21.0102,21.0709,21.1165,21.1544,21.2532,21.3671,21.6781,21.6781,21.6781,21.6781,21.6781,21.6781,21.6781,21.6781,21.6781,21.6706,21.6789,21.6789,21.6951,21.7035,21.7265,21.7482,21.7614,21.7982,21.8289,21.8491,21.8715,21.9101,21.9327,21.9563,21.9696,21.986,21.9839,21.9808,21.9878,21.9819,21.9973,22.0049,21.9517,22.0049,22.0049,22.0049,22.0049,22.0049,22.0049,22.0049,22.0049,22.0049,22.0049,22.0049,22.0049,21.9973,21.9821,21.9062,21.7315,21.5037,21.4202,21.2304,21.033,20.995,20.995,20.995,20.995,20.995,20.995,20.995,20.995,20.995,20.995,20.995,20.995,20.995,20.995,20.995,20.995,20.995,20.995,20.995,20.995,20.995,20.995,20.995,20.995,20.995,20.995,20.995,20.995,20.995,20.995,20.995,20.995,20.995,20.995,20.995,20.995,20.995,20.995,20.995,20.995,20.995,20.995,20.995,20.995,20.995,20.995,20.995,20.995,20.995,20.995,20.995,20.995,20.995,20.995,20.995,20.995,21.0406,21.1317,21.2,21.2835,21.4126,21.5341,21.6781,21.6781,21.6781,21.6781,21.6781,21.6781,21.6781,21.6781,21.6781,21.6789,21.6876,21.6956,21.7112,21.7265,21.741,21.7552,21.7832,21.8124,21.8425,21.8692,21.893,21.9257,21.947,21.9619,21.9742,21.9822,21.987,21.993,21.9972,22.0049,22.0049,22.0049,22.0049,22.0049,22.0049,22.0049,22.0049,22.0049,22.0049,22.0049,22.0049,22.0049,22.0049,22.0049,22.0049,22.0049,22.0049,21.9593,21.8226,21.5948,21.4961,21.3139,21.0709,21.0254,20.995,20.995,20.995,20.995,20.995,20.995,20.995,20.995,20.995,20.995,20.995,20.995,20.995,20.995,20.995,20.995,20.995,20.995,20.995,20.995,20.995,20.995,20.995,20.995,20.995,20.995,20.995,20.995,20.995,20.995,20.995,20.995,20.995,20.995,20.995,20.995,20.995,20.995,20.995,20.995,20.995,20.995,20.995,20.995,20.995,20.995,20.995,20.995,20.995,20.995,20.995,20.995,20.995,20.995,21.0406,21.0861,21.1924,21.3139,21.4354,21.5493,21.6556,21.6781,21.6781,21.6781,21.6781,21.6781,21.6781,21.6781,21.6781,21.6781,21.6789,21.6956,21.7112,21.7265,21.7485,21.7621,21.7757,21.8039,21.835,21.8559,21.8791,21.9026,21.9361,21.9516,21.9696,21.9784,21.9839,21.9822,21.9939,22.0049,22.0049,22.0049,22.0049,22.0049,22.0049,22.0049,22.0049,22.0049,22.0049,22.0049,22.0049,22.0049,22.0049,22.0049,22.0049,22.0049,22.0049,22.0049,21.9897,21.8758,21.7087,21.5417,21.3822,21.2152,21.0785,21.0102,20.995,20.995,20.995,20.995,20.995,20.995,20.995,20.995,20.995,20.995,20.995,20.995,20.995,20.995,20.995,20.995,20.995,20.995,20.995,20.995,20.995,20.995,20.995,20.995,20.995,20.995,20.995,20.995,20.995,20.995,20.995,20.995,20.995,20.995,20.995,20.995,20.995,20.995,20.995,20.995,20.995,20.995,20.995,20.995,20.995,20.995,20.995,20.995,20.995,20.995,20.995,21.0102,21.0254,21.0785,21.1469,21.2607,21.3898,21.5265,21.7012,21.7999,21.6781,21.6781,21.6781,21.6781,21.6781,21.6781,21.6781,21.6781,21.6781,21.6789,21.6951,21.7189,21.7557,21.769,21.7823,21.8028,21.835,21.8665,21.8791,21.8942,21.9256,21.9487,21.9568,21.9708,21.9822,21.9855,21.9939,21.9968,22.0049,22.0049,22.0049,22.0049,22.0049,22.0049,22.0049,22.0049,22.0049,22.0049,22.0049,22.0049,22.0049,22.0049,22.0049,22.0049,22.0049,22.0049,22.0049,22.0049,21.8986,21.7543,21.5873,21.4202,21.2456,21.0785,21.0102,20.995,20.995,20.995,20.995,20.995,20.995,20.995,20.995,20.995,20.995,20.995,20.995,20.995,20.995,20.995,20.995,20.995,20.995,20.995,20.995,20.995,20.995,20.995,20.995,20.995,20.995,20.995,20.995,20.995,20.995,20.995,20.995,20.995,20.995,20.995,20.995,20.995,20.995,20.995,20.995,20.995,20.995,20.995,20.995,20.995,20.995,20.995,20.995,20.995,20.995,21.0026,21.0178,21.0481,21.162,21.3215,21.4278,21.5037,21.6708,21.8606,21.9138,21.6781,21.6781,21.6781,21.6781,21.6781,21.6781,21.6781,21.6781,21.6781,21.6855,21.702,21.7265,21.7765,21.8028,21.8153,21.8316,21.8692,21.8742,21.8942,21.918,21.9394,21.957,21.9688,21.9746,21.9839,21.9884,21.9954,22.0049,22.0049,22.0049,22.0049,22.0049,22.0049,22.0049,22.0049,22.0049,22.0049,22.0049,22.0049,22.0049,22.0049,22.0049,22.0049,22.0049,22.0049,22.0049,22.0049,22.0049,21.9365,21.8075,21.61,21.4278,21.2987,21.1089,21.0026,20.995,20.995,20.995,20.995,20.995,20.995,20.995,20.995,20.995,20.995,20.995,20.995,20.995,20.995,20.995,20.995,20.995,20.995,20.995,20.995,20.995,20.995,20.995,20.995,20.995,20.995,20.995,20.995,20.995,20.995,20.995,20.995,20.995,20.995,20.995,20.995,20.995,20.995,20.995,20.995,20.995,20.995,20.995,20.995,20.995,20.995,20.995,20.995,20.995,20.995,21.0102,21.033,21.1772,21.3291,21.4885,21.6024,21.6708,21.8075,21.9214,21.9745,21.6781,21.6781,21.6781,21.6781,21.6781,21.6781,21.6781,21.6781,21.6855,21.7013,21.7259,21.7488,21.7765,21.8091,21.8373,21.859,21.8742,21.906,21.9256,21.947,21.9638,21.972,21.9803,21.9779,21.987,21.9845,21.9968,22.0049,22.0049,22.0049,22.0049,22.0049,22.0049,22.0049,22.0049,22.0049,22.0049,22.0049,22.0049,22.0049,22.0049,22.0049,22.0049,22.0049,22.0049,22.0049,22.0049,22.0049,22.0049,21.8682,21.6632,21.481,21.3822,21.162,21.0102,20.995,20.995,20.995,20.995,20.995,20.995,20.995,20.995,20.995,20.995,20.995,20.995,20.995,20.995,20.995,20.995,20.995,20.995,20.995,20.995,20.995,20.995,20.995,20.995,20.995,20.995,20.995,20.995,20.995,20.995,20.995,20.995,20.995,20.995,20.995,20.995,20.995,20.995,20.995,20.995,20.995,20.995,20.995,20.995,20.995,20.995,20.995,21.0178,21.0102,20.995,21.0709,21.238,21.3595,21.4885,21.61,21.7315,21.8226,21.8834,21.9517,22.0049,21.6781,21.6781,21.6781,21.6781,21.6781,21.6781,21.6781,21.6781,21.6855,21.702,21.7339,21.7557,21.7757,21.8153,21.8483,21.8791,21.906,21.9332,21.9426,21.957,21.972,21.986,21.9839,21.9855,21.9909,21.9954,21.9973,22.0049,22.0049,22.0049,22.0049,22.0049,22.0049,22.0049,22.0049,22.0049,22.0049,22.0049,22.0049,22.0049,22.0049,22.0049,22.0049,22.0049,22.0049,22.0049,22.0049,22.0049,22.0049,21.9441,21.6784,21.5037,21.4202,21.2,20.995,20.995,20.995,20.995,20.995,20.995,20.995,20.995,20.995,20.995,20.995,20.995,20.995,20.995,20.995,20.995,20.995,20.995,20.995,20.995,20.995,20.995,20.995,20.995,20.995,20.995,20.995,20.995,20.995,20.995,20.995,20.995,20.995,20.995,20.995,20.995,20.995,20.995,20.995,20.995,20.995,20.995,20.995,20.995,20.995,21.0178,21.0102,21.033,21.0709,21.0709,21.1165,21.2607,21.4506,21.5645,21.6632,21.7619,21.853,21.8986,21.9441,22.0049,22.0049,21.6781,21.6781,21.6781,21.6781,21.6781,21.6781,21.6781,21.6781,21.6938,21.7106,21.734,21.7621,21.7888,21.8214,21.8537,21.8974,21.9256,21.9502,21.9596,21.9632,21.9746,21.9839,21.9839,21.9855,21.9947,21.9973,22.0049,22.0049,22.0049,22.0049,22.0049,22.0049,22.0049,22.0049,22.0049,22.0049,22.0049,22.0049,22.0049,22.0049,22.0049,22.0049,22.0023,21.9996,22.0049,22.0049,22.0049,22.0049,22.0049,21.9669,21.6784,21.5113,21.443,21.1772,21.0254,20.995,20.995,20.995,20.995,20.995,20.995,20.995,20.995,20.995,20.995,20.995,20.995,20.995,20.995,20.995,20.995,20.995,20.995,20.995,20.995,20.995,20.995,20.995,20.995,20.995,20.995,20.995,20.995,20.995,20.995,20.995,20.995,20.995,20.995,20.995,20.995,20.995,20.995,20.995,20.995,20.995,20.995,20.995,21.0254,21.0633,21.1013,21.1544,21.1696,21.2456,21.3139,21.4278,21.6252,21.7619,21.8454,21.8986,21.9214,21.9669,22.0049,22.0049,22.0049,21.6781,21.6781,21.6781,21.6781,21.6781,21.6781,21.6781,21.6863,21.7031,21.7264,21.7339,21.7832,21.8153,21.8333,21.859,21.8974,21.9437,21.972,21.9784,21.9763,21.9839,21.9839,21.9884,21.9939,21.9973,22.0049,22.0049,22.0049,22.0049,22.0049,22.0049,22.0049,22.0049,22.0049,22.0049,22.0049,22.0049,22.0049,22.0049,22.0049,21.9973,21.9939,21.9946,22.0007,22.0049,22.0049,22.0049,22.0049,22.0049,21.8986,21.7012,21.4961,21.443,21.1772,21.0026,20.995,20.995,20.995,20.995,20.995,20.995,20.995,20.995,20.995,20.995,20.995,20.995,20.995,20.995,20.995,20.995,20.995,20.995,20.995,20.995,20.995,20.995,20.995,20.995,20.995,20.995,20.995,20.995,20.995,20.995,20.995,20.995,20.995,20.995,20.995,20.995,20.995,20.995,20.995,21.0254,21.0406,21.0557,21.0937,21.1544,21.1924,21.238,21.2759,21.3822,21.4658,21.5265,21.6252,21.8075,21.9669,21.9517,21.9517,21.9821,22.0049,22.0049,22.0049,22.0049,21.6781,21.6781,21.6781,21.6781,21.6781,21.6781,21.6781,21.6863,21.7187,21.7339,21.7557,21.7888,21.8199,21.8429,21.8742,21.9142,21.9487,21.9784,21.9839,21.9839,21.9855,21.987,21.9947,21.9968,22.0049,22.0049,22.0049,22.0049,22.0049,22.0049,22.0049,22.0049,22.0049,22.0049,22.0049,22.0049,22.0049,22.0049,22.0049,22.0049,22.0049,21.9897,21.9931,21.996,21.9973,22.0049,22.0049,22.0049,21.9669,21.853,21.6404,21.481,21.3291,21.1469,20.995,20.995,20.995,20.995,20.995,20.995,20.995,20.995,20.995,20.995,20.995,20.995,20.995,20.995,20.995,20.995,20.995,20.995,20.995,20.995,20.995,20.995,20.995,20.995,20.995,20.995,20.995,20.995,20.995,20.995,20.995,20.995,20.995,20.995,20.995,20.995,20.995,20.995,20.995,21.0406,21.1317,21.1544,21.1696,21.2607,21.3367,21.3595,21.3898,21.405,21.5037,21.648,21.7695,21.853,21.9745,21.9973,21.9973,21.9973,22.0049,22.0049,22.0049,22.0049,22.0049,21.6781,21.6781,21.6781,21.6781,21.6781,21.6781,21.6855,21.7013,21.7189,21.741,21.7621,21.8078,21.8316,21.859,21.893,21.9256,21.9591,21.9784,21.9855,21.9822,21.9897,21.993,21.9973,22.0049,22.0049,22.0049,22.0049,22.0049,22.0049,22.0049,22.0049,22.0049,22.0049,22.0049,22.0049,22.0049,22.0049,22.0049,22.0049,22.0049,21.9973,21.9931,21.9839,21.9855,21.993,21.9973,22.0049,21.9973,21.9289,21.7543,21.5873,21.405,21.2228,21.0785,21.0026,20.995,20.995,20.995,20.995,20.995,20.995,20.995,20.995,20.995,20.995,20.995,20.995,20.995,20.995,20.995,20.995,20.995,20.995,20.995,20.995,20.995,20.995,20.995,20.995,20.995,20.995,20.995,20.995,20.995,20.995,20.995,20.995,20.995,20.995,20.995,21.0026,21.0026,21.0178,21.1317,21.238,21.2532,21.3215,21.4202,21.4885,21.5189,21.5417,21.5493,21.6328,21.7999,21.9365,21.9745,21.9821,21.9973,22.0049,22.0049,22.0049,22.0049,22.0049,22.0049,22.0049,21.6781,21.6781,21.6781,21.6781,21.6781,21.6781,21.6855,21.702,21.7188,21.7396,21.7748,21.8078,21.8429,21.8692,21.906,21.9332,21.9533,21.9742,21.9834,21.9897,21.9973,22.0049,22.0049,21.9973,21.9973,22.0049,21.9821,21.9821,21.9821,22.0049,21.9821,22.0049,22.0049,22.0049,22.0049,22.0049,22.0049,22.0049,22.0049,22.003,21.987,21.9839,21.9839,21.9839,21.9897,21.993,21.9973,21.9897,21.9214,21.7619,21.5948,21.3443,21.1165,20.995,20.995,20.995,20.995,20.995,20.995,20.995,20.995,20.995,20.995,20.995,20.995,20.995,20.995,20.995,20.995,20.995,20.995,20.995,20.995,20.995,20.995,20.995,20.995,20.995,20.995,20.995,20.995,20.995,20.995,20.995,20.995,20.995,20.995,20.995,20.995,21.0026,21.0254,21.033,21.1544,21.2759,21.3139,21.3443,21.4734,21.5645,21.6404,21.6784,21.7163,21.7543,21.8302,21.9821,22.0049,21.9973,21.9973,22.0049,22.0049,22.0049,22.0049,22.0049,22.0049,22.0049,22.0049,21.6781,21.6781,21.6781,21.6781,21.6781,21.6781,21.6945,21.711,21.7327,21.7597,21.7953,21.8139,21.8483,21.8838,21.9101,21.9403,21.9516,21.9784,21.992,21.9973,21.9973,22.0049,22.0049,21.9973,21.9441,21.8682,21.8682,21.8682,21.8682,21.8682,21.9138,21.9973,22.0049,21.9973,22.0049,22.0049,22.0049,22.0049,21.9968,21.9939,21.987,21.9839,21.9839,21.9839,21.9855,21.9834,21.9973,21.9973,21.8606,21.648,21.4506,21.2456,21.0406,20.995,20.995,20.995,20.995,20.995,20.995,20.995,20.995,20.995,20.995,20.995,20.995,20.995,20.995,20.995,20.995,20.995,20.995,20.995,20.995,20.995,20.995,20.995,20.995,20.995,20.995,20.995,20.995,20.995,20.995,20.995,20.995,20.995,20.995,21.0026,21.0026,21.0709,21.0861,21.162,21.2911,21.3822,21.4126,21.5037,21.6328,21.7163,21.7847,21.8226,21.8454,21.9214,22.0049,22.0049,22.0049,22.0049,22.0049,22.0049,22.0049,22.0049,22.0049,22.0049,22.0049,22.0049,22.0049,21.6781,21.6781,21.6781,21.6781,21.6781,21.6781,21.6951,21.7265,21.7251,21.7663,21.8078,21.8199,21.8537,21.893,21.9181,21.9394,21.9596,21.9803,21.992,21.9973,22.0049,21.9745,21.8834,21.8682,21.8075,21.7315,21.6936,21.6936,21.6936,21.7087,21.7847,21.9214,21.9289,21.9669,21.9897,22.0049,22.0049,22.0049,21.9884,21.9845,21.9855,21.9839,21.9839,21.9839,21.9839,21.9845,21.9821,21.9669,21.7847,21.5037,21.3215,21.1848,21.033,20.995,20.995,20.995,20.995,20.995,20.995,20.995,20.995,20.995,20.995,20.995,20.995,20.995,20.995,20.995,20.995,20.995,20.995,20.995,20.995,20.995,20.995,20.995,20.995,20.995,20.995,20.995,20.995,20.995,20.995,20.995,20.995,20.995,21.0026,21.0178,21.0785,21.162,21.2228,21.2987,21.4278,21.5493,21.5948,21.686,21.7999,21.8834,21.9214,21.9517,21.9517,22.0049,22.0049,22.0049,22.0049,22.0049,22.0049,22.0049,22.0049,22.0049,22.0049,22.0049,22.0049,22.0049,22.0049,21.6781,21.6781,21.6781,21.6781,21.6781,21.6781,21.6951,21.7265,21.7251,21.7727,21.8199,21.8333,21.859,21.906,21.9256,21.9381,21.9671,21.9803,21.9845,21.9897,21.9593,21.8378,21.6328,21.6176,21.5797,21.5341,21.5265,21.5265,21.5265,21.5265,21.6176,21.7391,21.7847,21.8606,21.9517,21.9973,22.0049,22.0049,21.996,21.9834,21.9855,21.9839,21.9839,21.9839,21.9839,21.9834,21.9593,21.8454,21.6404,21.2911,21.2607,21.1544,21.0254,20.995,20.995,20.995,20.995,20.995,20.995,20.995,20.995,20.995,20.995,20.995,20.995,20.995,20.995,20.995,20.995,20.995,20.995,20.995,20.995,20.995,20.995,20.995,20.995,20.995,20.995,20.995,20.995,20.995,20.995,20.995,20.995,20.995,21.033,21.0785,21.162,21.2911,21.3974,21.4734,21.5873,21.7163,21.7847,21.853,21.9365,21.9897,21.9973,22.0049,22.0049,22.0049,22.0049,22.0049,22.0049,22.0049,22.0049,22.0049,22.0049,22.0049,22.0049,22.0049,22.0049,22.0049,22.0049,21.6781,21.6781,21.6781,21.6781,21.6781,21.6781,21.6951,21.7265,21.7327,21.7727,21.8199,21.8373,21.8642,21.906,21.9252,21.9487,21.9671,21.9803,21.9845,21.9745,21.891,21.7239,21.5493,21.4961,21.443,21.3671,21.3519,21.3519,21.3519,21.3519,21.443,21.5873,21.7012,21.7847,21.8682,21.9441,22.0049,22.0049,21.996,21.9834,21.9855,21.9839,21.9839,21.9839,21.9839,21.987,21.9627,21.8374,21.5948,21.3063,21.1544,21.0709,21.0026,20.995,20.995,20.995,20.995,20.995,20.995,20.995,20.995,20.995,20.995,20.995,20.995,20.995,20.995,20.995,20.995,20.995,20.995,20.995,20.995,20.995,20.995,20.995,20.995,20.995,20.995,20.995,20.995,20.995,20.995,20.995,20.995,21.0102,21.0709,21.162,21.2683,21.443,21.5873,21.6708,21.7695,21.8454,21.9138,21.9289,21.9897,21.9973,22.0049,22.0049,22.0049,22.0049,22.0049,22.0049,22.0049,22.0049,22.0049,22.0049,22.0049,22.0049,22.0049,22.0049,22.0049,22.0049,22.0049,21.6781,21.6781,21.6781,21.6781,21.6781,21.6781,21.7026,21.7265,21.6876,21.6974,21.7429,21.7297,21.7182,21.7774,21.7922,21.8227,21.8179,21.8362,21.8554,21.8302,21.6936,21.5493,21.4506,21.3898,21.2911,21.1924,21.1772,21.1848,21.1772,21.1772,21.2683,21.4354,21.5417,21.648,21.7543,21.8758,21.9517,21.9973,21.9954,21.9897,21.9855,21.9839,21.9839,21.9839,21.9839,21.9839,21.9703,21.836,21.5948,21.2683,21.0861,20.995,20.995,20.995,20.995,20.995,20.995,20.995,20.995,20.995,20.995,20.995,20.995,20.995,20.995,20.995,20.995,20.995,20.995,20.995,20.995,20.995,20.995,20.995,20.995,20.995,20.995,20.995,20.995,20.995,20.995,20.995,20.995,20.995,21.0178,21.0785,21.1696,21.2683,21.4354,21.6024,21.7163,21.815,21.891,21.9593,22.0049,22.0049,22.0049,22.0049,22.0049,22.0049,22.0049,22.0049,22.0049,22.0049,22.0049,22.0049,22.0049,22.0049,22.0049,22.0049,22.0049,22.0049,22.0049,22.0049,22.0049,21.6706,21.6781,21.6706,21.6481,21.6481,21.6556,21.6652,21.689,21.5749,21.5405,21.5545,21.4733,21.4361,21.4638,21.5303,21.545,21.507,21.5554,21.5669,21.4885,21.3822,21.2911,21.2456,21.1393,21.0709,21.033,21.0254,21.0254,21.033,21.033,21.0937,21.2456,21.3063,21.4278,21.686,21.7543,21.8606,21.9821,21.9996,21.9931,21.9839,21.9839,21.9839,21.9839,21.9839,21.9779,21.9429,21.8075,21.5797,21.2835,21.0861,20.995,20.995,20.995,20.995,20.995,20.995,20.995,20.995,20.995,20.995,20.995,20.995,20.995,20.995,20.995,20.995,20.995,20.995,20.995,20.995,20.995,20.995,20.995,20.995,20.995,20.995,20.995,20.995,20.995,20.995,20.995,20.995,20.995,21.0709,21.1696,21.2456,21.4126,21.5873,21.7163,21.8226,21.8986,21.9517,22.0049,22.0049,22.0049,22.0049,22.0049,22.0049,22.0049,22.0049,22.0049,22.0049,22.0049,22.0049,22.0049,22.0049,22.0049,22.0049,22.0049,22.0049,22.0049,22.0049,22.0049,22.0049,21.3565,21.3565,21.3565,21.364,21.3789,21.3856,21.411,21.4327,21.3864,21.3901,21.4113,21.3835,21.3865,21.4186,21.4456,21.4615,21.4701,21.4889,21.3847,21.1848,21.1013,21.0861,21.0785,21.0178,20.995,20.995,20.995,20.995,20.995,20.995,21.0254,21.1013,21.1924,21.3671,21.5721,21.6936,21.8378,21.9821,21.9996,21.9991,21.9915,21.9915,21.9839,21.9839,21.9839,21.9366,21.836,21.6784,21.4885,21.2683,21.0861,21.0026,20.995,20.995,20.995,20.995,20.995,20.995,20.995,20.995,20.995,20.995,20.995,20.995,20.995,20.995,20.995,20.995,20.995,20.995,20.995,20.995,20.995,20.995,20.995,20.995,20.995,20.995,20.995,20.995,20.995,20.995,20.995,21.0026,21.0633,21.2228,21.3367,21.5113,21.686,21.8378,21.9062,21.9669,22.0049,22.0049,22.0049,22.0049,22.0049,22.0049,22.0049,22.0049,22.0049,22.0049,22.0049,22.0049,22.0049,22.0049,22.0049,22.0049,22.0049,22.0049,22.0049,21.9897,21.9669,21.9745,21.9214,21.1696,21.1696,21.1696,21.1926,21.2076,21.216,21.239,21.2728,21.2277,21.2383,21.2696,21.2473,21.2438,21.2704,21.2997,21.3143,21.3237,21.3267,21.2187,21.033,21.0026,21.0026,21.0026,20.995,20.9949,20.9948,20.9945,20.995,20.995,20.995,20.9945,21.0102,21.1089,21.2532,21.4202,21.5873,21.7543,21.9138,21.9719,22.0036,21.9991,21.9915,21.9915,21.9855,21.9897,21.8876,21.6784,21.5645,21.3898,21.1772,21.0557,20.995,20.995,20.995,20.995,20.995,20.995,20.995,20.995,20.995,20.995,20.995,20.995,20.995,20.995,20.995,20.995,20.995,20.995,20.995,20.995,20.995,20.995,20.995,20.995,20.995,20.995,20.995,20.995,20.995,20.995,20.995,21.0026,21.0633,21.1544,21.3139,21.4734,21.6404,21.7999,21.9289,21.9973,22.0049,22.0049,22.0049,22.0049,22.0049,22.0049,22.0049,22.0049,22.0049,22.0049,22.0049,22.0049,22.0049,22.0049,22.0049,22.0049,22.0049,22.0049,22.0049,21.9289,21.9062,21.9138,21.8606,21.7771,21.1546,21.1397,21.1926,21.1707,21.1714,21.1999,21.2493,21.2268,21.1279,21.089,21.1092,20.9921,20.972,20.9666,21.0219,21.0033,21.0277,21.0431,21.0241,21.0026,20.995,20.995,20.995,20.995,20.9942,20.9918,20.9918,20.9965,20.9928,20.9928,20.9985,20.995,21.0102,21.1241,21.2607,21.443,21.6024,21.7847,21.9365,22.003,22.0022,21.9991,22.0007,21.987,21.9954,21.853,21.5265,21.5037,21.3519,21.0557,20.995,20.995,20.995,20.995,20.995,20.995,20.995,20.995,20.995,20.995,20.995,20.995,20.995,20.995,20.995,20.995,20.995,20.995,20.995,20.995,20.995,20.995,20.995,20.995,20.995,20.995,20.995,20.995,20.995,20.995,20.995,20.995,21.0254,21.1165,21.2683,21.443,21.61,21.7771,21.9289,21.9821,22.0049,22.0049,22.0049,22.0049,22.0049,22.0049,22.0049,22.0049,21.9973,22.0049,22.0049,22.0049,22.0049,21.9289,21.9214,21.891,21.8834,21.8454,21.8758,21.8606,21.815,21.7467,21.7315,21.6936,21.6252,20.841,20.8489,20.8635,20.8869,20.9002,20.9195,20.9411,20.9625,20.9289,20.9331,20.9527,20.9413,20.9338,20.953,20.9662,20.977,20.9913,20.9925,20.995,20.995,20.995,20.995,20.995,20.9918,20.9954,20.9941,20.9941,20.9928,20.9974,20.9974,20.9976,20.9949,20.995,21.1317,21.3822,21.4658,21.648,21.8834,21.9745,22.0049,22.0036,22.0049,22.0036,21.9973,22.0047,21.8454,21.5189,21.4961,21.3443,21.0481,20.995,20.995,20.995,20.995,20.995,20.995,20.995,20.995,20.995,20.995,20.995,20.995,20.995,20.995,20.995,20.995,20.995,20.995,20.995,20.995,20.995,20.995,20.995,20.995,20.995,20.995,20.995,20.995,20.995,20.995,20.995,20.995,21.0178,21.1469,21.3139,21.481,21.648,21.815,21.9593,22.0049,22.0049,22.0049,22.0049,22.0049,22.0049,22.0049,22.0049,21.9973,21.9897,21.9973,22.0049,22.0049,21.9745,21.8682,21.8075,21.7619,21.7163,21.6708,21.648,21.648,21.61,21.5873,21.5569,21.5189,21.4885,20.6992,20.6996,20.7146,20.7431,20.7681,20.7756,20.797,20.838,20.8449,20.8696,20.8983,20.9229,20.9438,20.9688,20.973,20.9881,20.9941,20.9942,20.995,20.995,20.995,20.995,20.995,20.9965,20.9974,20.9974,20.9974,20.9974,20.9974,20.9974,20.9954,21.0008,21.0479,21.1848,21.3898,21.5265,21.686,21.8986,21.9821,22.0049,22.0049,22.0023,22.0023,22.0049,22.0049,21.8758,21.6024,21.5265,21.3671,21.0937,21.0254,20.995,20.995,20.995,20.9722,20.9115,20.8507,20.8203,20.8203,20.8203,20.8203,20.8203,20.8203,20.8052,20.8203,20.8203,20.8431,20.8811,20.9039,20.8659,20.8431,20.8735,20.9039,20.9115,20.957,20.995,20.995,20.995,20.995,20.995,20.995,20.995,21.033,21.1924,21.3746,21.4961,21.7012,21.8758,21.9821,22.0049,22.0049,22.0049,22.0049,22.0049,22.0049,21.9973,21.9973,21.9897,21.9365,21.9138,21.8682,21.8454,21.7923,21.6784,21.6632,21.6252,21.61,21.5645,21.5645,21.5341,21.443,21.4202,21.405,21.2987,21.2835,20.6917,20.7071,20.7486,20.7681,20.7831,20.812,20.8304,20.8666,20.8702,20.8863,20.9115,20.9297,20.953,20.9761,20.9845,20.9941,20.9925,20.9948,20.995,20.995,20.995,20.995,20.9949,20.9965,20.9974,20.9974,20.9974,20.9974,20.9974,21.005,21.005,21.0369,21.183,21.2683,21.3443,21.6024,21.7543,21.8075,21.9365,22.0049,22.0049,22.0049,22.0049,22.0049,22.0049,21.9214,21.7467,21.5873,21.4202,21.2532,21.0861,20.995,20.995,20.9874,20.9039,20.7596,20.6077,20.5166,20.5318,20.5394,20.5318,20.5242,20.547,20.5242,20.5546,20.5546,20.6077,20.714,20.714,20.6609,20.5774,20.6685,20.7292,20.7444,20.8811,20.957,20.9722,20.9722,20.995,20.995,20.995,20.995,21.0026,21.2835,21.4278,21.5493,21.7771,21.9821,21.9897,22.0049,22.0049,22.0049,22.0049,21.9973,21.9897,21.9517,21.9593,21.9062,21.7847,21.7391,21.686,21.6252,21.5493,21.4961,21.4885,21.4885,21.481,21.4582,21.4278,21.3822,21.2835,21.2532,21.238,21.0937,21.07,20.692,20.7071,20.7411,20.7831,20.812,20.8234,20.8449,20.8702,20.8751,20.8951,20.9297,20.9394,20.9562,20.977,20.9881,20.9965,20.9945,20.9949,20.995,20.995,20.995,20.9948,20.9932,20.9941,20.9974,20.9974,20.9974,20.9974,21.005,21.1112,21.2402,21.354,21.404,21.4929,21.61,21.6936,21.8075,21.9289,21.9745,22.0049,22.0049,22.0049,22.0049,22.0049,22.0049,21.9214,21.7543,21.5873,21.4202,21.2532,21.0861,20.995,20.9874,20.8735,20.79,20.7292,20.5926,20.509,20.509,20.509,20.509,20.509,20.509,20.509,20.509,20.509,20.5318,20.5546,20.4559,20.4407,20.4787,20.547,20.5698,20.585,20.714,20.8052,20.8279,20.9267,20.9874,20.995,20.995,20.995,21.0254,21.1696,21.3671,21.481,21.6784,21.853,21.9669,21.9973,22.0049,22.0049,21.9973,21.9441,21.8454,21.8226,21.7543,21.6784,21.6176,21.5721,21.5569,21.5417,21.4885,21.3215,21.3215,21.2987,21.238,21.1696,21.1241,21.1165,21.1013,21.0785,21.0861,21.0406,21.0004,20.7145,20.729,20.7627,20.7957,20.8404,20.8501,20.8649,20.8923,20.9027,20.9153,20.9211,20.8096,20.7682,20.7773,20.784,20.8262,20.8887,20.8887,20.9267,20.995,20.995,20.9945,20.9994,20.9928,20.9974,20.9974,21.0657,21.096,21.1264,21.263,21.392,21.4906,21.5665,21.6504,21.7467,21.8226,21.8986,21.9973,22.0049,22.0049,22.0049,22.0049,22.0049,22.0049,22.0049,21.9517,21.8454,21.6252,21.4506,21.3443,21.1165,20.9646,20.8887,20.7976,20.6837,20.547,20.4559,20.3724,20.304,20.304,20.304,20.304,20.304,20.304,20.2964,20.304,20.304,20.2888,20.2053,20.1901,20.2812,20.3648,20.4027,20.4255,20.547,20.6761,20.7292,20.8279,20.9267,20.9874,20.995,20.995,21.0102,21.0861,21.2076,21.3746,21.61,21.7771,21.8834,21.9669,21.9973,21.9897,21.8758,21.7695,21.6784,21.648,21.61,21.5189,21.443,21.3974,21.3822,21.3519,21.2683,21.162,21.1469,21.1013,21.0026,20.995,20.995,21.0102,21.0026,20.9948,20.9932,20.9878,20.9881,20.7506,20.7711,20.7831,20.8253,20.8676,20.8772,20.8969,20.9166,20.9151,20.9091,20.8545,20.6109,20.4965,20.4932,20.5007,20.585,20.714,20.7368,20.8279,20.957,20.9874,20.9945,20.9994,21.0156,21.0126,21.0429,21.1947,21.263,21.2782,21.4299,21.5058,21.521,21.6803,21.7784,21.7923,21.9289,21.9973,22.0049,22.0352,22.0504,22.0504,22.0504,22.0428,22.0277,22.0277,22.0201,21.9897,21.6936,21.5189,21.481,21.1924,20.9418,20.7672,20.7216,20.585,20.2888,20.2433,20.1673,20.0307,20.0003,20.0155,20.0003,20.0231,20.0231,20.0231,20.0155,20.0079,20.0231,20.0155,20.0155,20.0155,20.1446,20.2281,20.2433,20.3799,20.5394,20.6457,20.7065,20.7824,20.9494,20.9494,20.9722,20.9874,21.0102,21.0709,21.2076,21.4658,21.6632,21.7239,21.8302,21.9062,21.8758,21.7163,21.5265,21.481,21.481,21.4506,21.4202,21.3139,21.2456,21.2076,21.1165,21.0026,21.0481,21.0178,21.0178,20.995,20.995,20.995,20.995,20.995,20.9937,20.9941,20.9898,20.9295,20.7767,20.7831,20.8078,20.8495,20.8847,20.9115,20.9227,20.9187,20.8043,20.6933,20.5881,20.5177,20.4879,20.4931,20.4938,20.5166,20.5698,20.6837,20.7596,20.8052,20.9342,20.9945,21.007,21.1308,21.1871,21.2099,21.3464,21.4223,21.4451,21.5969,21.6728,21.6955,21.8473,21.9302,21.9365,21.9821,22.0049,22.0201,22.2554,22.3845,22.3921,22.3845,22.3238,22.2099,22.2023,22.1416,22.0049,21.8075,21.6328,21.4961,21.2987,21.0481,20.7672,20.6305,20.4711,20.2736,20.1294,20.0383,20.0079,20.0003,20.0003,20.0003,20.0003,20.0003,20.0003,20.0003,20.0003,20.0003,20.0003,20.0003,20.0079,20.0459,20.061,20.0686,20.2129,20.3344,20.3724,20.4863,20.6229,20.7672,20.7976,20.8507,20.957,20.995,21.0102,21.0633,21.2228,21.4126,21.5265,21.5797,21.61,21.5948,21.5569,21.443,21.3215,21.3063,21.2532,21.1165,21.0785,21.0709,21.0481,21.0254,20.9874,20.9646,20.9798,20.9646,20.9874,20.9798,20.9722,20.957,20.9552,20.9726,20.9594,20.9578,20.8971,20.582,20.5861,20.6157,20.6411,20.6565,20.6956,20.7197,20.7029,20.5594,20.4496,20.3675,20.2982,20.2643,20.2661,20.2661,20.3116,20.3951,20.4787,20.6001,20.7444,20.8355,20.9183,21.0041,21.1659,21.2478,21.263,21.483,21.5969,21.612,21.7638,21.8473,21.8549,21.9384,21.9834,21.9973,22.0732,22.1188,22.1264,22.3618,22.4984,22.4984,22.4984,22.4529,22.3769,22.3769,22.2934,22.1264,21.9593,21.7543,21.5113,21.3367,21.0633,20.6609,20.4787,20.2812,20.0383,19.8636,19.7725,19.7725,19.7725,19.8029,19.8788,19.8864,19.8864,19.8864,19.8864,19.9168,19.9927,20.0003,20.0003,20.0003,20.0003,20.0003,20.0003,20.0762,20.1749,20.2433,20.342,20.4559,20.6001,20.6305,20.6989,20.8583,20.8735,20.8963,20.9874,21.0633,21.1924,21.3595,21.3215,21.2683,21.2683,21.2683,21.2228,21.1544,21.1317,21.0937,21.0102,20.995,20.9646,20.8887,20.8735,20.8431,20.79,20.7672,20.7672,20.7596,20.7596,20.7596,20.7592,20.7612,20.7637,20.7621,20.7529,20.675,20.3593,20.3596,20.3711,20.3886,20.397,20.4375,20.4528,20.4529,20.2277,20.1338,20.1213,19.9919,19.932,19.932,19.932,20.0231,20.1825,20.2053,20.3951,20.7065,20.7292,20.8337,20.9974,21.1643,21.2478,21.2706,21.5513,21.7107,21.7486,21.8776,21.9611,21.9839,21.9839,21.9909,22.0201,22.1719,22.2782,22.3238,22.4832,22.5592,22.5592,22.5592,22.5592,22.544,22.5212,22.4301,22.263,22.0656,21.8226,21.5113,21.3139,20.9874,20.509,20.3116,20.0534,19.7118,19.5447,19.4536,19.4232,19.4308,19.4991,19.6586,19.7042,19.7042,19.6814,19.6966,19.7725,19.9092,19.9471,19.9699,19.9699,19.9851,20.0003,20.0003,20.0079,20.061,20.1901,20.2205,20.2812,20.4483,20.4711,20.5318,20.6837,20.7292,20.8052,20.9191,20.9874,21.0481,21.1544,21.0861,21.0026,20.995,20.995,20.995,21.0102,20.995,20.9874,20.9646,20.9494,20.8887,20.7368,20.714,20.6761,20.5394,20.5394,20.5242,20.5166,20.4937,20.5154,20.5287,20.5324,20.5193,20.5253,20.4459,20.3846,20.374,20.3876,20.4044,20.4223,20.4408,20.4439,20.4533,20.4266,19.8727,0.0,0.0,19.6054,19.5827,19.5827,19.5827,19.6814,19.8484,19.9851,20.2281,20.547,20.6837,20.8337,20.9974,21.1643,21.2478,21.2554,21.4451,21.6045,21.7335,21.7638,21.8473,21.9763,21.9839,21.992,22.0125,22.1719,22.3921,22.6503,22.8173,22.9085,22.9085,22.9085,22.8401,22.7034,22.5668,22.4225,22.2554,21.9593,21.7012,21.5037,21.2076,20.8128,20.3344,20.137,19.8332,19.3777,19.3093,19.2258,19.0891,19.0815,19.1499,19.3169,19.4612,19.484,19.3397,19.4612,19.5523,19.5827,19.7118,19.7953,19.7953,19.9168,20.0003,20.0003,20.0003,20.0079,20.0383,20.0459,20.1142,20.2661,20.2964,20.3648,20.5242,20.6457,20.7596,20.7976,20.9039,21.0178,21.0254,21.0178,20.995,20.995,20.995,20.995,20.995,20.9874,20.9342,20.8203,20.79,20.7292,20.5926,20.547,20.5318,20.4711,20.4863,20.4787,20.4845,20.4671,20.4932,20.4919,20.4905,20.4814,20.4459,20.2435,20.05,19.9733,19.9089,19.9243,19.9454,0.0,19.9577,19.8711,19.6936,19.3747,19.2398,19.241,19.241,19.241,19.2486,19.3321,19.4156,19.5067,19.7573,20.0079,20.2585,20.509,20.706,20.8703,21.1218,21.2478,21.2554,21.4178,21.5392,21.612,21.612,21.7,21.8649,21.8649,21.9125,22.0049,22.1719,22.4605,22.8705,22.954,22.992,22.992,22.992,22.954,22.8705,22.7034,0.0,0.0,0.0,0.0,0.0,0.0,0.0,0.0,19.932,19.5219,19.0284,18.755,18.5424,18.3754,18.2842,18.307,18.4741,18.7246,18.793,18.6259,18.9297,19.1878,19.3549,19.4384,19.5295,19.613,19.6966,19.7421,19.7421,19.7421,19.7877,19.856,19.8788,19.9395,20.0914,20.1218,20.1901,20.3572,20.4559,20.547,20.714,20.8203,20.8963,20.9722,20.995,20.995,20.995,20.995,20.995,20.9874,20.9342,20.8279,20.752,20.6685,20.5546,20.4027,20.3722,20.3336,20.2577,20.2415,20.2394,20.2363,20.2338,20.2309,20.2353,20.2259,20.222,20.193,20.0513,19.9088,19.5395,19.4044,19.4095,19.4047,19.381,19.3155,19.1469,18.8993,18.8993,18.8993,18.8993,18.8993,18.8993,18.9069,19.0436,19.1347,19.2106,19.484,19.7497,20.0155,20.3192,20.5546,20.752,21.0593,21.1991,21.2067,21.3381,21.4205,21.4527,21.4482,21.5375,21.7012,21.7315,21.8226,21.9593,0.0,0.0,0.0,22.9464,22.992,22.992,22.992,22.9844,22.9464,22.787,0.0,22.4149,22.0884,21.7543,21.4126,21.0481,0.0,0.0,0.0,0.0,0.0,0.0,0.0,0.0,0.0,0.0,0.0,17.7224,17.8059,17.7831,18.2235,18.6715,19.0208,19.0815,19.1726,19.3397,19.3777,19.4004,19.4004,19.4308,19.4991,19.6358,19.6814,19.7497,19.886,19.932,20.0079,20.137,20.2205,20.3724,20.6381,20.7216,20.8052,20.9646,20.995,20.995,20.995,20.995,20.995,20.995,20.8583,20.7444,20.6761,20.5546,20.3875,20.2433,20.2029,20.1407,20.0411,19.9998,20.0033,19.9941,19.9773,19.9983,19.9793,19.9729,19.9478,19.92,19.9007,19.8786,19.3946,19.2503,19.2548,19.1761,19.0334,18.7458,18.6031,18.5652,18.5652,18.5652,18.5652,18.5652,18.5652,18.5728,18.5956,18.755,19.0208,19.0663,19.4156,20.0003,20.1977,20.4483,20.7444,20.9418,21.0252,21.0249,21.0497,21.134,21.2782,21.2735,21.367,21.5341,21.6784,21.7619,21.7923,21.9517,22.1416,22.3542,22.7794,22.992,22.992,22.992,22.9236,22.7794,22.6199,22.3921,22.0808,21.7467,21.405,21.0709,20.6001,20.1218,19.6206,19.1271,18.4969,0.0,17.4566,0.0,0.0,0.0,0.0,0.0,0.0,0.0,0.0,17.3655,17.859,18.3374,18.512,18.6715,18.8385,18.9752,19.0587,19.0587,19.1878,19.2865,19.3093,19.446,19.5367,19.5608,19.6886,19.783,19.8332,20.0762,20.3192,20.5166,20.6457,20.79,20.957,20.995,20.995,20.995,20.995,20.995,20.9798,20.8431,20.6837,20.5394,20.3799,20.2129,20.0693,20.0365,20.0275,19.9972,19.9805,19.9773,19.9697,19.9675,19.9653,19.9656,19.9527,19.9344,19.9007,19.8832,19.8739,18.9629,18.813,18.8104,18.5057,18.0088,17.8665,17.8059,17.8135,17.9046,17.9426,17.9426,17.9426,17.9426,17.9426,17.9426,18.1248,18.4513,18.7322,19.1195,19.5979,20.0459,20.3799,20.6229,20.8735,20.995,20.995,20.9937,21.0305,21.0988,21.01,21.1013,21.3519,21.3443,21.3291,21.3443,21.686,21.9441,22.1188,22.6047,22.9009,22.992,22.992,22.9161,22.749,22.5895,22.3542,22.0125,21.6784,21.3443,20.995,20.4331,19.8864,19.3777,18.6183,17.8666,0.0,0.0,0.0,0.0,0.0,0.0,0.0,0.0,0.0,0.0,0.0,16.9782,17.3883,17.7375,18.0565,18.3146,18.3981,18.4437,18.4437,18.512,18.5879,18.686,18.8363,19.0087,19.1941,19.3673,19.5391,19.7269,19.8864,20.1066,20.4559,20.5698,20.6989,20.9342,20.995,20.995,20.995,20.995,20.995,20.995,20.7748,20.5468,20.3776,20.209,20.0714,20.0048,19.9925,19.9813,19.9717,19.9717,19.9697,19.9605,19.958,19.9527,19.944,19.9276,19.9048,19.8691,19.8565,19.8479,18.4655,18.2985,18.1403,17.6893,17.0693,17.0693,17.0693,17.0769,17.206,17.282,17.3123,17.2744,17.282,17.3199,17.3199,17.5022,17.8438,18.307,18.7398,19.1575,19.7801,20.1825,20.3951,20.7216,20.8811,20.8811,20.8811,20.8735,20.8735,20.7065,20.7748,21.0406,20.7824,20.6761,20.7748,21.2607,21.6328,21.8834,22.3769,22.7262,22.9312,22.9388,22.8553,22.6883,22.4908,22.2327,21.891,21.5569,21.1848,20.7672,20.1218,19.4991,18.9145,17.9729,0.0,0.0,0.0,0.0,0.0,0.0,0.0,0.0,0.0,14.761,15.3457,0.0,16.0974,0.0,16.9479,17.3807,17.6768,17.7375,0.0,0.0,17.7981,17.8732,17.9998,18.1858,18.4186,18.7222,18.9712,19.2332,19.5284,19.6736,19.894,20.2661,20.3951,20.5622,20.8811,20.9646,20.995,20.995,20.995,20.995,20.9722,20.7442,20.4839,20.2704,20.0564,19.9258,19.9148,19.8787,19.8568,19.8898,19.8898,19.9175,19.9394,19.9409,19.9117,19.8107,19.7712,19.751,19.7178,19.703,19.6929,17.9619,17.75,17.1446,16.7656,16.5682,16.5606,16.5606,16.5606,16.5758,16.6669,16.8036,16.6517,16.6669,16.8112,16.8188,0.0,17.3199,17.6692,18.1779,18.8158,19.3245,19.7269,20.0534,20.3875,20.547,20.547,20.547,20.547,20.5318,20.3724,20.3799,20.5394,19.932,19.7725,20.0914,20.5774,21.0633,21.5341,22.0428,22.4453,22.7566,22.7642,22.6883,22.5364,22.2175,21.891,21.5493,21.2152,20.7368,20.1066,19.4308,18.7019,17.9046,0.0,0.0,0.0,0.0,0.0,0.0,0.0,0.0,0.0,0.0,0.0,0.0,0.0,0.0,15.5659,16.1961,0.0,16.834,16.9858,0.0,0.0,0.0,17.3031,17.3182,17.599,17.8633,18.0544,0.0,0.0,19.0334,19.4595,19.7649,19.8029,20.0762,20.3951,20.714,20.8963,20.995,20.995,20.995,20.995,20.9722,20.8172,20.5829,20.2856,19.9653,19.7631,19.7204,19.6093,19.5635,19.65,19.6922,19.7343,19.8977,19.8712,19.8141,19.4568,19.3966,19.3862,19.3511,19.3395,19.3349,17.0538,16.4995,16.0442,15.8165,15.7557,15.7557,15.7557,15.7557,15.8544,15.9304,15.9911,15.9228,15.8772,15.862,15.9456,0.0,0.0,0.0,17.411,18.1703,18.7702,19.2789,19.7042,20.0459,20.2053,20.1977,20.099,20.0459,20.0459,19.7801,19.4308,18.998,0.0,18.8613,19.3928,19.894,20.4863,21.1772,21.6936,22.1643,22.5895,22.6959,22.6655,22.4984,22.1795,21.7999,21.3595,21.0254,20.4863,19.7269,18.96,18.1172,0.0,0.0,0.0,0.0,0.0,0.0,0.0,0.0,0.0,0.0,0.0,13.1361,13.4702,0.0,0.0,0.0,15.2014,15.7861,16.2569,16.3556,0.0,0.0,0.0,0.0,0.0,0.0,0.0,17.1824,17.5787,17.9996,18.4765,18.8017,19.14,19.5371,19.8852,20.2621,20.6797,0.0,20.8811,20.9722,20.995,20.9568,20.8543,20.7015,20.5096,20.2704,19.949,19.6624,19.4498,19.3319,19.2581,19.2358,19.2851,19.364,19.4313,19.2595,19.0597,18.9161,18.9524,19.0086,18.9771,18.9771,18.9945,15.9456,0.0,0.0,0.0,0.0,14.8218,14.8218,14.837,14.9964,15.0648,15.0572,15.0116,0.0,0.0,0.0,0.0,0.0,0.0,16.6138,17.3427,18.064,18.6335,19.0739,19.3625,19.4991,19.4991,19.3321,19.2486,19.2182,18.6183,18.0413,17.5097,0.0,0.0,0.0,0.0,19.9471,20.7596,21.3746,21.9062,22.3618,22.5668,22.5971,22.4225,22.0125,21.5721,21.1165,20.6381,20.0003,19.1726,18.2994,0.0,0.0,0.0,0.0,0.0,0.0,0.0,0.0,0.0,0.0,0.0,0.0,0.0,0.0,0.0,0.0,0.0,0.0,0.0,15.4368,15.6646,15.8075,0.0,0.0,0.0,0.0,0.0,0.0,0.0,0.0,0.0,17.59,17.9179,18.3869,0.0,0.0,20.0169,20.4662,20.6122,20.7138,20.8355,20.8503,0.0,20.6878,20.4856,20.3058,20.1869,19.8288,19.4289,19.0411,18.8654,18.7547,18.6976,18.7688,18.725,18.4645,18.2031,18.0892,18.1233,18.217,18.2952,18.3291,18.3677,18.4287,0.0,0.0,0.0,0.0,13.7967,0.0,0.0,0.0,13.9713,14.0397,0.0,13.8802,0.0,0.0,0.0,0.0,14.351,15.1407,0.0,0.0,17.1377,17.7148,18.0413,18.2235,18.307,18.2994,18.1324,18.0413,17.9577,16.7352,16.1658,0.0,0.0,0.0,0.0,0.0,19.4308,20.2736,21.0861,21.6784,22.0201,22.3466,22.4377,22.2554,21.6328,21.1241,20.752,19.9775,19.1575,18.3222,17.3351,0.0,0.0,0.0,0.0,0.0,0.0,0.0,0.0,0.0,0.0,0.0,0.0,0.0,0.0,0.0,0.0,0.0,0.0,0.0,0.0,14.8816,0.0,0.0,0.0,0.0,0.0,0.0,0.0,0.0,0.0,16.4166,16.2879,16.8384,17.5505,18.3931,0.0,0.0,0.0,0.0,20.4921,20.509,20.5051,20.5056,20.4965,20.2158,19.9957,19.9881,0.0,0.0,18.506,18.1335,17.952,18.0929,18.0953,17.814,16.8218,16.7656,16.9025,17.0525,17.105,17.1517,17.2759,17.4257,17.5392,0.0,0.0,0.0,0.0,0.0,0.0,0.0,0.0,0.0,13.0222,13.0146,12.9539,0.0,0.0,0.0,0.0,0.0,0.0,0.0,0.0,15.8544,16.3708,16.7049,16.9782,17.1149,17.0997,16.9403,16.4087,0.0,0.0,0.0,0.0,0.0,0.0,0.0,0.0,18.8613,19.9092,20.7444,21.4354,21.9821,22.2251,22.3162,22.2554,21.9214,21.2759,20.2888,19.4612,18.5272,0.0,0.0,0.0,0.0,0.0,0.0,0.0,0.0,0.0,0.0,0.0,0.0,0.0,0.0,0.0,0.0,0.0,0.0,0.0,0.0,0.0,0.0,0.0,14.5341,0.0,0.0,0.0,0.0,0.0,0.0,0.0,0.0,0.0,15.5082,16.2039,17.0227,17.8593,18.5666,19.1525,19.5962,0.0,0.0,0.0,0.0,0.0,0.0,0.0,19.7377,19.51,19.0456,18.5609,18.1429,17.5874,17.1367,16.9685,0.0,0.0,15.6088,15.6202,15.8225,15.8806,16.0697,16.2227,16.2765,16.4187,16.5546,0.0,0.0,0.0,0.0,0.0,0.0,0.0,0.0,0.0,12.1338,12.0807,0.0,0.0,0.0,0.0,0.0,0.0,0.0,0.0,0.0,0.0,0.0,15.414,15.6418,0.0,0.0,0.0,0.0,0.0,0.0,0.0,0.0,0.0,0.0,0.0,0.0,18.4057,19.5599,20.4559,21.2076,21.815,22.058,22.1416,22.0884,21.8682,21.2228,20.1142,0.0,0.0,0.0,0.0,0.0,0.0,0.0,0.0,0.0,0.0,0.0,0.0,0.0,0.0,0.0,0.0,0.0,0.0,0.0,0.0,0.0,0.0,0.0,0.0,0.0,13.7959,0.0,0.0,0.0,0.0,0.0,0.0,0.0,0.0,0.0,0.0,15.5655,16.4318,17.33,18.0469,18.6762,19.2319,19.5448,19.7847,0.0,0.0,0.0,0.0,0.0,0.0,0.0,0.0,0.0,0.0,0.0,0.0,0.0,15.6443,15.2061,14.4313,14.4655,14.6321,14.688,0.0,0.0,0.0,0.0,0.0,0.0,0.0,0.0,0.0,0.0,0.0,0.0,0.0,0.0,0.0,11.2302,0.0,0.0,11.0024,0.0,0.0,0.0,0.0,0.0,0.0,0.0,0.0,0.0,0.0,0.0,0.0,0.0,0.0,0.0,0.0,0.0,0.0,0.0,0.0,0.0,0.0,18.064,19.2334,20.2357,20.995,21.4961,21.8302,21.9289,21.7619,21.4278,20.9342,20.2585,0.0,0.0,0.0,0.0,0.0,0.0,0.0,0.0,0.0,0.0,0.0,0.0,0.0,0.0,0.0,0.0,0.0,0.0,0.0,0.0,0.0,0.0,0.0,0.0,0.0,0.0,13.6267,13.8427,13.8526,0.0,0.0,0.0,0.0,0.0,0.0,0.0,0.0,0.0,16.7744,17.505,18.1845,18.8513,19.0863,19.2506,19.4198,19.4348,19.3644,19.2131,18.9063,18.5709,0.0,0.0,0.0,0.0,0.0,0.0,0.0,0.0,0.0,0.0,0.0,0.0,0.0,0.0,0.0,0.0,0.0,0.0,0.0,0.0,0.0,0.0,0.0,0.0,0.0,0.0,0.0,0.0,0.0,0.0,0.0,0.0,0.0,0.0,0.0,0.0,0.0,0.0,0.0,0.0,0.0,0.0,0.0,0.0,0.0,0.0,0.0,0.0,0.0,0.0,0.0,0.0,0.0,0.0,17.7831,19.0587,20.1749,20.9874,21.4885,21.8302,21.9214,21.7543,21.4202,20.8811,0.0,0.0,0.0,0.0,0.0,0.0,0.0,0.0,0.0,0.0,0.0,0.0,0.0,0.0,0.0,0.0,0.0,0.0,0.0,0.0,0.0,0.0,0.0,0.0,0.0,0.0,0.0,0.0,13.1909,13.3509,13.1593,0.0,0.0,0.0,0.0,0.0,0.0,0.0,0.0,0.0,0.0,17.4814,18.1536,18.4808,18.7199,18.8646,18.8838,18.8608,18.8011,18.4229,18.0204,17.6707,0.0,0.0,0.0,0.0,0.0,0.0,0.0,0.0,0.0,0.0,0.0,0.0,0.0,0.0,0.0,0.0,0.0,0.0,0.0,0.0,0.0,0.0,0.0,0.0,0.0,0.0,0.0,0.0,0.0,0.0,0.0,0.0,0.0,0.0,0.0,0.0,0.0,0.0,0.0,0.0,0.0,0.0,0.0,0.0,0.0,0.0,0.0,0.0,0.0,0.0,0.0,0.0,0.0,17.5401,18.793,19.9547,20.8279,21.3822,21.6708,21.7619,21.6556,21.2076,20.5698,0.0,0.0,0.0,0.0,0.0,0.0,0.0,0.0,0.0,0.0,0.0,0.0,0.0,0.0,0.0,0.0,0.0,0.0,0.0,0.0,0.0,0.0,0.0,0.0,0.0,0.0,0.0,0.0,12.6071,12.8509,12.7273,0.0,0.0,0.0,0.0,0.0,0.0,0.0,0.0,0.0,0.0,16.8314,17.6247,17.8975,0.0,0.0,18.2885,18.2226,18.1458,17.7231,17.2703,16.8615,16.1551,0.0,0.0,0.0,0.0,0.0,0.0,0.0,0.0,0.0,0.0,0.0,0.0,0.0,0.0,0.0,0.0,0.0,0.0,0.0,0.0,0.0,0.0,0.0,0.0,0.0,0.0,0.0,0.0,0.0,0.0,0.0,0.0,0.0,0.0,0.0,0.0,0.0,0.0,0.0,0.0,0.0,0.0,0.0,0.0,0.0,0.0,0.0,0.0,0.0,0.0,0.0,0.0,17.3123,18.4969,19.651,20.5622,21.2,21.405,21.4885,21.4582,20.8431,20.099,0.0,0.0,0.0,0.0,0.0,0.0,0.0,0.0,0.0,0.0,0.0,0.0,0.0,0.0,0.0,0.0,0.0,0.0,0.0,0.0,0.0,0.0,0.0,0.0,0.0,0.0,0.0,0.0,0.0,0.0,0.0,0.0,0.0,0.0,0.0,0.0,0.0,0.0,0.0,0.0,0.0,16.2167,17.1948,17.3151,17.423,0.0,17.6347,17.4652,17.2926,16.8581,16.3784,15.893,0.0,0.0,0.0,0.0,0.0,0.0,0.0,0.0,0.0,0.0,0.0,0.0,0.0,0.0,0.0,0.0,0.0,0.0,0.0,0.0,0.0,0.0,0.0,0.0,0.0,0.0,0.0,0.0,0.0,0.0,0.0,0.0,0.0,0.0,0.0,0.0,0.0,0.0,0.0,0.0,0.0,0.0,0.0,0.0,0.0,0.0,0.0,0.0,0.0,0.0,0.0,0.0,0.0,0.0,18.4893,19.5371,20.3875,21.033,21.3443,21.3746,21.1241,20.7216,0.0,0.0,0.0,0.0,0.0,0.0,0.0,0.0,0.0,0.0,0.0,0.0,0.0,0.0,0.0,0.0,0.0,0.0,0.0,0.0,0.0,0.0,0.0,0.0,0.0,0.0,0.0,10.5772,0.0,0.0,0.0,0.0,0.0,0.0,0.0,0.0,0.0,0.0,0.0,0.0,0.0,0.0,15.7564,16.4914,16.5921,16.7028,0.0,0.0,16.6001,16.5424,16.1412,15.7049,0.0,0.0,0.0,0.0,0.0,0.0,0.0,0.0,0.0,0.0,0.0,0.0,0.0,0.0,0.0,0.0,0.0,0.0,0.0,0.0,0.0,0.0,0.0,0.0,0.0,0.0,0.0,0.0,0.0,0.0,0.0,0.0,0.0,0.0,0.0,0.0,0.0,0.0,0.0,0.0,0.0,0.0,0.0,0.0,0.0,0.0,0.0,0.0,0.0,0.0,0.0,0.0,0.0,0.0,16.8112,18.1628,19.3093,20.2129,20.8583,21.1469,21.1924,20.995,20.5394,19.7269,0.0,0.0,0.0,0.0,0.0,0.0,0.0,0.0,0.0,0.0,0.0,0.0,0.0,0.0,0.0,0.0,0.0,0.0,0.0,0.0,0.0,0.0,0.0,0.0,0.0,0.0,0.0,0.0,0.0,0.0,0.0,0.0,0.0,0.0,0.0,0.0,0.0,0.0,0.0,0.0,0.0,0.0,15.7004,15.8431,0.0,0.0,0.0,15.7551,15.7438,0.0,0.0,0.0,0.0,0.0,0.0,0.0,0.0,0.0,0.0,0.0,0.0,0.0,0.0,0.0,0.0,0.0,0.0,0.0,0.0,0.0,0.0,0.0,0.0,0.0,0.0,0.0,0.0,0.0,0.0,0.0,0.0,0.0,0.0,0.0,0.0,0.0,0.0,0.0,0.0,0.0,0.0,0.0,0.0,0.0,0.0,0.0,0.0,0.0,0.0,0.0,0.0,0.0,0.0,0.0,0.0,0.0,17.7148,19.0056,19.9927,20.6533,20.8659,20.957,20.9267,20.3116,19.4916,0.0,0.0,0.0,0.0,0.0,0.0,0.0,0.0,0.0,0.0,0.0,0.0,0.0,0.0,0.0,0.0,0.0,0.0,0.0,0.0,0.0,0.0,0.0,0.0,0.0,0.0,0.0,0.0,0.0,0.0,0.0,0.0,0.0,0.0,0.0,0.0,0.0,0.0,0.0,0.0,0.0,14.4593,14.9168,15.1043,15.189,0.0,0.0,14.9213,14.933,14.5212,0.0,0.0,0.0,0.0,0.0,0.0,0.0,0.0,0.0,0.0,0.0,0.0,0.0,0.0,0.0,0.0,0.0,0.0,0.0,0.0,0.0,0.0,0.0,0.0,0.0,0.0,0.0,0.0,0.0,0.0,0.0,0.0,0.0,0.0,0.0,0.0,0.0,0.0,0.0,0.0,0.0,0.0,0.0,0.0,0.0,0.0,0.0,0.0,0.0,0.0,0.0,0.0,0.0,0.0,0.0,0.0,17.5249,18.6032,19.5371,20.3192,20.6381,20.7292,20.6001,20.0838,19.2638,0.0,0.0,0.0,0.0,0.0,0.0,0.0,0.0,0.0,0.0,0.0,0.0,0.0,0.0,0.0,0.0,0.0,0.0,0.0,0.0,0.0,0.0,0.0,0.0,0.0,0.0,0.0,0.0,0.0,0.0,0.0,0.0,0.0,0.0,0.0,0.0,0.0,0.0,0.0,0.0,0.0,14.1841,14.4131,14.4837,0.0,0.0,0.0,0.0,14.2186,13.8346,0.0,0.0,0.0,0.0,0.0,0.0,0.0,0.0,0.0,0.0,0.0,0.0,0.0,0.0,0.0,0.0,0.0,0.0,0.0,0.0,0.0,0.0,0.0,0.0,0.0,0.0,0.0,0.0,0.0,0.0,0.0,0.0,0.0,0.0,0.0,0.0,0.0,0.0,0.0,0.0,0.0,0.0,0.0,0.0,0.0,0.0,0.0,0.0,0.0,0.0,0.0,0.0,0.0,0.0,0.0,0.0,17.244,18.4057,19.4004,20.2281,20.5698,20.6685,20.5014,20.0155,19.165,0.0,0.0,0.0,0.0,0.0,0.0,0.0,0.0,0.0,0.0,0.0,0.0,0.0,0.0,0.0,0.0,0.0,0.0,0.0,0.0,0.0,0.0,0.0,0.0,0.0,0.0,0.0,0.0,0.0,0.0,0.0,0.0,0.0,0.0,0.0,0.0,0.0,0.0,0.0,0.0,13.3702,13.6872,13.6918,0.0,0.0,0.0,0.0,0.0,0.0,13.1634,12.8416,0.0,0.0,0.0,0.0,0.0,0.0,0.0,0.0,0.0,0.0,0.0,0.0,0.0,0.0,0.0,0.0,0.0,0.0,0.0,0.0,0.0,0.0,0.0,0.0,0.0,0.0,0.0,0.0,0.0,0.0,0.0,0.0,0.0,0.0,0.0,0.0,0.0,0.0,0.0,0.0,0.0,0.0,0.0,0.0,0.0,0.0,0.0,0.0,0.0,0.0,0.0,0.0,0.0,0.0,0.0,16.9099,18.1855,19.2486,20.1066,20.4483,20.5546,20.4179,19.9016,18.9828,17.6085,0.0,0.0,0.0,0.0,0.0,0.0,0.0,0.0,0.0,0.0,0.0,0.0,0.0,0.0,0.0,0.0,0.0,0.0,0.0,0.0,0.0,0.0,0.0,0.0,0.0,0.0,0.0,0.0,0.0,0.0,0.0,0.0,0.0,0.0,0.0,0.0,0.0,0.0,0.0,12.7845,13.0936,0.0,0.0,0.0,0.0,0.0,0.0,0.0,0.0,12.3084,0.0,0.0,0.0,0.0,0.0,0.0,0.0,0.0,0.0,0.0,0.0,0.0,0.0,0.0,0.0,0.0,0.0,0.0,0.0,0.0,0.0,0.0,0.0,0.0,0.0,0.0,0.0,0.0,0.0,0.0,0.0,0.0,0.0,0.0,0.0,0.0,0.0,0.0,0.0,0.0,0.0,0.0,0.0,0.0,0.0,0.0,0.0,0.0,0.0,0.0,0.0,0.0,0.0,0.0,0.0,0.0,17.6161,18.6259,19.5751,19.9395,20.1066,20.0686,19.4536,18.4133,16.9554,0.0,0.0,0.0,0.0,0.0,0.0,0.0,0.0,0.0,0.0,0.0,0.0,0.0,0.0,0.0,0.0,0.0,0.0,0.0,0.0,0.0,0.0,0.0,0.0,0.0,0.0,0.0,0.0,0.0,0.0,0.0,0.0,0.0,0.0,0.0,0.0,0.0,0.0,11.2699,11.968,0.0,0.0,0.0,0.0,0.0,0.0,0.0,0.0,12.0392,0.0,0.0,0.0,0.0,0.0,0.0,0.0,0.0,0.0,0.0,0.0,0.0,0.0,0.0,0.0,0.0,0.0,0.0,0.0,0.0,0.0,0.0,0.0,0.0,0.0,0.0,0.0,0.0,0.0,0.0,0.0,0.0,0.0,0.0,0.0,0.0,0.0,0.0,0.0,0.0,0.0,0.0,0.0,0.0,0.0,0.0,0.0,0.0,0.0,0.0,0.0,0.0,0.0,0.0,0.0,0.0,0.0,0.0,18.3526,19.3321,19.7801,19.9547,19.8332,18.8689,17.6692,0.0,0.0,0.0,0.0,0.0,0.0,0.0,0.0,0.0,0.0,0.0,0.0,0.0,0.0,0.0,0.0,0.0,0.0,0.0,0.0,0.0,0.0,0.0,0.0,0.0,0.0,0.0,0.0,0.0,0.0,0.0,0.0,0.0,0.0,0.0,0.0,0.0,0.0,0.0,0.0,0.0,0.0,0.0,0.0,0.0,0.0,0.0,0.0,0.0,0.0,0.0,0.0,0.0,0.0,0.0,0.0,0.0,0.0,0.0,0.0,0.0,0.0,0.0,0.0,0.0,0.0,0.0,0.0,0.0,0.0,0.0,0.0,0.0,0.0,0.0,0.0,0.0,0.0,0.0,0.0,0.0,0.0,0.0,0.0,0.0,0.0,0.0,0.0,0.0,0.0,0.0,0.0,0.0,0.0,0.0,0.0,0.0,0.0,0.0,0.0,0.0,0.0,0.0,0.0,0.0,0.0,0.0,0.0,18.0185,19.0056,19.5295,19.7118,19.5371,18.2387,16.9251,0.0,0.0,0.0,0.0,0.0,0.0,0.0,0.0,0.0,0.0,0.0,0.0,0.0,0.0,0.0,0.0,0.0,0.0,0.0,0.0,0.0,0.0,0.0,0.0,0.0,0.0,0.0,0.0,0.0,0.0,0.0,0.0,0.0,0.0,0.0,0.0,0.0,0.0,0.0,0.0,0.0,0.0,0.0,0.0,0.0,0.0,0.0,0.0,11.2347,0.0,0.0,0.0,0.0,0.0,0.0,0.0,0.0,0.0,0.0,0.0,0.0,0.0,0.0,0.0,0.0,0.0,0.0,0.0,0.0,0.0,0.0,0.0,0.0,0.0,0.0,0.0,0.0,0.0,0.0,0.0,0.0,0.0,0.0,0.0,0.0,0.0,0.0,0.0,0.0,0.0,0.0,0.0,0.0,0.0,0.0,0.0,0.0,0.0,0.0,0.0,0.0,0.0,0.0,0.0,0.0,0.0,0.0,0.0,17.3503,18.3374,18.8385,19.0208,18.8309,17.5629,16.3024,0.0,0.0,0.0,0.0,0.0,0.0,0.0,0.0,0.0,0.0,0.0,0.0,0.0,0.0,0.0,0.0,0.0,0.0,0.0,0.0,0.0,0.0,0.0,0.0,0.0,0.0,0.0,0.0,0.0,0.0,0.0,0.0,0.0,0.0,0.0,0.0,0.0,0.0,0.0,0.0,0.0,0.0,0.0,0.0,0.0,0.0,0.0,0.0,0.0,0.0,0.0,0.0,0.0,0.0,0.0,0.0,0.0,0.0,0.0,0.0,0.0,0.0,0.0,0.0,0.0,0.0,0.0,0.0,0.0,0.0,0.0,0.0,0.0,0.0,0.0,0.0,0.0,0.0,0.0,0.0,0.0,0.0,0.0,0.0,0.0,0.0,0.0,0.0,0.0,0.0,0.0,0.0,0.0,0.0,0.0,0.0,0.0,0.0,0.0,0.0,0.0,0.0,0.0,0.0,0.0,0.0,0.0,0.0,16.7561,17.652,18.2537,18.2083,17.4718,16.6214,15.5735,0.0,0.0,0.0,0.0,0.0,0.0,0.0,0.0,0.0,0.0,0.0,0.0,0.0,0.0,0.0,0.0,0.0,0.0,0.0,0.0,0.0,0.0,0.0,0.0,0.0,0.0,0.0,0.0,0.0,0.0,0.0,0.0,0.0,0.0,0.0,0.0,0.0,0.0,0.0,0.0,0.0,0.0,0.0,0.0,0.0,0.0,0.0,0.0,0.0,0.0,0.0,0.0,0.0,0.0,0.0,0.0,0.0,0.0,0.0,0.0,0.0,0.0,0.0,0.0,0.0,0.0,0.0,0.0,0.0,0.0,0.0,0.0,0.0,0.0,0.0,0.0,0.0,0.0,0.0,0.0,0.0,0.0,0.0,0.0,0.0,0.0,0.0,0.0,0.0,0.0,0.0,0.0,0.0,0.0,0.0,0.0,0.0,0.0,0.0,0.0,0.0,0.0,0.0,0.0,0.0,0.0,0.0,0.0,0.0,16.9486,17.3344,17.0769,16.1426,15.619,14.7838,0.0,0.0,0.0,0.0,0.0,0.0,0.0,0.0,0.0,0.0,0.0,0.0,0.0,0.0,0.0,0.0,0.0,0.0,0.0,0.0,0.0,0.0,0.0,0.0,0.0,0.0,0.0,0.0,0.0,0.0,0.0,0.0,0.0,0.0,0.0,0.0,0.0,0.0,0.0,0.0,0.0,0.0,0.0,0.0,0.0,0.0,0.0,0.0,0.0,0.0,0.0,0.0,0.0,0.0,0.0,0.0,0.0,0.0,0.0,0.0,0.0,0.0,0.0,0.0,0.0,0.0,0.0,0.0,0.0,0.0,0.0,0.0,0.0,0.0,0.0,0.0,0.0,0.0,0.0,0.0,0.0,0.0,0.0,0.0,0.0,0.0,0.0,0.0,0.0,0.0,0.0,0.0,0.0,0.0,0.0,0.0,0.0,0.0,0.0,0.0,0.0,0.0,0.0,0.0,0.0,0.0,0.0,0.0,0.0,16.2872,15.8763,15.4666,15.0815,14.5931,13.9258,0.0,0.0,0.0,0.0,0.0,0.0,0.0,0.0,0.0,0.0,0.0,0.0,0.0,0.0,0.0,0.0,0.0,0.0,0.0,0.0,0.0,0.0,0.0,0.0,0.0,0.0,0.0,0.0,0.0,0.0,0.0,0.0,0.0,0.0,0.0,0.0,0.0,0.0,0.0,0.0,0.0,0.0,0.0,0.0,0.0,0.0,0.0,0.0,0.0,0.0,0.0,0.0,0.0,0.0,0.0,0.0,0.0,0.0,0.0,0.0,0.0,0.0,0.0,0.0,0.0,0.0,0.0,0.0,0.0,0.0,0.0,0.0,0.0,0.0,0.0,0.0,0.0,0.0,0.0,0.0,0.0,0.0,0.0,0.0,0.0,0.0,0.0,0.0,0.0,0.0,0.0,0.0,0.0,0.0,0.0,0.0,0.0,0.0,0.0,0.0,0.0,0.0,0.0,0.0,0.0,0.0,0.0,0.0,0.0,14.6674,14.6953,14.5518,14.2143,13.8231,13.1709,12.2448,0.0,0.0,0.0,0.0,0.0,0.0,0.0,0.0,0.0,0.0,0.0,0.0,0.0,0.0,0.0,0.0,0.0,0.0,0.0,0.0,0.0,0.0,0.0,0.0,0.0,0.0,0.0,0.0,0.0,0.0,0.0,0.0,0.0,0.0,0.0,0.0,0.0,0.0,0.0,0.0,0.0,0.0,0.0,0.0,0.0,0.0,0.0,0.0,0.0,0.0,0.0,0.0,0.0,0.0,0.0,0.0,0.0,0.0,0.0,0.0,0.0,0.0,0.0,0.0,0.0,0.0,0.0,0.0,0.0,0.0,0.0,0.0,0.0,0.0,0.0,0.0,0.0,0.0,0.0,0.0,0.0,0.0,0.0,0.0,0.0,0.0,0.0,0.0,0.0,0.0,0.0,0.0,0.0,0.0,0.0,0.0,0.0,0.0,0.0,0.0,0.0,0.0,0.0,0.0,0.0,0.0,0.0,0.0,13.3499,13.681,13.72,13.4306,13.0522,12.4451,0.0,0.0,0.0,0.0,0.0,0.0,0.0,0.0,0.0,0.0,0.0,0.0,0.0,0.0,0.0,0.0,0.0,0.0,0.0,0.0,0.0,0.0,0.0,0.0,0.0,0.0,0.0,0.0,0.0,0.0,0.0,0.0,0.0,0.0,0.0,0.0,0.0,0.0,0.0,0.0,0.0,0.0,0.0,0.0,0.0,0.0,0.0,0.0,0.0,0.0,0.0,0.0,0.0,0.0,0.0,0.0,0.0,0.0,0.0,0.0,0.0,0.0,0.0,0.0,0.0,0.0,0.0,0.0,0.0,0.0,0.0,0.0,0.0,0.0,0.0,0.0,0.0,0.0,0.0,0.0,0.0,0.0,0.0,0.0,0.0,0.0,0.0,0.0,0.0,0.0,0.0,0.0,0.0,0.0,0.0,0.0,0.0,0.0,0.0,0.0,0.0,0.0,0.0,0.0,0.0,0.0,0.0,0.0,11.6774,12.4598,12.8214,12.92,12.7328,12.2599,11.7537,0.0,0.0,0.0,0.0,0.0,0.0,0.0,0.0,0.0,0.0,0.0,0.0,0.0,0.0,0.0,0.0,0.0,0.0,0.0,0.0,0.0,0.0,0.0,0.0,0.0,0.0,0.0,0.0,0.0,0.0,0.0,0.0,0.0,0.0,0.0,0.0,0.0,0.0,0.0,0.0,0.0,0.0,0.0,0.0,0.0,0.0,0.0,0.0,0.0,0.0,0.0,0.0,0.0,0.0,0.0,0.0,0.0,0.0,0.0,0.0,0.0,0.0,0.0,0.0,0.0,0.0,0.0,0.0,0.0,0.0,0.0,0.0,0.0,0.0,0.0,0.0,0.0,0.0,0.0,0.0,0.0,0.0,0.0,0.0,0.0,0.0,0.0,0.0,0.0,0.0,0.0,0.0,0.0,0.0,0.0,0.0,0.0,0.0,0.0,0.0,0.0,0.0,0.0,0.0,0.0,0.0,0.0,0.0,0.0,11.6185,0.0,12.2763,12.2065,11.729,11.2259,0.0,0.0,0.0,0.0,0.0,0.0,0.0,0.0,0.0,0.0,0.0,0.0,0.0,0.0,0.0,0.0,0.0,0.0,0.0,0.0,0.0,0.0,0.0,0.0,0.0,0.0,0.0,0.0,0.0,0.0,0.0,0.0,0.0,0.0,0.0,0.0,0.0,0.0,0.0,0.0,0.0,0.0,0.0,0.0,0.0,0.0,0.0,0.0,0.0,0.0,0.0,0.0,0.0,0.0,0.0,0.0,0.0,0.0,0.0,0.0,0.0,0.0,0.0,0.0,0.0,0.0,0.0,0.0,0.0,0.0,0.0,0.0,0.0,0.0,0.0,0.0,0.0,0.0,0.0,0.0,0.0,0.0,0.0,0.0,0.0,0.0,0.0,0.0,0.0,0.0,0.0,0.0,0.0,0.0,0.0,0.0,0.0,0.0,0.0,0.0,0.0,0.0,0.0,0.0,0.0,0.0,0.0,0.0,0.0,11.0243,11.4132,11.6705,11.7653,11.2934,10.8284,0.0,0.0,0.0,0.0,0.0,0.0,0.0,0.0,0.0,0.0,0.0,0.0,0.0,0.0,0.0,0.0,0.0,0.0,0.0,0.0,0.0,0.0,0.0,0.0,0.0,0.0,0.0,0.0,0.0,0.0,0.0,0.0,0.0,0.0,0.0,0.0,0.0,0.0,0.0,0.0,0.0,0.0,0.0,0.0,0.0,0.0,0.0,0.0,0.0,0.0,0.0,0.0,0.0,0.0,0.0,0.0,0.0,0.0,0.0,0.0,0.0,0.0,0.0,0.0,0.0,0.0,0.0,0.0,0.0,0.0,0.0,0.0,0.0,0.0,0.0,0.0,0.0,0.0,0.0,0.0,0.0,0.0,0.0,0.0,0.0,0.0,0.0,0.0,0.0,0.0,0.0,0.0,0.0,0.0,0.0,0.0,0.0,0.0,0.0,0.0,0.0,0.0,0.0,0.0,0.0,0.0,0.0,0.0,0.0,10.6591,10.8531,11.0924,11.3777,10.9271,10.5193,0.0,0.0,0.0,0.0,0.0,0.0,0.0,0.0,0.0,0.0,0.0,0.0,0.0,0.0,0.0,0.0,0.0,0.0,0.0,0.0,0.0,0.0,0.0,0.0,0.0,0.0,0.0,0.0,0.0,0.0,0.0,0.0,0.0,0.0,0.0,0.0,0.0,0.0,0.0,0.0,0.0,0.0,0.0,0.0,0.0,0.0,0.0,0.0,0.0,0.0,0.0,0.0,0.0,0.0,0.0,0.0,0.0,0.0,0.0,0.0,0.0,0.0,0.0,0.0,0.0,0.0,0.0,0.0,0.0,0.0,0.0,0.0,0.0,0.0,0.0,0.0,0.0,0.0,0.0,0.0,0.0,0.0,0.0,0.0,0.0,0.0,0.0,0.0,0.0,0.0,0.0,0.0,0.0,0.0,0.0,0.0,0.0,0.0,0.0,0.0,0.0,0.0,0.0,0.0,0.0,0.0,0.0,0.0,0.0,0.0,10.44,10.6222,10.6978,10.4564,10.1571,9.8278,0.0,0.0,0.0,0.0,0.0,0.0,0.0,0.0,0.0,0.0,0.0,0.0,0.0,0.0,0.0,0.0,0.0,0.0,0.0,0.0,0.0,0.0,0.0,0.0,0.0,0.0,0.0,0.0,0.0,0.0,0.0,0.0,0.0,0.0,0.0,0.0,0.0,0.0,0.0,0.0,0.0,0.0,0.0,0.0,0.0,0.0,0.0,0.0,0.0,0.0,0.0,0.0,0.0,0.0,0.0,0.0,0.0,0.0,0.0,0.0,0.0,0.0,0.0,0.0,0.0,0.0,0.0,0.0,0.0,0.0,0.0,0.0,0.0,0.0,0.0,0.0,0.0,0.0,0.0,0.0,0.0,0.0,0.0,0.0,0.0,0.0,0.0,0.0,0.0,0.0,0.0,0.0,0.0,0.0,0.0,0.0,0.0,0.0,0.0,0.0,0.0,0.0,0.0,0.0,0.0,0.0,0.0,0.0,0.0,0.0,10.2625,10.332,10.2904,10.0839,0.0,0.0,0.0,0.0,0.0,0.0,0.0,0.0,0.0,0.0,0.0,0.0,0.0,0.0,0.0,0.0,0.0,0.0,0.0,0.0,0.0,0.0,0.0,0.0,0.0,0.0,0.0,0.0,0.0,0.0,0.0,0.0,0.0,0.0,0.0,0.0,0.0,0.0,0.0,0.0,0.0,0.0,0.0,0.0,0.0,0.0,0.0,0.0,0.0,0.0,0.0,0.0,0.0,0.0,0.0,0.0,0.0,0.0,0.0,0.0,0.0,0.0,0.0,0.0,0.0,0.0,0.0,0.0,0.0,0.0,0.0,0.0,0.0,0.0,0.0,0.0,0.0,0.0,0.0,0.0,0.0,0.0,0.0,0.0,0.0,0.0,0.0,0.0,0.0,0.0,0.0,0.0,0.0,0.0,0.0,0.0,0.0,0.0,0.0,0.0,0.0,0.0,0.0,0.0,0.0,0.0,0.0,0.0,0.0,0.0,0.0,9.9582,10.1128,10.2599,0.0,9.6501,0.0,0.0,0.0,0.0,0.0,0.0,0.0,0.0,0.0,0.0,0.0,0.0,0.0,0.0,0.0,0.0,0.0,0.0,0.0,0.0,0.0,0.0,0.0,0.0,0.0,0.0,0.0,0.0,0.0,0.0,0.0,0.0,0.0,0.0,0.0,0.0,0.0,0.0,0.0,0.0,0.0,0.0,0.0,0.0,0.0,0.0,0.0,0.0,0.0,0.0,0.0,0.0,0.0,0.0,0.0,0.0,0.0,0.0,0.0,0.0,0.0,0.0,0.0,0.0,0.0,0.0,0.0,0.0,0.0,0.0,0.0,0.0,0.0,0.0,0.0,0.0,0.0,0.0,0.0,0.0,0.0,0.0,0.0,0.0,0.0,0.0,0.0,0.0,0.0,0.0,0.0,0.0,0.0,0.0,0.0,0.0,0.0,0.0,0.0,0.0,0.0,0.0,0.0,0.0,0.0,0.0,0.0,0.0,0.0,0.0,0.0,0.0,9.7404,9.7043,9.4533,0.0,0.0,0.0,0.0,0.0,0.0,0.0,0.0,0.0,0.0,0.0,0.0,0.0,0.0,0.0,0.0,0.0,0.0,0.0,0.0,0.0,0.0,0.0,0.0,0.0,0.0,0.0,0.0,0.0,0.0,0.0,0.0,0.0,0.0,0.0,0.0,0.0,0.0,0.0,0.0,0.0,0.0,0.0,0.0,0.0,0.0,0.0,0.0,0.0,0.0,0.0,0.0,0.0,0.0,0.0,0.0,0.0,0.0,0.0,0.0,0.0,0.0,0.0,0.0,0.0,0.0,0.0,0.0,0.0,0.0,0.0,0.0,0.0,0.0,0.0,0.0,0.0,0.0,0.0,0.0,0.0,0.0,0.0,0.0,0.0,0.0,0.0,0.0,0.0,0.0,0.0,0.0,0.0,0.0,0.0,0.0,0.0,0.0,0.0,0.0,0.0,0.0,0.0,0.0,0.0,0.0,0.0,0.0,0.0,0.0,9.1945,9.196,9.3389,9.3752,9.2771,0.0,0.0,0.0,0.0,0.0,0.0,0.0,0.0,0.0,0.0,0.0,0.0,0.0,0.0,0.0,0.0,0.0,0.0,0.0,0.0,0.0,0.0,0.0,0.0,0.0,0.0,0.0,0.0,0.0,0.0,0.0,0.0,0.0,0.0,0.0,0.0,0.0,0.0,0.0,0.0,0.0,0.0,0.0,0.0,0.0,0.0,0.0,0.0,0.0,0.0,0.0,0.0,0.0,0.0,0.0,0.0,0.0,0.0,0.0,0.0,0.0,0.0,0.0,0.0,0.0,0.0,0.0,0.0,0.0,0.0,0.0,0.0,0.0,0.0,0.0,0.0,0.0,0.0,0.0,0.0,0.0,0.0,0.0,0.0,0.0,0.0,0.0,0.0,0.0,0.0,0.0,0.0,0.0,0.0,0.0,0.0,0.0,0.0,0.0,0.0,0.0,0.0,0.0,0.0,0.0,0.0,0.0,0.0,0.0,0.0,0.0,0.0,0.0,0.0,9.0425,0.0,0.0,0.0,0.0,0.0,0.0,0.0,0.0,0.0,0.0,0.0,0.0,0.0,0.0,0.0,0.0,0.0,0.0,0.0,0.0,0.0,0.0,0.0,0.0,0.0,0.0,0.0,0.0,0.0,0.0,0.0,0.0,0.0,0.0,0.0,0.0,0.0,0.0,0.0,0.0,0.0,0.0,0.0,0.0,0.0,0.0,0.0,0.0,0.0,0.0,0.0,0.0,0.0,0.0,0.0,0.0,0.0,0.0,0.0,0.0,0.0,0.0,0.0,0.0,0.0,0.0,0.0,0.0,0.0,0.0,0.0,0.0,0.0,0.0,0.0,0.0,0.0,0.0,0.0,0.0,0.0,0.0,0.0,0.0,0.0,0.0,0.0,0.0,0.0,0.0,0.0,0.0,0.0,0.0,0.0,0.0,0.0,0.0,0.0,0.0,0.0,0.0,0.0,0.0,0.0,0.0,0.0,0.0,0.0,0.0,0.0,0.0,0.0,0.0,0.0,0.0,0.0,0.0,0.0,0.0,0.0,0.0,0.0,0.0,0.0,0.0,0.0,0.0,0.0,0.0,0.0,0.0,0.0,0.0,0.0,0.0,0.0,0.0,0.0,0.0,0.0,0.0,0.0,0.0,0.0,0.0,0.0,0.0,0.0,0.0,0.0,0.0,0.0,0.0,0.0,0.0,0.0,0.0,0.0,0.0,0.0,0.0,0.0,0.0,0.0,0.0,0.0,0.0,0.0,0.0,0.0,0.0,0.0,0.0,0.0,0.0,0.0,0.0,0.0,0.0,0.0,0.0,0.0,0.0,0.0,0.0,0.0,0.0,0.0,0.0,0.0,0.0,0.0,0.0,0.0,0.0,0.0,0.0,0.0,0.0,0.0,0.0,0.0,0.0,0.0,0.0,0.0,0.0,0.0,0.0,0.0,0.0,0.0,0.0,0.0,0.0,0.0,0.0,0.0,0.0,0.0,0.0,0.0,0.0,0.0,0.0,0.0,0.0,0.0,0.0,0.0,0.0,0.0,0.0,0.0,0.0,0.0,0.0,0.0,0.0,0.0,0.0,0.0,0.0,0.0,0.0,0.0,0.0,0.0,0.0,0.0,0.0,0.0,0.0,0.0,0.0,0.0,0.0,0.0,0.0,0.0,0.0,0.0,0.0,0.0,0.0,0.0,0.0,0.0,0.0,0.0,0.0,0.0,0.0,0.0,0.0,0.0,0.0,0.0,0.0,0.0,0.0,0.0,0.0,0.0,0.0,0.0,0.0,0.0,0.0,0.0,0.0,0.0,0.0,0.0,0.0,0.0,0.0,0.0,0.0,0.0,0.0,0.0,0.0,0.0,0.0,0.0,0.0,0.0,0.0,0.0,0.0,0.0,0.0,0.0,0.0,0.0,0.0,0.0,0.0,0.0,0.0,0.0,0.0,0.0,0.0,0.0,0.0,0.0,0.0,0.0,0.0,0.0,0.0,0.0,0.0,0.0,0.0,0.0,0.0,0.0,0.0,0.0,0.0,0.0,0.0,0.0,0.0,0.0,0.0,0.0,0.0,0.0,0.0,0.0,0.0,0.0,0.0,0.0,0.0,0.0,0.0,0.0,0.0,0.0,0.0,0.0,0.0,0.0,0.0,0.0,0.0,0.0,0.0,0.0,0.0,0.0,0.0,0.0,0.0,0.0,0.0,0.0,0.0,0.0,0.0,0.0,0.0,0.0,0.0,0.0,0.0,0.0,0.0,0.0,0.0,0.0,0.0,0.0,0.0,0.0,0.0,0.0,0.0,0.0,0.0,0.0,0.0,0.0,0.0,0.0,0.0,0.0,0.0,0.0,0.0,0.0,0.0,0.0,0.0,0.0,0.0,0.0,0.0,0.0,0.0,0.0,0.0,0.0,0.0,0.0,0.0,0.0,0.0,0.0,0.0,0.0,0.0,0.0,0.0,0.0,0.0,0.0,0.0,0.0,0.0,0.0,0.0,0.0,0.0,0.0,0.0,0.0,0.0,0.0,0.0,0.0,0.0,0.0,0.0,0.0,0.0,0.0,0.0,0.0,0.0,0.0,0.0,0.0,0.0,0.0,0.0,0.0,0.0,0.0,0.0,0.0,0.0,0.0,0.0,0.0,0.0,0.0,0.0,0.0,0.0,0.0,0.0,0.0,0.0,0.0,0.0,0.0,0.0,0.0,0.0,0.0,0.0,0.0,0.0,0.0,0.0,0.0,0.0,0.0,0.0,0.0,0.0,0.0,0.0,0.0,0.0,0.0,0.0,0.0,0.0,0.0,0.0,0.0,0.0,0.0,0.0,0.0,0.0,0.0,0.0,0.0,0.0,0.0,0.0,0.0,0.0,0.0,0.0,0.0,0.0,0.0,0.0,0.0,0.0,0.0,0.0,0.0,0.0,0.0,0.0,0.0,0.0,0.0,0.0,0.0,0.0,0.0,0.0,0.0,0.0,0.0,0.0,0.0,0.0,0.0,0.0,0.0,0.0,0.0,0.0,0.0,0.0,0.0,0.0,0.0,0.0,0.0,0.0,0.0,0.0,0.0,0.0,0.0,0.0,0.0,0.0,0.0,0.0,0.0,0.0,0.0,0.0,0.0,0.0,0.0,0.0,0.0,0.0,0.0,0.0,0.0,0.0,0.0,0.0,0.0,0.0,0.0,0.0,0.0,0.0,0.0,0.0,0.0,0.0,0.0,0.0,0.0,0.0,0.0,0.0,0.0,0.0,0.0,0.0,0.0,0.0,0.0,0.0,0.0,0.0,0.0,0.0,0.0,0.0,0.0,0.0,0.0,0.0,0.0,0.0,0.0,0.0,0.0,0.0,0.0,0.0,0.0,0.0,0.0,0.0,0.0,0.0,0.0,0.0,0.0,0.0,0.0,0.0,0.0,0.0,0.0,0.0,0.0,0.0,0.0,0.0,0.0,0.0,0.0,0.0,0.0,0.0,0.0,0.0,0.0,0.0,0.0,0.0,0.0,0.0,0.0,0.0,0.0,0.0,0.0,0.0,0.0,0.0,0.0,0.0,0.0,0.0,0.0,0.0,0.0,0.0,0.0,0.0,0.0,0.0,0.0,0.0,0.0,0.0,0.0,0.0,0.0,0.0,0.0,0.0,0.0,0.0,0.0,0.0,0.0,0.0,0.0,0.0,0.0,0.0,0.0,0.0,0.0,0.0,0.0,0.0,0.0,0.0,0.0,0.0,0.0,0.0,0.0,0.0,0.0,0.0,0.0,0.0,0.0,0.0,0.0,0.0,0.0,0.0,0.0,0.0,0.0,0.0,0.0,0.0,0.0,0.0,0.0,0.0,0.0,0.0,0.0,0.0,0.0,0.0,0.0,0.0,0.0,0.0,0.0,0.0,0.0,0.0,0.0,0.0,0.0,0.0,0.0,0.0,0.0,0.0,0.0,0.0,0.0,0.0,0.0,0.0,0.0,0.0,0.0,0.0,0.0,0.0,0.0,0.0,0.0,0.0,0.0,0.0,0.0,0.0,0.0,0.0,0.0,0.0,0.0,0.0,0.0,0.0,0.0,0.0,0.0,0.0,0.0,0.0,0.0,0.0,0.0,0.0,0.0,0.0,0.0,0.0,0.0,0.0,0.0,0.0,0.0,0.0,0.0,0.0,0.0,0.0,0.0,0.0,0.0,0.0,0.0,0.0,0.0,0.0,0.0,0.0,0.0,0.0,0.0,0.0,0.0,0.0,0.0,0.0,0.0,0.0,0.0,0.0,0.0,0.0,0.0,0.0,0.0,0.0,0.0,0.0,0.0,0.0,0.0,0.0,0.0,0.0,0.0,0.0,0.0,0.0,0.0,0.0,0.0,0.0,0.0,0.0,0.0,0.0,0.0,0.0,0.0,0.0,0.0,0.0,0.0,0.0,0.0,0.0,0.0,0.0,0.0,0.0,0.0,0.0,0.0,0.0,0.0,0.0,0.0,0.0,0.0,0.0,0.0,0.0,0.0,0.0,0.0,0.0,0.0,0.0,0.0,0.0,0.0,0.0,0.0,0.0,0.0,0.0,0.0,0.0,0.0,0.0,0.0,0.0,0.0,0.0,0.0,0.0,0.0,0.0,0.0,0.0,0.0,0.0,0.0,0.0,0.0,0.0,0.0,0.0,0.0,0.0,0.0,0.0,0.0,0.0,0.0,0.0,0.0,0.0,0.0,0.0,0.0,0.0,0.0,0.0,0.0,0.0,0.0,0.0,0.0,0.0,0.0,0.0,0.0,0.0,0.0,0.0,0.0,0.0,0.0,0.0,0.0,0.0,0.0,0.0,0.0,0.0,0.0,0.0,0.0,0.0,0.0,0.0,0.0,0.0,0.0,0.0,0.0,0.0,0.0,0.0,0.0,0.0]}],[{"header":{"parameterUnit":"kt","parameterCategory":2,"dx":1,"dy":1,"la1":29.587661999999998,"la2":31.0,"lo1":-88.76705300000003,"lo2":-86.6583820000003,"nx":115,"ny":88,"refTime":"2022-10-17T18:00:00:Z","depth":0,"parameterNumber":2,"parameterNumberName":"V-component_of_WINDS"},"data":[3.8224,3.8224,3.8224,3.8224,3.8224,3.8224,3.8224,3.8224,3.8224,3.8224,3.8224,3.8224,3.8224,3.8224,3.8224,3.8224,3.8224,3.8264,3.5359,3.151,3.1068,2.8702,2.5748,2.2236,1.8326,1.4435,1.0622,0.8725,0.733,0.458,0.0,0.0,0.0,0.0,0.0,0.0,0.0,0.0,0.0,0.0,0.0,0.0,0.0,0.0,0.0,0.0,0.0,0.0,0.0,0.0,0.0,0.0,0.0,0.0,0.0,0.0,0.0,0.0,0.0,0.0,0.0,0.0,0.0,0.0,0.0,0.0,0.0,0.0,0.0,0.0,0.0,0.0,0.0,0.0,0.0,0.0,0.0,0.0,0.0,0.0,0.0,0.0,0.0,0.0,0.0,0.0,0.0,0.0,0.0,0.0,0.0,0.0,0.0,0.0,0.0,0.0,0.0,0.0,0.0,0.0,0.0,0.0,0.0,0.0,0.0,0.0,0.0,0.0,0.0,0.0,0.0,0.0,0.0,0.0,0.0,3.8224,3.8224,3.8224,3.8224,3.8224,3.8224,3.8224,3.8224,3.8224,3.8224,3.8224,3.8224,3.8224,3.8224,3.8224,3.8224,3.8237,3.8277,3.5371,3.2017,3.0614,2.7751,2.434,2.0916,1.7511,1.4099,1.0248,0.8788,0.6884,0.0,0.0,0.0,0.0,0.0,0.0,0.0,0.0,0.0,0.0,0.0,0.0,0.0,0.0,0.0,0.0,0.0,0.0,0.0,0.0,0.0,0.0,0.0,0.0,0.0,0.0,0.0,0.0,0.0,0.0,0.0,0.0,0.0,0.0,0.0,0.0,0.0,0.0,0.0,0.0,0.0,0.0,0.0,0.0,0.0,0.0,0.0,0.0,0.0,0.0,0.0,0.0,0.0,0.0,0.0,0.0,0.0,0.0,0.0,0.0,0.0,0.0,0.0,0.0,0.0,0.0,0.0,0.0,0.0,0.0,0.0,0.0,0.0,0.0,0.0,0.0,0.0,0.0,0.0,0.0,0.0,0.0,0.0,0.0,0.0,0.0,3.8224,3.8224,3.8224,3.8224,3.8224,3.8224,3.8224,3.8224,3.8224,3.8224,3.8224,3.8224,3.8224,3.8224,3.8224,3.8224,3.8251,3.8303,3.4909,3.2028,3.0139,2.7284,2.2954,1.9086,1.6172,1.4213,1.0809,0.7457,0.5078,0.0,0.0,0.0,0.0,0.0,0.0,0.0,0.0,0.0,0.0,0.0,0.0,0.0,0.0,0.0,0.0,0.0,0.0,0.0,0.0,0.0,0.0,0.0,0.0,0.0,0.0,0.0,0.0,0.0,0.0,0.0,0.0,0.0,0.0,0.0,0.0,0.0,0.0,0.0,0.0,0.0,0.0,0.0,0.0,0.0,0.0,0.0,0.0,0.0,0.0,0.0,0.0,0.0,0.0,0.0,0.0,0.0,0.0,0.0,0.0,0.0,0.0,0.0,0.0,0.0,0.0,0.0,0.0,0.0,0.0,0.0,0.0,0.0,0.0,0.0,0.0,0.0,0.0,0.0,0.0,0.0,0.0,0.0,0.0,0.0,0.0,3.8224,3.8224,3.8224,3.8224,3.8224,3.8224,3.8224,3.8224,3.8224,3.8224,3.8224,3.8224,3.8224,3.8224,3.8224,3.8237,3.7764,3.7317,3.4435,3.2039,3.0646,2.778,2.2008,1.7694,1.4799,1.2843,1.0896,0.8004,0.5133,0.0,0.0,0.0,0.0,0.0,0.0,0.0,0.0,0.0,0.0,0.0,0.0,0.0,0.0,0.0,0.0,0.0,0.0,0.0,0.0,0.0,0.0,0.0,0.0,0.0,0.0,0.0,0.0,0.0,0.0,0.0,0.0,0.0,0.0,0.0,0.0,0.0,0.0,0.0,0.0,0.0,0.0,0.0,0.0,0.0,0.0,0.0,0.0,0.0,0.0,0.0,0.0,0.0,0.0,0.0,0.0,0.0,0.0,0.0,0.0,0.0,0.0,0.0,0.0,0.0,0.0,0.0,0.0,0.0,0.0,0.0,0.0,0.0,0.0,0.0,0.0,0.0,0.0,0.0,0.0,0.0,0.0,0.0,0.0,0.0,0.0,3.8224,3.8224,3.8224,3.8224,3.8224,3.8224,3.8224,3.8224,3.8224,3.8224,3.8224,3.8224,3.8224,3.8224,3.8224,3.8224,3.7777,3.5857,3.2989,3.1079,3.017,2.6341,2.0584,1.6763,1.4357,1.1469,0.9526,0.7587,0.5659,0.0,0.0,0.0,0.0,0.0,0.0,0.0,0.0,0.0,0.0,0.0,0.0,0.0,0.0,0.0,0.0,0.0,0.0,0.0,0.0,0.0,0.0,0.0,0.0,0.0,0.0,0.0,0.0,0.0,0.0,0.0,0.0,0.0,0.0,0.0,0.0,0.0,0.0,0.0,0.0,0.0,0.0,0.0,0.0,0.0,0.0,0.0,0.0,0.0,0.0,0.0,0.0,0.0,0.0,0.0,0.0,0.0,0.0,0.0,0.0,0.0,0.0,0.0,0.0,0.0,0.0,0.0,0.0,0.0,0.0,0.0,0.0,0.0,0.0,0.0,0.0,0.0,0.0,0.0,0.0,0.0,0.0,0.0,0.0,0.0,0.0,3.8224,3.8224,3.8224,3.8224,3.8224,3.8224,3.8224,3.8224,3.8224,3.8224,3.8224,3.8224,3.8224,3.8224,3.7738,3.7291,3.779,3.4423,3.2039,2.9664,2.7284,2.3454,2.0114,1.6769,1.3903,1.1505,0.9084,0.6671,0.4734,0.0,0.0,0.0,0.0,0.0,0.0,0.0,0.0,0.0,0.0,0.0,0.0,0.0,0.0,0.0,0.0,0.0,0.0,0.0,0.0,0.0,0.0,0.0,0.0,0.0,0.0,0.0,0.0,0.0,0.0,0.0,0.0,0.0,0.0,0.0,0.0,0.0,0.0,0.0,0.0,0.0,0.0,0.0,0.0,0.0,0.0,0.0,0.0,0.0,0.0,0.0,0.0,0.0,0.0,0.0,0.0,0.0,0.0,0.0,0.0,0.0,0.0,0.0,0.0,0.0,0.0,0.0,0.0,0.0,0.0,0.0,0.0,0.0,0.0,0.0,0.0,0.0,0.0,0.0,0.0,0.0,0.0,0.0,0.0,0.0,0.0,3.8224,3.8224,3.8224,3.8224,3.8224,3.8224,3.8224,3.8224,3.8224,3.8224,3.8224,3.8224,3.8224,3.8224,3.6792,3.6817,3.5383,3.3475,3.11,2.8712,2.5855,2.1539,1.8197,1.5812,1.3424,1.1029,0.863,0.6219,0.3806,0.0,0.0,0.0,0.0,0.0,0.0,0.0,0.0,0.0,0.0,0.0,0.0,0.0,0.0,0.0,0.0,0.0,0.0,0.0,0.0,0.0,0.0,0.0,0.0,0.0,0.0,0.0,0.0,0.0,0.0,0.0,0.0,0.0,0.0,0.0,0.0,0.0,0.0,0.0,0.0,0.0,0.0,0.0,0.0,0.0,0.0,0.0,0.0,0.0,0.0,0.0,0.0,0.0,0.0,0.0,0.0,0.0,0.0,0.0,0.0,0.0,0.0,0.0,0.0,0.0,0.0,0.0,0.0,0.0,0.0,0.0,0.0,0.0,0.0,0.0,0.0,0.0,0.0,0.0,0.0,0.0,0.0,0.0,0.0,0.0,0.0,3.8224,3.8224,3.8224,3.8224,3.8224,3.8224,3.8224,3.8224,3.8224,3.8224,3.8224,3.8224,3.8224,3.7738,3.6779,3.5833,3.3937,3.2028,3.0625,2.8732,2.4902,2.0584,1.6763,1.3898,1.2467,1.1033,0.8633,0.6231,0.3832,0.1428,0.0,0.0,0.0,0.0,0.0,0.0,0.0,0.0,0.0,0.0,0.0,0.0,0.0,0.0,0.0,0.0,0.0,0.0,0.0,0.0,0.0,0.0,0.0,0.0,0.0,0.0,0.0,0.0,0.0,0.0,0.0,0.0,0.0,0.0,0.0,0.0,0.0,0.0,0.0,0.0,0.0,0.0,0.0,0.0,0.0,0.0,0.0,0.0,0.0,0.0,0.0,0.0,0.0,0.0,0.0,0.0,0.0,0.0,0.0,0.0,0.0,0.0,0.0,0.0,0.0,0.0,0.0,0.0,0.0,0.0,0.0,0.0,0.0,0.0,0.0,0.0,0.0,0.0,0.0,0.0,0.0,0.0,0.0,0.0,0.0,3.8224,3.8224,3.8224,3.8224,3.8224,3.8224,3.8224,3.8224,3.8224,3.8224,3.8224,3.8224,3.7738,3.6792,3.5359,3.3937,3.2017,3.1089,3.017,2.5361,2.3463,1.9636,1.6291,1.3903,1.1992,1.0075,0.8157,0.6238,0.3357,0.0957,0.0,0.0,0.0,0.0,0.0,0.0,0.0,0.0,0.0,0.0,0.0,0.0,0.0,0.0,0.0,0.0,0.0,0.0,0.0,0.0,0.0,0.0,0.0,0.0,0.0,0.0,0.0,0.0,0.0,0.0,0.0,0.0,0.0,0.0,0.0,0.0,0.0,0.0,0.0,0.0,0.0,0.0,0.0,0.0,0.0,0.0,0.0,0.0,0.0,0.0,0.0,0.0,0.0,0.0,0.0,0.0,0.0,0.0,0.0,0.0,0.0,0.0,0.0,0.0,0.0,0.0,0.0,0.0,0.0,0.0,0.0,0.0,0.0,0.0,0.0,0.0,0.0,0.0,0.0,0.0,0.0,0.0,0.0,0.0,0.0,3.8224,3.8224,3.8224,3.8224,3.8224,3.8224,3.8224,3.8224,3.8224,3.8211,3.7738,3.7738,3.6792,3.5833,3.4411,3.2503,3.1068,3.0635,2.777,2.3446,2.2023,1.8687,1.5818,1.3429,1.1033,0.9119,0.7677,0.6236,0.2878,0.0959,0.0,0.0,0.0,0.0,0.0,0.0,0.0,0.0,0.0,0.0,0.0,0.0,0.0,0.0,0.0,0.0,0.0,0.0,0.0,0.0,0.0,0.0,0.0,0.0,0.0,0.0,0.0,0.0,0.0,0.0,0.0,0.0,0.0,0.0,0.0,0.0,0.0,0.0,0.0,0.0,0.0,0.0,0.0,0.0,0.0,0.0,0.0,0.0,0.0,0.0,0.0,0.0,0.0,0.0,0.0,0.0,0.0,0.0,0.0,0.0,0.0,0.0,0.0,0.0,0.0,0.0,0.0,0.0,0.0,0.0,0.0,0.0,0.0,0.0,0.0,0.0,0.0,0.0,0.0,0.0,0.0,0.0,0.0,0.0,0.0,3.8224,3.8224,3.8224,3.8224,3.8224,3.8224,3.8224,3.8224,3.8224,3.7738,3.6779,3.6306,3.5359,3.4411,3.2977,3.2028,3.0614,3.017,2.7303,2.2985,2.0599,1.7737,1.4866,1.2471,1.0075,0.8157,0.6718,0.4319,0.048,0.0,0.0,0.0,0.0,0.0,0.0,0.0,0.0,0.0,0.0,0.0,0.0,0.0,0.0,0.0,0.0,0.0,0.0,0.0,0.0,0.0,0.0,0.0,0.0,0.0,0.0,0.0,0.0,0.0,0.0,0.0,0.0,0.0,0.0,0.0,0.0,0.0,0.0,0.0,0.0,0.0,0.0,0.0,0.0,0.0,0.0,0.0,0.0,0.0,0.0,0.0,0.0,0.0,0.0,0.0,0.0,0.0,0.0,0.0,0.0,0.0,0.0,0.0,0.0,0.0,0.0,0.0,0.0,0.0,0.0,0.0,0.0,0.0,0.0,0.0,0.0,0.0,0.0,0.0,0.0,0.0,0.0,0.0,0.0,0.0,0.0,3.8224,3.8224,3.8224,3.8224,3.8224,3.8224,3.8224,3.8224,3.8224,3.7738,3.6306,3.5359,3.4411,3.2989,3.1554,3.0604,2.9674,2.7294,2.4902,2.2031,1.8681,1.5339,1.2946,1.1033,0.9116,0.7677,0.5756,0.3839,0.0,0.0,0.0,0.0,0.0,0.0,0.0,0.0,0.0,0.0,0.0,0.0,0.0,0.0,0.0,0.0,0.0,0.0,0.0,0.0,0.0,0.0,0.0,0.0,0.0,0.0,0.0,0.0,0.0,0.0,0.0,0.0,0.0,0.0,0.0,0.0,0.0,0.0,0.0,0.0,0.0,0.0,0.0,0.0,0.0,0.0,0.0,0.0,0.0,0.0,0.0,0.0,0.0,0.0,0.0,0.0,0.0,0.0,0.0,0.0,0.0,0.0,0.0,0.0,0.0,0.0,0.0,0.0,0.0,0.0,0.0,0.0,0.0,0.0,0.0,0.0,0.0,0.0,0.0,0.0,0.0,0.0,0.0,0.0,0.0,0.0,0.0,3.8224,3.8224,3.8224,3.8224,3.8224,3.8224,3.8224,3.8224,3.8224,3.7738,3.6792,3.4885,3.2514,3.1079,3.0129,2.9188,2.7294,2.3948,2.2031,1.9636,1.6775,1.3424,1.0547,0.9112,0.8157,0.7197,0.3839,0.144,0.0,0.0,0.0,0.0,0.0,0.0,0.0,0.0,0.0,0.0,0.0,0.0,0.0,0.0,0.0,0.0,0.0,0.0,0.0,0.0,0.0,0.0,0.0,0.0,0.0,0.0,0.0,0.0,0.0,0.0,0.0,0.0,0.0,0.0,0.0,0.0,0.0,0.0,0.0,0.0,0.0,0.0,0.0,0.0,0.0,0.0,0.0,0.0,0.0,0.0,0.0,0.0,0.0,0.0,0.0,0.0,0.0,0.0,0.0,0.0,0.0,0.0,0.0,0.0,0.0,0.0,0.0,0.0,0.0,0.0,0.0,0.0,0.0,0.0,0.0,0.0,0.0,0.0,0.0,0.0,0.0,0.0,0.0,0.0,0.0,0.0,0.0,3.8224,3.8224,3.8224,3.8224,3.8224,3.8224,3.8224,3.8224,3.8224,3.8237,3.7291,3.4411,3.1089,2.9188,2.8236,2.6322,2.2985,2.2508,1.9636,1.6769,1.4861,1.1988,0.9592,0.8154,0.7677,0.6238,0.2879,0.0,0.0,0.0,0.0,0.0,0.0,0.0,0.0,0.0,0.0,0.0,0.0,0.0,0.0,0.0,0.0,0.0,0.0,0.0,0.0,0.0,0.0,0.0,0.0,0.0,0.0,0.0,0.0,0.0,0.0,0.0,0.0,0.0,0.0,0.0,0.0,0.0,0.0,0.0,0.0,0.0,0.0,0.0,0.0,0.0,0.0,0.0,0.0,0.0,0.0,0.0,0.0,0.0,0.0,0.0,0.0,0.0,0.0,0.0,0.0,0.0,0.0,0.0,0.0,0.0,0.0,0.0,0.0,0.0,0.0,0.0,0.0,0.0,0.0,0.0,0.0,0.0,0.0,0.0,0.0,0.0,0.0,0.0,0.0,0.0,0.0,0.0,0.0,3.8224,3.8224,3.8224,3.8224,3.8224,3.8224,3.8224,3.8224,3.8237,3.7777,3.587,3.3475,3.1089,2.8712,2.5846,2.3939,2.2508,1.9165,1.6775,1.4866,1.3434,1.0554,0.8636,0.7195,0.6718,0.4797,0.144,0.0,0.0,0.0,0.0,0.0,0.0,0.0,0.0,0.0,0.0,0.0,0.0,0.0,0.0,0.0,0.0,0.0,0.0,0.0,0.0,0.0,0.0,0.0,0.0,0.0,0.0,0.0,0.0,0.0,0.0,0.0,0.0,0.0,0.0,0.0,0.0,0.0,0.0,0.0,0.0,0.0,0.0,0.0,0.0,0.0,0.0,0.0,0.0,0.0,0.0,0.0,0.0,0.0,0.0,0.0,0.0,0.0,0.0,0.0,0.0,0.0,0.0,0.0,0.0,0.0,0.0,0.0,0.0,0.0,0.0,0.0,0.0,0.0,0.0,0.0,0.0,0.0,0.0,0.0,0.0,0.0,0.0,0.0,0.0,0.0,0.0,0.0,0.0,3.8224,3.8224,3.8224,3.8224,3.8224,3.8224,3.8224,3.8224,3.8237,3.7291,3.4909,3.2514,3.0604,2.8236,2.4893,2.2031,1.9165,1.678,1.4382,1.1988,1.0554,0.9119,0.7677,0.7197,0.5278,0.2879,0.0,0.0,0.0,0.0,0.0,0.0,0.0,0.0,0.0,0.0,0.0,0.0,0.0,0.0,0.0,0.0,0.0,0.0,0.0,0.0,0.0,0.0,0.0,0.0,0.0,0.0,0.0,0.0,0.0,0.0,0.0,0.0,0.0,0.0,0.0,0.0,0.0,0.0,0.0,0.0,0.0,0.0,0.0,0.0,0.0,0.0,0.0,0.0,0.0,0.0,0.0,0.0,0.0,0.0,0.0,0.0,0.0,0.0,0.0,0.0,0.0,0.0,0.0,0.0,0.0,0.0,0.0,0.0,0.0,0.0,0.0,0.0,0.0,0.0,0.0,0.0,0.0,0.0,0.0,0.0,0.0,0.0,0.0,0.0,0.0,0.0,0.0,0.0,0.0,3.8224,3.8224,3.8224,3.8224,3.8224,3.8224,3.8224,3.8224,3.7764,3.6331,3.4423,3.1554,2.9653,2.776,2.4416,2.0121,1.6775,1.4387,1.1509,0.9109,0.8154,0.7677,0.7677,0.7197,0.3359,0.0,0.0,0.0,0.0,0.0,0.0,0.0,0.0,0.0,0.0,0.0,0.0,0.0,0.0,0.0,0.0,0.0,0.336,0.48,0.0,0.0,0.0,0.0,0.0,0.0,0.0,0.0,0.0,0.0,0.0,0.0,0.0,0.0,0.0,0.0,0.0,0.0,0.0,0.0,0.0,0.0,0.0,0.0,0.0,0.0,0.0,0.0,0.0,0.0,0.0,0.0,0.0,0.0,0.0,0.0,0.0,0.0,0.0,0.0,0.0,0.0,0.0,0.0,0.0,0.0,0.0,0.0,0.0,0.0,0.0,0.0,0.0,0.0,0.0,0.0,0.0,0.0,0.0,0.0,0.0,0.0,0.0,0.0,0.0,0.0,0.0,0.0,0.0,0.0,0.0,3.8224,3.8224,3.8224,3.8224,3.8224,3.8224,3.8224,3.7751,3.6319,3.4897,3.3937,3.0614,2.8236,2.6808,2.3939,2.0121,1.5345,1.0554,0.9116,0.7674,0.7677,0.7677,0.6238,0.3839,0.0,0.0,0.0,0.0,0.0,0.0,0.0,0.0,0.0,0.0,0.0,0.0,0.0,0.0,0.0,0.0,0.0,0.3839,0.672,0.7202,0.0,0.0,0.0,0.0,0.0,0.0,0.0,0.0,0.0,0.0,0.0,0.0,0.0,0.0,0.0,0.0,0.0,0.0,0.0,0.0,0.0,0.0,0.0,0.0,0.0,0.0,0.0,0.0,0.0,0.0,0.0,0.0,0.0,0.0,0.0,0.0,0.0,0.0,0.0,0.0,0.0,0.0,0.0,0.0,0.0,0.0,0.0,0.0,0.0,0.0,0.0,0.0,0.0,0.0,0.0,0.0,0.0,0.0,0.0,0.0,0.0,0.0,0.0,0.0,0.0,0.0,0.0,0.0,0.0,0.0,0.0,3.8224,3.8224,3.8224,3.8224,3.8224,3.8224,3.8224,3.7751,3.5371,3.3937,3.2514,2.9653,2.7275,2.537,2.2508,1.8209,1.3424,0.9116,0.7677,0.7677,0.7197,0.6718,0.3359,0.144,0.0,0.0,0.0,0.0,0.0,0.0,0.0,0.0,0.0,0.0,0.0,0.0,0.0,0.0,0.0,0.0,0.0,0.5758,0.72,0.624,0.0,0.0,0.0,0.0,0.0,0.0,0.0,0.0,0.0,0.0,0.0,0.0,0.0,0.0,0.0,0.0,0.0,0.0,0.0,0.0,0.0,0.0,0.0,0.0,0.0,0.0,0.0,0.0,0.0,0.0,0.0,0.0,0.0,0.0,0.0,0.0,0.0,0.0,0.0,0.0,0.0,0.0,0.0,0.0,0.0,0.0,0.0,0.0,0.0,0.0,0.0,0.0,0.0,0.0,0.0,0.0,0.0,0.0,0.0,0.0,0.0,0.0,0.0,0.0,0.0,0.0,0.0,0.0,0.0,0.0,0.0,3.8224,3.8224,3.8224,3.8224,3.8224,3.8224,3.8237,3.7777,3.4885,3.2977,3.1554,2.8227,2.6322,2.3939,2.0599,1.6775,1.295,0.9116,0.7197,0.5756,0.5758,0.4319,0.0,0.0,0.0,0.0,0.0,0.0,0.0,0.0,0.0,0.0,0.0,0.0,0.0,0.0,0.0,0.0,0.0,0.0,0.576,0.72,0.7677,0.7197,0.4319,0.0,0.0,0.0,0.0,0.0,0.0,0.0,0.0,0.0,0.0,0.0,0.0,0.0,0.0,0.0,0.0,0.0,0.0,0.0,0.0,0.0,0.0,0.0,0.0,0.0,0.0,0.0,0.0,0.0,0.0,0.0,0.0,0.0,0.0,0.0,0.0,0.0,0.0,0.0,0.0,0.0,0.0,0.0,0.0,0.0,0.0,0.0,0.0,0.0,0.0,0.0,0.0,0.0,0.0,0.0,0.0,0.0,0.0,0.0,0.0,0.0,0.0,0.0,0.0,0.0,0.0,0.0,0.0,0.0,0.0,3.8224,3.8224,3.8224,3.8224,3.8224,3.8224,3.8237,3.7291,3.3428,3.1521,3.0118,2.8227,2.537,2.2985,1.9165,1.678,1.3908,1.0075,0.5277,0.0,0.0,0.0,0.0,0.0,0.0,0.0,0.0,0.0,0.0,0.0,0.0,0.0,0.0,0.0,0.0,0.0,0.0,0.0,0.0,0.288,0.6718,0.7677,0.7677,0.7677,0.5758,0.4319,0.0,0.0,0.0,0.0,0.0,0.0,0.0,0.0,0.0,0.0,0.0,0.0,0.0,0.0,0.0,0.0,0.0,0.0,0.0,0.0,0.0,0.0,0.0,0.0,0.0,0.0,0.0,0.0,0.0,0.0,0.0,0.0,0.0,0.0,0.0,0.0,0.0,0.0,0.0,0.0,0.0,0.0,0.0,0.0,0.0,0.0,0.0,0.0,0.0,0.0,0.0,0.0,0.0,0.0,0.0,0.0,0.0,0.0,0.0,0.0,0.0,0.0,0.0,0.0,0.0,0.0,0.0,0.0,0.0,3.8224,3.8224,3.8224,3.8224,3.8224,3.8224,3.7278,3.5845,3.1995,3.0097,2.9178,2.7751,2.4893,2.1554,1.8687,1.5823,1.2946,0.9116,0.4799,0.0,0.0,0.0,0.0,0.0,0.0,0.0,0.0,0.0,0.0,0.0,0.0,0.0,0.0,0.0,0.0,0.0,0.0,0.0,0.144,0.3839,0.6718,0.7677,0.7677,0.7677,0.7197,0.5277,0.0,0.0,0.0,0.0,0.0,0.0,0.0,0.0,0.0,0.0,0.0,0.0,0.0,0.0,0.0,0.0,0.0,0.0,0.0,0.0,0.0,0.0,0.0,0.0,0.0,0.0,0.0,0.0,0.0,0.0,0.0,0.0,0.0,0.0,0.0,0.0,0.0,0.0,0.0,0.0,0.0,0.0,0.0,0.0,0.0,0.0,0.0,0.0,0.0,0.0,0.0,0.0,0.0,0.0,0.0,0.0,0.0,0.0,0.0,0.0,0.0,0.0,0.0,0.0,0.0,0.0,0.0,0.0,0.0,3.8224,3.8224,3.8224,3.8224,3.8224,3.8224,3.6792,3.4411,3.1984,2.9623,2.8227,2.7275,2.4416,2.0599,1.7731,1.4861,1.1509,0.8636,0.4799,0.0,0.0,0.0,0.0,0.0,0.0,0.0,0.0,0.0,0.0,0.0,0.0,0.0,0.0,0.0,0.0,0.0,0.0,0.0,0.2399,0.4797,0.7197,0.7677,0.7677,0.7677,0.7677,0.4797,0.0,0.0,0.0,0.0,0.0,0.0,0.0,0.0,0.0,0.0,0.0,0.0,0.0,0.0,0.0,0.0,0.0,0.0,0.0,0.0,0.0,0.0,0.0,0.0,0.0,0.0,0.0,0.0,0.0,0.0,0.0,0.0,0.0,0.0,0.0,0.0,0.0,0.0,0.0,0.0,0.0,0.0,0.0,0.0,0.0,0.0,0.0,0.0,0.0,0.0,0.0,0.0,0.0,0.0,0.0,0.0,0.0,0.0,0.0,0.0,0.0,0.0,0.0,0.0,0.0,0.0,0.0,0.0,0.0,3.8224,3.8224,3.8224,3.8224,3.8224,3.8224,3.6792,3.4411,3.1984,2.9148,2.7275,2.6808,2.3939,1.9165,1.6775,1.3898,1.1512,0.8636,0.4797,0.0,0.0,0.0,0.0,0.0,0.0,0.0,0.0,0.0,0.0,0.0,0.0,0.0,0.0,0.0,0.0,0.0,0.0,0.0,0.2399,0.5277,0.7197,0.7677,0.7677,0.7677,0.7677,0.5277,0.0,0.0,0.0,0.0,0.0,0.0,0.0,0.0,0.0,0.0,0.0,0.0,0.0,0.0,0.0,0.0,0.0,0.0,0.0,0.0,0.0,0.0,0.0,0.0,0.0,0.0,0.0,0.0,0.0,0.0,0.0,0.0,0.0,0.0,0.0,0.0,0.0,0.0,0.0,0.0,0.0,0.0,0.0,0.0,0.0,0.0,0.0,0.0,0.0,0.0,0.0,0.0,0.0,0.0,0.0,0.0,0.0,0.0,0.0,0.0,0.0,0.0,0.0,0.0,0.0,0.0,0.0,0.0,0.0,3.8224,3.8224,3.8224,3.8224,3.8224,3.8224,3.6792,3.4411,3.1995,2.9148,2.7275,2.5846,2.3463,1.9165,1.5812,1.3424,1.1512,0.8636,0.4797,0.0,0.0,0.0,0.0,0.0,0.0,0.0,0.0,0.0,0.0,0.0,0.0,0.0,0.0,0.0,0.0,0.0,0.0,0.0,0.2399,0.5277,0.7197,0.7677,0.7677,0.7677,0.7677,0.6718,0.4313,0.1429,0.0,0.0,0.0,0.0,0.0,0.0,0.0,0.0,0.0,0.0,0.0,0.0,0.0,0.0,0.0,0.0,0.0,0.0,0.0,0.0,0.0,0.0,0.0,0.0,0.0,0.0,0.0,0.0,0.0,0.0,0.0,0.0,0.0,0.0,0.0,0.0,0.0,0.0,0.0,0.0,0.0,0.0,0.0,0.0,0.0,0.0,0.0,0.0,0.0,0.0,0.0,0.0,0.0,0.0,0.0,0.0,0.0,0.0,0.0,0.0,0.0,0.0,0.0,0.0,0.0,0.0,0.0,3.8224,3.8224,3.8224,3.8224,3.8224,3.8224,3.6805,3.4411,3.1929,2.9047,2.6697,2.5238,2.2827,1.9053,1.5239,1.287,1.0957,0.8579,0.4769,0.0,0.0,0.0,0.0,0.0,0.0,0.0,0.0,0.0,0.0,0.0,0.0,0.0,0.0,0.0,0.0,0.0,0.0,0.0,0.2879,0.5758,0.7197,0.7677,0.7677,0.7677,0.7677,0.7677,0.7192,0.2858,0.0,0.0,0.0,0.0,0.0,0.0,0.0,0.0,0.0,0.0,0.0,0.0,0.0,0.0,0.0,0.0,0.0,0.0,0.0,0.0,0.0,0.0,0.0,0.0,0.0,0.0,0.0,0.0,0.0,0.0,0.0,0.0,0.0,0.0,0.0,0.0,0.0,0.0,0.0,0.0,0.0,0.0,0.0,0.0,0.0,0.0,0.0,0.0,0.0,0.0,0.0,0.0,0.0,0.0,0.0,0.0,0.0,0.0,0.0,0.0,0.0,0.0,0.0,0.0,0.0,0.0,0.0,3.8211,3.8224,3.8211,3.8172,3.8172,3.8185,3.6741,3.4352,3.1763,2.9315,2.6466,2.494,2.2058,1.8307,1.4584,1.2234,1.0801,0.8469,0.4706,0.0,0.0,0.0,0.0,0.0,0.0,0.0,0.0,0.0,0.0,0.0,0.0,0.0,0.0,0.0,0.0,0.0,0.0,0.0,0.48,0.72,0.7677,0.7677,0.7677,0.7677,0.7677,0.7195,0.6225,0.0,0.0,0.0,0.0,0.0,0.0,0.0,0.0,0.0,0.0,0.0,0.0,0.0,0.0,0.0,0.0,0.0,0.0,0.0,0.0,0.0,0.0,0.0,0.0,0.0,0.0,0.0,0.0,0.0,0.0,0.0,0.0,0.0,0.0,0.0,0.0,0.0,0.0,0.0,0.0,0.0,0.0,0.0,0.0,0.0,0.0,0.0,0.0,0.0,0.0,0.0,0.0,0.0,0.0,0.0,0.0,0.0,0.0,0.0,0.0,0.0,0.0,0.0,0.0,0.0,0.0,0.0,0.0,3.7657,3.7657,3.7657,3.767,3.7697,3.819,3.583,3.2031,3.1009,2.9111,2.629,2.3419,2.0122,1.7327,1.3586,1.0778,0.8905,0.7974,0.4666,0.0,0.0,0.0,0.0,0.0,0.0,0.0,0.0,0.0,0.0,0.0,0.0,0.0,0.0,0.0,0.0,0.0,0.0,0.0,0.48,0.7682,0.768,0.768,0.7677,0.7677,0.7677,0.5744,0.2858,0.0,0.0,0.0,0.0,0.0,0.0,0.0,0.0,0.0,0.0,0.0,0.0,0.0,0.0,0.0,0.0,0.0,0.0,0.0,0.0,0.0,0.0,0.0,0.0,0.0,0.0,0.0,0.0,0.0,0.0,0.0,0.0,0.0,0.0,0.0,0.0,0.0,0.0,0.0,0.0,0.0,0.0,0.0,0.0,0.0,0.0,0.0,0.0,0.0,0.0,0.0,0.0,0.0,0.0,0.0,0.0,0.0,0.0,0.0,0.0,0.0,0.0,0.0,0.0,0.0,0.0,0.0,0.0,3.7328,3.7328,3.7328,3.6892,3.6918,3.5979,3.3639,3.037,3.0306,2.8432,2.4704,2.1863,1.9053,1.5807,1.2561,0.9772,0.7446,0.6516,0.4167,0.0,0.0,0.0,0.0,0.0,0.0458,0.0916,0.1374,0.0,0.0,0.0,0.1374,0.0,0.0,0.0,0.0,0.0,0.0,0.0,0.3356,0.6242,0.7682,0.768,0.768,0.7197,0.5758,0.3821,0.0,0.0,0.0,0.0,0.0,0.0,0.0,0.0,0.0,0.0,0.0,0.0,0.0,0.0,0.0,0.0,0.0,0.0,0.0,0.0,0.0,0.0,0.0,0.0,0.0,0.0,0.0,0.0,0.0,0.0,0.0,0.0,0.0,0.0,0.0,0.0,0.0,0.0,0.0,0.0,0.0,0.0,0.0,0.0,0.0,0.0,0.0,0.0,0.0,0.0,0.0,0.0,0.0,0.0,0.0,0.0,0.0,0.0,0.0,0.0,0.0,0.0,0.0,0.0,0.0,0.0,0.0,0.0,0.0,3.7301,3.7275,3.6892,3.6378,3.5429,3.1684,2.9864,2.9832,2.9223,2.6361,2.2652,2.0675,1.7887,1.4661,1.1937,0.9629,0.7343,0.4592,0.2293,0.0,0.0,0.0,0.0,0.0,0.1832,0.3664,0.3664,0.504,0.6414,0.6414,0.4124,0.0,0.0,0.0,0.0,0.0,0.0,0.0,0.0,0.288,0.6722,0.7682,0.7202,0.6718,0.2879,0.0,0.0,0.0,0.0,0.0,0.0,0.0,0.0,0.0,0.0,0.0,0.0,0.0,0.0,0.0,0.0,0.0,0.0,0.0,0.0,0.0,0.0,0.0,0.0,0.0,0.0,0.0,0.0,0.0,0.0,0.0,0.0,0.0,0.0,0.0,0.0,0.0,0.0,0.0,0.0,0.0,0.0,0.0,0.0,0.0,0.0,0.0,0.0,0.0,0.0,0.0,0.0,0.0,0.0,0.0,0.0,0.0,0.0,0.0,0.0,0.0,0.0,0.0,0.0,0.0,0.0,0.0,0.0,0.0,0.0,3.628,3.5825,3.6319,3.4484,3.1702,2.9866,2.9431,2.8995,2.5698,2.3388,2.156,1.8782,1.6016,1.3274,1.0988,0.87,0.6872,0.3206,0.0,0.0,0.0,0.0,0.0,0.3664,0.5498,0.5956,0.5956,0.6414,0.7332,0.7332,0.4582,0.0458,0.0,0.0,0.0,0.0,0.0,0.0,0.0,0.0,0.24,0.5762,0.6242,0.0,0.096,0.0,0.0,0.0,0.0,0.0,0.0,0.0,0.0,0.0,0.0,0.0,0.0,0.0,0.0,0.0,0.0,0.0,0.0,0.0,0.0,0.0,0.0,0.0,0.0,0.0,0.0,0.0,0.0,0.0,0.0,0.0,0.0,0.0,0.0,0.0,0.0,0.0,0.0,0.0,0.0,0.0,0.0,0.0,0.0,0.0,0.0,0.0,0.0,0.0,0.0,0.0,0.0,0.0,0.0,0.0,0.0,0.0,0.0,0.0,0.0,0.0,0.0,0.0,0.0,0.0,0.0,0.0,0.0,0.0,0.0,3.5568,3.4639,3.42,3.1927,2.9188,2.9198,2.8766,2.7434,2.375,2.1475,2.0123,1.7386,1.4645,1.1907,0.9615,0.7788,0.5956,0.1832,0.0,0.0,0.0,0.0,0.0,0.504,0.7332,0.7332,0.7332,0.7332,0.7332,0.7332,0.5498,0.2749,0.0918,0.0,0.0,0.0,0.0,0.0,0.0,0.0,0.0,0.336,0.336,0.0,0.0,0.0,0.0,0.0,0.0,0.0,0.0,0.0,0.0,0.0,0.0,0.0,0.0,0.0,0.0,0.0,0.0,0.0,0.0,0.0,0.0,0.0,0.0,0.0,0.0,0.0,0.0,0.0,0.0,0.0,0.0,0.0,0.0,0.0,0.0,0.0,0.0,0.0,0.0,0.0,0.0,0.0,0.0,0.0,0.0,0.0,0.0,0.0,0.0,0.0,0.0,0.0,0.0,0.0,0.0,0.0,0.0,0.0,0.0,0.0,0.0,0.0,0.0,0.0,0.0,0.0,0.0,0.0,0.0,0.0,0.0,3.5555,3.4188,3.0546,2.9188,2.9209,2.8787,2.7424,2.5159,2.2857,2.0571,1.7836,1.5553,1.3274,1.0534,0.8703,0.5956,0.3206,0.0916,0.0,0.0,0.0,0.0,0.0458,0.504,0.7332,0.7332,0.7332,0.7332,0.7332,0.7335,0.7335,0.6887,0.2773,0.0,0.0,0.0,0.0,0.0,0.0,0.0,0.0,0.0,0.0,0.0,0.0,0.0,0.0,0.0,0.0,0.0,0.0,0.0,0.0,0.0,0.0,0.0,0.0,0.0,0.0,0.0,0.0,0.0,0.0,0.0,0.0,0.0,0.0,0.0,0.0,0.0,0.0,0.0,0.0,0.0,0.0,0.0,0.0,0.0,0.0,0.0,0.0,0.0,0.0,0.0,0.0,0.0,0.0,0.0,0.0,0.0,0.0,0.0,0.0,0.0,0.0,0.0,0.0,0.0,0.0,0.0,0.0,0.0,0.0,0.0,0.0,0.0,0.0,0.0,0.0,0.0,0.0,0.0,0.0,0.0,-0.5977,3.5091,3.4188,3.0535,2.9209,2.8787,2.5568,2.375,2.2857,2.2401,1.966,1.5553,1.4183,1.1441,0.87,0.7788,0.504,0.1374,0.0458,0.0,0.0,0.0,0.0916,0.2748,0.5956,0.7332,0.7332,0.7332,0.7332,0.7335,0.7372,0.7417,0.7457,0.6072,0.3752,0.0,0.0,0.0,0.0,0.0,0.0,0.0,0.0,0.0,0.0,0.0,0.0,0.0,0.0,0.0,0.0,0.0,0.0,0.0,0.0,0.0,0.0,0.0,0.0,0.0,0.0,0.0,0.0,0.0,0.0,0.0,0.0,0.0,0.0,0.0,0.0,0.0,0.0,0.0,0.0,0.0,0.0,0.0,0.0,0.0,0.0,0.0,0.0,0.0,0.0,0.0,0.0,0.0,0.0,0.0,0.0,0.0,0.0,0.0,0.0,0.0,0.0,0.0,0.0,0.0,0.0,0.0,0.0,0.0,0.0,0.0,0.0,0.0,0.0,0.0,0.0,0.0,0.0,0.0,0.0,-0.6416,3.3736,3.2832,3.0104,2.8302,2.605,2.3295,2.193,2.1498,1.9667,1.7379,1.4629,1.1817,0.9522,0.7256,0.4989,0.2726,0.0,0.0,0.0,0.0,0.0,0.1374,0.3665,0.6414,0.7332,0.7332,0.7356,0.7367,0.7377,0.7425,0.747,0.7505,0.7531,0.4724,0.0,0.0,0.0,0.0,0.0,0.0,0.0,0.0,0.0,0.0,0.0,0.0,0.0,0.0,0.0,0.0,0.0,0.0,0.0,0.0,0.0,0.0,0.0,0.0,0.0,0.0,0.0,0.0,0.0,0.0,0.0,0.0,0.0,0.0,0.0,0.0,0.0,0.0,0.0,0.0,0.0,0.0,0.0,0.0,0.0,0.0,0.0,0.0,0.0,0.0,0.0,0.0,0.0,0.0,0.0,0.0,0.0,0.0,0.0,0.0,0.0,0.0,0.0,0.0,0.0,0.0,0.0,0.0,0.0,0.0,0.0,0.0,0.0,0.0,0.0,0.0,0.0,-0.0916,-0.2748,-0.5496,-0.7788,3.1938,3.0579,2.9209,2.6032,2.2393,2.1482,2.1042,2.0601,1.6461,1.4163,1.3212,0.8999,0.7158,0.5814,0.1789,0.0,0.0,0.0,0.0,0.0,0.0,0.1374,0.3665,0.6421,0.7338,0.7348,0.7401,0.7425,0.743,0.7483,0.751,0.7515,0.7571,0.5227,0.0,0.0,0.0,0.0,0.0,0.0,0.0,0.0,0.0,0.0,0.0,0.0,0.0,0.0,0.0,0.0,0.0,0.0,0.0,0.0,0.0,0.0,0.0,0.0,0.0,0.0,0.0,0.0,0.0,0.0,0.0,0.0,0.0,0.0,0.0,0.0,0.0,0.0,0.0,0.0,0.0,0.0,0.0,0.0,0.0,0.0,0.0,0.0,0.0,0.0,0.0,0.0,0.0,0.0,0.0,0.0,0.0,0.0,0.0,0.0,0.0,0.0,0.0,0.0,0.0,0.0,0.0,0.0,0.0,0.0,0.0,0.0,0.0,0.0,0.0,0.0,0.0,-0.229,-0.5956,-0.733,-0.9138,2.9662,2.9209,2.7394,2.4677,2.149,1.7836,1.6467,1.6004,1.5004,1.2203,0.8989,0.7613,0.4918,0.1788,0.0447,0.0,0.0,0.0,0.0,0.0,0.0,0.1374,0.3667,0.5995,0.7399,0.7407,0.7454,0.7481,0.7489,0.7542,0.7568,0.7576,0.7629,0.5264,0.0,0.0,0.0,0.0,0.0,0.0,0.0,0.0,0.0,0.0,0.0,0.0,0.0,0.0,0.0,0.0,0.0,0.0,0.0,0.0,0.0,0.0,0.0,0.0,0.0,0.0,0.0,0.0,0.0,0.0,0.0,0.0,0.0,0.0,0.0,0.0,0.0,0.0,0.0,0.0,0.0,0.0,0.0,0.0,0.0,0.0,0.0,0.0,0.0,0.0,0.0,0.0,0.0,0.0,0.0,0.0,0.0,0.0,0.0,0.0,0.0,0.0,0.0,0.0,0.0,0.0,0.0,0.0,0.0,0.0,0.0,0.0,0.0,0.0,0.0,0.0,-0.2743,-0.5492,-0.7319,-0.7776,-0.9581,2.7097,2.6189,2.44,2.215,1.989,1.6288,1.4034,1.3116,1.1674,0.9376,0.7112,0.4872,0.2653,0.0,0.0,0.0,0.0,0.0,0.0,0.0,0.0,0.1826,0.5042,0.6929,0.742,0.7425,0.7502,0.7542,0.7547,0.76,0.7629,0.7632,0.7661,0.5277,0.0,0.0,0.0,0.0,0.0,0.0,0.0,0.0,0.0,0.0,0.0,0.0,0.0,0.0,0.0,0.0,0.0,0.0,0.0,0.0,0.0,0.0,0.0,0.0,0.0,0.0,0.0,0.0,0.0,0.0,0.0,0.0,0.0,0.0,0.0,0.0,0.0,0.0,0.0,0.0,0.0,0.0,0.0,0.0,0.0,0.0,0.0,0.0,0.0,0.0,0.0,0.0,0.0,0.0,0.0,0.0,0.0,0.0,0.0,0.0,0.0,0.0,0.0,0.0,0.0,0.0,0.0,0.0,0.0,0.0,0.0,0.0,0.0,0.0,0.0,-0.1359,-0.4983,-0.6797,-0.725,-0.77,-0.9931,2.4097,2.2747,2.0962,1.9183,1.7397,1.5188,1.2957,1.0272,0.7947,0.6591,0.5708,0.1745,0.0,0.0,0.0,0.0,0.0,0.0,0.0,0.0,0.0,0.2727,0.7332,0.7391,0.742,0.7428,0.7526,0.7582,0.7595,0.764,0.7669,0.7677,0.7677,0.5278,0.0,0.0,0.0,0.0,0.0,0.0,0.0,0.0,0.0,0.0,0.0,0.0,0.0,0.0,0.0,0.0,0.0,0.0,0.0,0.0,0.0,0.0,0.0,0.0,0.0,0.0,0.0,0.0,0.0,0.0,0.0,0.0,0.0,0.0,0.0,0.0,0.0,0.0,0.0,0.0,0.0,0.0,0.0,0.0,0.0,0.0,0.0,0.0,0.0,0.0,0.0,0.0,0.0,0.0,0.0,0.0,0.0,0.0,0.0,0.0,0.0,0.0,0.0,0.0,0.0,0.0,0.0,0.0,0.0,0.0,0.0,0.0,0.0,-0.0894,-0.2238,-0.3583,-0.5377,-0.7165,-0.7616,-0.848,-1.0237,2.1414,2.008,1.6507,1.5176,1.4742,1.4296,1.1614,0.7579,0.7374,0.0,0.0,0.0428,0.0,0.0,0.0,0.0,0.0,0.0,0.0,0.0,0.0,0.2727,0.7332,0.7391,0.742,0.7423,0.7489,0.7544,0.7589,0.76,0.7629,0.7674,0.7677,0.4799,0.0,0.0,0.0,0.0,0.0,0.0,0.0,0.0,0.0,0.0,0.0,0.0,0.0,0.0,0.0,0.0,0.0,0.0,0.0,0.0,0.0,0.0,0.0,0.0,0.0,0.0,0.0,0.0,0.0,0.0,0.0,0.0,0.0,0.0,0.0,0.0,0.0,0.0,0.0,0.0,0.0,0.0,0.0,0.0,0.0,0.0,0.0,0.0,0.0,0.0,0.0,0.0,0.0,0.0,0.0,0.0,0.0,0.0,0.0,0.0,0.0,0.0,0.0,0.0,0.0,0.0,0.0,0.0,0.0,0.0,0.0,0.0,-0.2682,-0.4019,-0.5814,-0.6261,-0.6708,-0.7152,-0.848,-1.1052,-1.402,1.7914,1.6543,1.3496,1.1326,0.0,1.0459,0.7807,0.3438,0.3382,0.2099,0.0,0.0,0.0,0.0,0.0,0.0,0.0,0.0,0.0,0.0,0.0,0.1355,0.3643,0.6453,0.742,0.7423,0.6544,0.6581,0.7547,0.7547,0.6156,0.3817,0.3817,0.239,0.0,0.0,0.0,0.0,0.0,0.0,0.0,0.0,0.0,0.0,0.0,0.0,0.0,0.0,0.0,0.0,0.0,0.0,0.0,0.0,0.0,0.0,0.0,0.0,0.0,0.0,0.0,0.0,0.0,0.0,0.0,0.0,0.0,0.0,0.0,0.0,0.0,0.0,0.0,0.0,0.0,0.0,0.0,0.0,0.0,0.0,0.0,0.0,0.0,0.0,0.0,0.0,0.0,0.0,0.0,0.0,0.0,0.0,0.0,0.0,0.0,0.0,0.0,0.0,0.0,0.0,0.0,-0.0889,-0.1774,-0.1768,-0.265,-0.3975,-0.5299,-0.6182,-0.7065,-0.795,-0.8389,-0.9271,-1.1908,-1.4901,-1.8294,1.4092,1.2718,1.0597,0.8472,0.6768,0.5901,0.3342,0.0,0.0,0.0,0.0,0.0,0.0,0.0,0.0,0.0,0.0,0.0,0.0,0.0,0.0,0.0,0.0,0.4136,0.6014,0.6016,0.5122,0.5609,0.7491,0.6553,0.4229,0.0,0.0,0.0,0.0,0.0,0.0,0.0,0.0,0.0,0.0,0.0,0.0,0.0,0.0,0.0,0.0,0.0,0.0,0.0,0.0,0.0,0.0,0.0,0.0,0.0,0.0,0.0,0.0,0.0,0.0,0.0,0.0,0.0,0.0,0.0,0.0,0.0,0.0,0.0,0.0,0.0,0.0,0.0,0.0,0.0,0.0,0.0,-0.0431,-0.1302,0.0,0.0,0.0,0.0,0.0,0.0,0.0,0.0,0.0,0.0,0.0,0.0,0.0,0.0,0.0,0.0,0.0,0.0,0.0,0.0,0.0,-0.3086,-0.3955,-0.4373,-0.5674,-0.6985,-0.7419,-0.7849,-0.8294,-0.916,-1.0467,-1.2201,-1.6115,-1.9162,-2.1332,1.1862,1.051,0.7986,0.6696,0.6231,0.2454,0.0406,0.0,0.0,0.0,0.0,0.0,0.0,0.0,0.0,0.0,0.0,0.0,0.0,0.0,0.0,0.0,0.0,0.0,0.0917,0.1376,0.5053,0.738,0.743,0.3249,0.0466,0.0,0.0,0.0,0.0,0.0,0.0,0.0,0.0,0.0,0.0,0.0,0.0,0.0,0.0,0.0,0.0,0.0,0.0,0.0,0.0,0.0,0.0,0.0,0.0,0.0,0.0,0.0,0.0,0.0,0.0,0.0,0.0,0.0,0.0,0.0,0.0,0.0,0.0,0.0,0.0,0.0,0.0,0.0,0.0,0.0,0.0,0.0,-0.1279,-0.5122,-0.5586,-0.4317,0.0,0.0,0.0,0.0,0.0,0.0,0.0,0.0,0.0,0.0,0.0,0.0,0.0,0.0,0.0,0.0,0.0,0.0,-0.5255,-0.6122,-0.6556,-0.6546,-0.6977,-0.7849,-0.9592,-1.0028,-1.0463,-1.1774,-1.2641,-1.5251,-1.9162,-2.0898,-2.1765,0.8694,0.8214,0.698,0.4846,0.275,0.078,0.0,0.0,0.0,0.0,0.0,0.0,0.0,0.0,0.0,0.0,0.0,0.0,0.0,0.0,0.0,0.0,0.0,0.0,0.0,0.0,0.229,0.3212,0.3222,0.0917,0.0,0.0,0.0,0.0,0.0,0.0,0.0,0.0,0.0,0.0,0.0,0.0,0.0,0.0,0.0,0.0,0.0,0.0,0.0,0.0,0.0,0.0,0.0,0.0,0.0,0.0,0.0,0.0,0.0,0.0,0.0,0.0,0.0,0.0,0.0,0.0,0.0,0.0,0.0,0.0,0.0,0.0,0.0,0.0,0.0,-0.0406,-0.1631,-0.2877,-0.4148,-0.5864,-0.634,-0.469,0.0,0.0,0.0,0.0,0.0,0.0,0.0,0.0,0.0,0.0,0.0,0.0,0.0,0.0,-0.0897,-0.3112,-0.3969,-0.438,-0.6549,-0.7855,-0.8724,-0.9156,-0.9156,-0.9592,-1.1334,-1.177,-1.2641,-1.3946,-1.6121,-1.8728,-2.2199,-2.3941,-2.525,0.5642,0.5591,0.5146,0.3088,0.0,0.0,0.0,0.0,0.0,0.0,0.0,0.0,0.0,0.0,0.0,0.0,0.0,0.0,0.0,0.0,0.0,0.0,0.0,0.0,0.0,0.0,0.0,0.0,0.0,0.0,0.0,0.0,0.0,0.0,0.0,0.0,0.0,0.0,0.0,0.0,0.0,0.0,0.0,0.0,0.0,0.0,0.0,0.0,0.0,0.0,0.0,0.0,0.0,0.0,0.0,0.0,0.0,0.0,0.0,0.0,0.0,0.0,0.0,0.0,0.0,0.0,0.0,0.0,0.0,0.0,0.0,0.0,0.0,0.0,-0.0777,-0.195,-0.3535,-0.5159,-0.603,-0.6129,-0.6625,-0.5456,-0.213,-0.0858,0.0,0.0,0.0,0.0,0.0,0.0,0.0,0.0,0.0,0.0,0.0,-0.0905,-0.3128,-0.6636,-0.7004,-0.7394,-0.826,-0.9548,-1.0841,-1.173,-1.173,-1.2182,-1.3506,-1.4381,-1.5234,-1.7332,-1.9909,-2.2503,-2.4647,-2.6377,-2.7677,0.3527,0.3098,0.1496,0.0,0.0,0.0,0.0,0.0,0.0,0.0,0.0,0.0,0.0,0.0,0.0,0.0,0.0,0.0,0.0,0.0,0.0,0.0,0.0,0.0,0.0,0.0,0.0,0.0,0.0,0.0,0.0,0.0,0.0,0.0,0.0,0.0,0.0,0.0,0.0,0.0,0.0,0.0,0.0,0.0,0.0,0.0,0.0,0.0,0.0,0.0,0.0,0.0,0.0,0.0,0.0,0.0,0.0,0.0,0.0,0.0,0.0,0.0,0.0,0.0,0.0,0.0,0.0,0.0,0.0,0.0,0.0,0.0,0.0,0.0,0.0,-0.5664,-0.5669,-0.5761,-0.6238,-0.591,0.0,0.0,-0.6231,-0.2547,0.0,0.0,0.0,0.0,0.0,0.0,0.0,0.0,0.0,0.0,0.0,-0.3634,-0.6289,-0.6641,-0.6972,-0.8197,-1.0766,-1.1564,-1.2823,-1.4602,-1.5066,-1.5531,-1.6971,-1.7385,-1.8643,-2.2168,-2.3387,-2.4233,-2.6336,-2.718,-2.8034,0.1116,0.108,0.035,0.0,0.0,0.0,0.0,0.0,0.0,0.0,0.0,0.0,0.0,0.0,0.0,0.0,0.0,0.0,0.0,0.0,0.0,0.0,0.0,0.0,0.0,0.0,0.0,0.0,0.0,0.0,0.0,0.0,0.0,0.0,0.0,0.0,0.0,0.0,0.0,0.0,0.0,0.0,0.0,0.0,0.0,0.0,0.0,0.0,0.0,0.0,0.0,0.0,0.0,0.0,0.0,0.0,0.0,0.0,0.0,0.0,0.0,0.0,0.0,0.0,0.0,0.0,0.0,0.0,0.0,0.0,0.0,0.0,0.0,0.0,0.0,0.0,0.0,0.0,0.0,-0.9005,-0.8828,-0.8252,-0.6856,-0.4923,-0.2923,-0.0426,-0.2169,-0.3979,-0.4061,0.0,0.0,0.0,0.0,-0.0914,-0.4095,-0.4517,-0.5371,-0.6636,-0.9146,-1.1596,-1.2748,-1.4366,-1.6002,-1.6829,-1.7296,-1.8645,-1.9566,-2.0667,-2.2137,-2.4484,-2.5793,-2.6715,-2.8361,-2.8361,-2.9235,0.0,0.0,0.0,0.0,0.0,0.0,0.0,0.0,0.0,0.0,0.0,0.0,0.0,0.0,0.0,0.0,0.0,0.0,0.0,0.0,0.0,0.0,0.0,0.0,0.0,0.0,0.0,0.0,0.0,0.0,0.0,0.0,0.0,0.0,0.0,0.0,0.0,0.0,0.0,0.0,0.0,0.0,0.0,0.0,0.0,0.0,0.0,0.0,0.0,0.0,0.0,0.0,0.0,0.0,0.0,0.0,0.0,0.0,0.0,0.0,0.0,0.0,0.0,0.0,0.0,0.0,0.0,0.0,0.0,0.0,0.0,-0.0342,-0.2069,0.0,0.0,0.0,0.0,0.0,0.0,0.0,0.0,0.0,-0.8064,-0.7823,-0.6421,0.0,0.0,-0.7427,-0.7147,-0.3598,-0.0904,-0.0,-0.1365,0.0,-0.6772,-0.5812,-0.4874,-0.6609,-1.0392,-1.3586,-1.4568,-1.7335,-1.9298,-1.9652,-2.0141,-2.1334,-2.2672,-2.3965,-2.502,-2.5874,-2.6819,-2.7751,-2.903,-2.9503,-3.0013,0.0,0.0,0.0,0.0,0.0,0.0,0.0,0.0,0.0,0.0,0.0,0.0,0.0,0.0,0.0,0.0,0.0,0.0,0.0,0.0,0.0,0.0,0.0,0.0,0.0,0.0,0.0,0.0,0.0,0.0,0.0,0.0,0.0,0.0,0.0,0.0,0.0,0.0,0.0,0.0,0.0,0.0,0.0,0.0,0.0,0.0,0.0,0.0,0.0,0.0,0.0,0.0,0.0,0.0,0.0,0.0,0.0,0.0,0.0,0.0,0.0,0.0,0.0,0.0,0.0,0.0,0.0,0.0,0.0,0.0,0.0,-0.1623,0.0,0.0,0.0,0.0,0.0,0.0,0.0,0.0,0.0,-1.22,-1.1033,-1.1775,-1.1119,-0.6825,0.0,0.0,0.0,0.0,-0.2683,-0.0447,-0.4027,-0.6713,-0.7158,-0.7059,-0.6983,-0.698,0.0,0.0,-1.8227,-2.026,-2.2042,-2.3017,-2.3421,-2.3848,-2.514,-2.5805,-2.6393,-2.6627,-2.6709,-2.7166,-2.8523,-2.877,-2.9351,0.0,0.0,0.0,0.0,0.0,0.0,0.0,0.0,0.0,0.0,0.0,0.0,0.0,0.0,0.0,0.0,0.0,0.0,0.0,0.0,0.0,0.0,0.0,0.0,0.0,0.0,0.0,0.0,0.0,0.0,0.0,0.0,0.0,0.0,0.0,0.0,0.0,0.0,0.0,0.0,0.0,0.0,0.0,0.0,0.0,0.0,0.0,0.0,0.0,0.0,0.0,0.0,0.0,0.0,0.0,0.0,0.0,0.0,0.0,0.0,0.0,0.0,0.0,0.0,0.0,0.0,0.0,0.0,0.0,0.0,0.0,0.0,-0.4441,0.0,0.0,0.0,0.0,0.0,0.0,0.0,0.0,0.0,-1.425,-1.3109,-1.153,-0.8969,-0.8918,-0.8781,-0.8128,0.0,0.0,0.0,0.0,0.0,0.0,0.0,-0.6893,-0.6813,-1.0398,-1.4608,-1.8669,-2.1205,-2.2941,-2.347,0.0,0.0,-2.5071,-2.5789,-2.6123,-2.5863,-2.6531,-2.7511,-2.7968,-2.8212,-2.8818,0.0,0.0,0.0,0.0,0.0,0.0,0.0,0.0,0.0,0.0,0.0,0.0,0.0,0.0,0.0,0.0,0.0,0.0,0.0,0.0,0.0,0.0,0.0,0.0,0.0,0.0,0.0,0.0,0.0,0.0,0.0,0.0,0.0,0.0,0.0,0.0,0.0,0.0,0.0,0.0,0.0,0.0,0.0,0.0,0.0,0.0,0.0,0.0,0.0,0.0,0.0,0.0,0.0,0.0,0.0,0.0,0.0,0.0,0.0,0.0,0.0,0.0,0.0,0.0,0.0,0.0,0.0,0.0,0.0,0.0,0.0,0.0,-0.4818,0.0,0.0,0.0,0.0,0.0,0.0,0.0,0.0,0.0,0.0,-1.4645,-1.2211,-0.9841,-0.9458,-0.9788,-0.9658,-0.7679,-0.6477,0.0,0.0,0.0,0.0,0.0,0.0,0.0,0.0,0.0,0.0,0.0,0.0,0.0,-2.4778,-2.4765,-2.415,-2.4856,-2.5471,-2.4909,0.0,0.0,0.0,0.0,0.0,0.0,0.0,0.0,0.0,0.0,0.0,0.0,0.0,0.0,0.0,0.0,0.0,0.0,0.0,0.0,0.0,0.0,0.0,0.0,0.0,0.0,0.0,0.0,0.0,0.0,0.0,0.0,0.0,0.0,0.0,0.0,0.0,0.0,0.0,0.0,0.0,0.0,0.0,0.0,0.0,0.0,0.0,0.0,0.0,0.0,0.0,0.0,0.0,0.0,0.0,0.0,0.0,0.0,0.0,0.0,0.0,0.0,0.0,0.0,0.0,0.0,0.0,0.0,0.0,0.0,0.0,0.0,0.0,0.0,0.0,0.0,0.0,0.0,-0.5354,-0.786,-1.0902,0.0,0.0,0.0,0.0,0.0,0.0,0.0,0.0,0.0,-0.9892,-1.109,-1.1919,-1.1117,-1.1256,-1.1774,-1.1452,-1.4869,-1.6942,-1.6809,-1.3221,-1.0952,0.0,0.0,0.0,0.0,0.0,0.0,0.0,0.0,0.0,0.0,0.0,0.0,0.0,0.0,0.0,0.0,0.0,0.0,0.0,0.0,0.0,0.0,0.0,0.0,0.0,0.0,0.0,0.0,0.0,0.0,0.0,0.0,0.0,0.0,0.0,0.0,0.0,0.0,0.0,0.0,0.0,0.0,0.0,0.0,0.0,0.0,0.0,0.0,0.0,0.0,0.0,0.0,0.0,0.0,0.0,0.0,0.0,0.0,0.0,0.0,0.0,0.0,0.0,0.0,0.0,0.0,0.0,0.0,0.0,0.0,0.0,0.0,0.0,0.0,0.0,0.0,0.0,0.0,0.0,0.0,0.0,0.0,0.0,0.0,0.0,0.0,0.0,0.0,0.0,0.0,0.0,0.0,-0.9802,-1.168,-1.4121,0.0,0.0,0.0,0.0,0.0,0.0,0.0,0.0,0.0,0.0,-1.3375,-1.3092,-1.4139,-1.4733,-1.5675,-1.8599,-2.1489,-2.2669,-1.8145,-1.4578,-1.6237,0.0,0.0,0.0,0.0,0.0,0.0,0.0,0.0,0.0,0.0,0.0,0.0,0.0,0.0,0.0,0.0,0.0,0.0,0.0,0.0,0.0,0.0,0.0,0.0,0.0,0.0,0.0,0.0,0.0,0.0,0.0,0.0,0.0,0.0,0.0,0.0,0.0,0.0,0.0,0.0,0.0,0.0,0.0,0.0,0.0,0.0,0.0,0.0,0.0,0.0,0.0,0.0,0.0,0.0,0.0,0.0,0.0,0.0,0.0,0.0,0.0,0.0,0.0,0.0,0.0,0.0,0.0,0.0,0.0,0.0,0.0,0.0,0.0,0.0,0.0,0.0,0.0,0.0,0.0,0.0,0.0,0.0,0.0,0.0,0.0,0.0,0.0,0.0,0.0,0.0,0.0,-1.1307,-1.294,-1.4501,0.0,0.0,0.0,0.0,0.0,0.0,0.0,0.0,0.0,0.0,-1.5466,-1.542,-1.6446,0.0,0.0,-2.2051,-2.48,-2.5906,-2.1369,-1.8152,-1.9211,-1.9478,0.0,0.0,0.0,0.0,0.0,0.0,0.0,0.0,0.0,0.0,0.0,0.0,0.0,0.0,0.0,0.0,0.0,0.0,0.0,0.0,0.0,0.0,0.0,0.0,0.0,0.0,0.0,0.0,0.0,0.0,0.0,0.0,0.0,0.0,0.0,0.0,0.0,0.0,0.0,0.0,0.0,0.0,0.0,0.0,0.0,0.0,0.0,0.0,0.0,0.0,0.0,0.0,0.0,0.0,0.0,0.0,0.0,0.0,0.0,0.0,0.0,0.0,0.0,0.0,0.0,0.0,0.0,0.0,0.0,0.0,0.0,0.0,0.0,0.0,0.0,0.0,0.0,0.0,0.0,0.0,0.0,0.0,0.0,0.0,0.0,0.0,0.0,0.0,0.0,0.0,0.0,0.0,0.0,0.0,0.0,0.0,0.0,0.0,0.0,0.0,0.0,0.0,0.0,-1.8118,-1.8072,-1.8963,-2.0236,0.0,-2.5176,-2.7272,-2.7002,-2.3693,-2.1199,-2.1983,0.0,0.0,0.0,0.0,0.0,0.0,0.0,0.0,0.0,0.0,0.0,0.0,0.0,0.0,0.0,0.0,0.0,0.0,0.0,0.0,0.0,0.0,0.0,0.0,0.0,0.0,0.0,0.0,0.0,0.0,0.0,0.0,0.0,0.0,0.0,0.0,0.0,0.0,0.0,0.0,0.0,0.0,0.0,0.0,0.0,0.0,0.0,0.0,0.0,0.0,0.0,0.0,0.0,0.0,0.0,0.0,0.0,0.0,0.0,0.0,0.0,0.0,0.0,0.0,0.0,0.0,0.0,0.0,0.0,0.0,0.0,0.0,0.0,0.0,0.0,0.0,0.0,0.0,0.0,0.0,0.0,0.0,0.0,0.0,0.0,0.0,0.0,0.0,0.0,-1.135,0.0,0.0,0.0,0.0,0.0,0.0,0.0,0.0,0.0,0.0,0.0,0.0,0.0,0.0,-2.0744,-2.1345,-2.1844,-2.2731,0.0,0.0,-2.7035,-2.5831,-2.3404,-2.1723,0.0,0.0,0.0,0.0,0.0,0.0,0.0,0.0,0.0,0.0,0.0,0.0,0.0,0.0,0.0,0.0,0.0,0.0,0.0,0.0,0.0,0.0,0.0,0.0,0.0,0.0,0.0,0.0,0.0,0.0,0.0,0.0,0.0,0.0,0.0,0.0,0.0,0.0,0.0,0.0,0.0,0.0,0.0,0.0,0.0,0.0,0.0,0.0,0.0,0.0,0.0,0.0,0.0,0.0,0.0,0.0,0.0,0.0,0.0,0.0,0.0,0.0,0.0,0.0,0.0,0.0,0.0,0.0,0.0,0.0,0.0,0.0,0.0,0.0,0.0,0.0,0.0,0.0,0.0,0.0,0.0,0.0,0.0,0.0,0.0,0.0,0.0,0.0,0.0,0.0,0.0,0.0,0.0,0.0,0.0,0.0,0.0,0.0,0.0,0.0,0.0,0.0,0.0,0.0,0.0,0.0,-2.3114,-2.3324,0.0,0.0,0.0,-2.6012,-2.5288,0.0,0.0,0.0,0.0,0.0,0.0,0.0,0.0,0.0,0.0,0.0,0.0,0.0,0.0,0.0,0.0,0.0,0.0,0.0,0.0,0.0,0.0,0.0,0.0,0.0,0.0,0.0,0.0,0.0,0.0,0.0,0.0,0.0,0.0,0.0,0.0,0.0,0.0,0.0,0.0,0.0,0.0,0.0,0.0,0.0,0.0,0.0,0.0,0.0,0.0,0.0,0.0,0.0,0.0,0.0,0.0,0.0,0.0,0.0,0.0,0.0,0.0,0.0,0.0,0.0,0.0,0.0,0.0,0.0,0.0,0.0,0.0,0.0,0.0,0.0,0.0,0.0,0.0,0.0,0.0,0.0,0.0,0.0,0.0,0.0,0.0,0.0,0.0,0.0,0.0,0.0,0.0,0.0,0.0,0.0,0.0,0.0,0.0,0.0,0.0,0.0,0.0,0.0,0.0,0.0,0.0,0.0,-2.2901,-2.3626,-2.3923,-2.4397,0.0,0.0,-2.4301,-2.4989,-2.43,0.0,0.0,0.0,0.0,0.0,0.0,0.0,0.0,0.0,0.0,0.0,0.0,0.0,0.0,0.0,0.0,0.0,0.0,0.0,0.0,0.0,0.0,0.0,0.0,0.0,0.0,0.0,0.0,0.0,0.0,0.0,0.0,0.0,0.0,0.0,0.0,0.0,0.0,0.0,0.0,0.0,0.0,0.0,0.0,0.0,0.0,0.0,0.0,0.0,0.0,0.0,0.0,0.0,0.0,0.0,0.0,0.0,0.0,0.0,0.0,0.0,0.0,0.0,0.0,0.0,0.0,0.0,0.0,0.0,0.0,0.0,0.0,0.0,0.0,0.0,0.0,0.0,0.0,0.0,0.0,0.0,0.0,0.0,0.0,0.0,0.0,0.0,0.0,0.0,0.0,0.0,0.0,0.0,0.0,0.0,0.0,0.0,0.0,0.0,0.0,0.0,0.0,0.0,0.0,0.0,0.0,-2.3736,-2.4766,-2.4237,0.0,0.0,0.0,0.0,-2.4432,-2.3462,0.0,0.0,0.0,0.0,0.0,0.0,0.0,0.0,0.0,0.0,0.0,0.0,0.0,0.0,0.0,0.0,0.0,0.0,0.0,0.0,0.0,0.0,0.0,0.0,0.0,0.0,0.0,0.0,0.0,0.0,0.0,0.0,0.0,0.0,0.0,0.0,0.0,0.0,0.0,0.0,0.0,0.0,0.0,0.0,0.0,0.0,0.0,0.0,0.0,0.0,0.0,0.0,0.0,0.0,0.0,0.0,0.0,0.0,0.0,0.0,0.0,0.0,0.0,0.0,0.0,0.0,0.0,0.0,0.0,0.0,0.0,0.0,0.0,0.0,0.0,0.0,0.0,0.0,0.0,0.0,0.0,0.0,0.0,0.0,0.0,0.0,0.0,0.0,0.0,0.0,0.0,0.0,0.0,0.0,0.0,0.0,0.0,0.0,0.0,0.0,0.0,0.0,0.0,0.0,0.0,-2.3575,-2.3519,-2.4142,0.0,0.0,0.0,0.0,0.0,0.0,-2.2619,-2.2066,0.0,0.0,0.0,0.0,0.0,0.0,0.0,0.0,0.0,0.0,0.0,0.0,0.0,0.0,0.0,0.0,0.0,0.0,0.0,0.0,0.0,0.0,0.0,0.0,0.0,0.0,0.0,0.0,0.0,0.0,0.0,0.0,0.0,0.0,0.0,0.0,0.0,0.0,0.0,0.0,0.0,0.0,0.0,0.0,0.0,0.0,0.0,0.0,0.0,0.0,0.0,0.0,0.0,0.0,0.0,0.0,0.0,0.0,0.0,0.0,0.0,0.0,0.0,0.0,0.0,0.0,0.0,0.0,0.0,0.0,0.0,0.0,0.0,0.0,0.0,0.0,0.0,0.0,0.0,0.0,0.0,0.0,0.0,0.0,0.0,0.0,0.0,0.0,0.0,0.0,0.0,0.0,0.0,0.0,0.0,0.0,0.0,0.0,0.0,0.0,0.0,0.0,0.0,0.0,-2.3118,-2.3088,0.0,0.0,0.0,0.0,0.0,0.0,0.0,0.0,-2.1703,0.0,0.0,0.0,0.0,0.0,0.0,0.0,0.0,0.0,0.0,0.0,0.0,0.0,0.0,0.0,0.0,0.0,0.0,0.0,0.0,0.0,0.0,0.0,0.0,0.0,0.0,0.0,0.0,0.0,0.0,0.0,0.0,0.0,0.0,0.0,0.0,0.0,0.0,0.0,0.0,0.0,0.0,0.0,0.0,0.0,0.0,0.0,0.0,0.0,0.0,0.0,0.0,0.0,0.0,0.0,0.0,0.0,0.0,0.0,0.0,0.0,0.0,0.0,0.0,0.0,0.0,0.0,0.0,0.0,0.0,0.0,0.0,0.0,0.0,0.0,0.0,0.0,0.0,0.0,0.0,0.0,0.0,0.0,0.0,0.0,0.0,0.0,0.0,0.0,0.0,0.0,0.0,0.0,0.0,0.0,0.0,0.0,0.0,0.0,0.0,0.0,0.0,0.0,-2.1906,-2.2181,0.0,0.0,0.0,0.0,0.0,0.0,0.0,0.0,-2.1228,0.0,0.0,0.0,0.0,0.0,0.0,0.0,0.0,0.0,0.0,0.0,0.0,0.0,0.0,0.0,0.0,0.0,0.0,0.0,0.0,0.0,0.0,0.0,0.0,0.0,0.0,0.0,0.0,0.0,0.0,0.0,0.0,0.0,0.0,0.0,0.0,0.0,0.0,0.0,0.0,0.0,0.0,0.0,0.0,0.0,0.0,0.0,0.0,0.0,0.0,0.0,0.0,0.0,0.0,0.0,0.0,0.0,0.0,0.0,0.0,0.0,0.0,0.0,0.0,0.0,0.0,0.0,0.0,0.0,0.0,0.0,0.0,0.0,0.0,0.0,0.0,0.0,0.0,0.0,0.0,0.0,0.0,0.0,0.0,0.0,0.0,0.0,0.0,0.0,0.0,0.0,0.0,0.0,0.0,0.0,0.0,0.0,0.0,0.0,0.0,0.0,0.0,0.0,0.0,0.0,0.0,0.0,0.0,0.0,0.0,0.0,0.0,0.0,0.0,0.0,0.0,0.0,0.0,0.0,0.0,0.0,0.0,0.0,0.0,0.0,0.0,0.0,0.0,0.0,0.0,0.0,0.0,0.0,0.0,0.0,0.0,0.0,0.0,0.0,0.0,0.0,0.0,0.0,0.0,0.0,0.0,0.0,0.0,0.0,0.0,0.0,0.0,0.0,0.0,0.0,0.0,0.0,0.0,0.0,0.0,0.0,0.0,0.0,0.0,0.0,0.0,0.0,0.0,0.0,0.0,0.0,0.0,0.0,0.0,0.0,0.0,0.0,0.0,0.0,0.0,0.0,0.0,0.0,0.0,0.0,0.0,0.0,0.0,0.0,0.0,0.0,0.0,0.0,0.0,0.0,0.0,0.0,0.0,0.0,0.0,0.0,0.0,0.0,0.0,0.0,0.0,0.0,0.0,0.0,0.0,0.0,0.0,0.0,0.0,0.0,0.0,0.0,0.0,0.0,0.0,0.0,0.0,0.0,0.0,0.0,0.0,0.0,0.0,-2.0063,0.0,0.0,0.0,0.0,0.0,0.0,0.0,0.0,0.0,0.0,0.0,0.0,0.0,0.0,0.0,0.0,0.0,0.0,0.0,0.0,0.0,0.0,0.0,0.0,0.0,0.0,0.0,0.0,0.0,0.0,0.0,0.0,0.0,0.0,0.0,0.0,0.0,0.0,0.0,0.0,0.0,0.0,0.0,0.0,0.0,0.0,0.0,0.0,0.0,0.0,0.0,0.0,0.0,0.0,0.0,0.0,0.0,0.0,0.0,0.0,0.0,0.0,0.0,0.0,0.0,0.0,0.0,0.0,0.0,0.0,0.0,0.0,0.0,0.0,0.0,0.0,0.0,0.0,0.0,0.0,0.0,0.0,0.0,0.0,0.0,0.0,0.0,0.0,0.0,0.0,0.0,0.0,0.0,0.0,0.0,0.0,0.0,0.0,0.0,0.0,0.0,0.0,0.0,0.0,0.0,0.0,0.0,0.0,0.0,0.0,0.0,0.0,0.0,0.0,0.0,0.0,0.0,0.0,0.0,0.0,0.0,0.0,0.0,0.0,0.0,0.0,0.0,0.0,0.0,0.0,0.0,0.0,0.0,0.0,0.0,0.0,0.0,0.0,0.0,0.0,0.0,0.0,0.0,0.0,0.0,0.0,0.0,0.0,0.0,0.0,0.0,0.0,0.0,0.0,0.0,0.0,0.0,0.0,0.0,0.0,0.0,0.0,0.0,0.0,0.0,0.0,0.0,0.0,0.0,0.0,0.0,0.0,0.0,0.0,-0.2559,-0.2696,-0.0796,0.0,0.0,0.0,0.0,0.0,0.0,0.0,0.0,0.0,0.0,0.0,0.0,0.0,0.0,0.0,0.0,0.0,0.0,0.0,0.0,0.0,0.0,0.0,0.0,0.0,0.0,0.0,0.0,0.0,0.0,0.0,0.0,0.0,0.0,0.0,0.0,0.0,0.0,0.0,0.0,0.0,0.0,0.0,0.0,0.0,0.0,0.0,0.0,0.0,0.0,0.0,0.0,0.0,0.0,0.0,0.0,0.0,0.0,0.0,0.0,0.0,0.0,0.0,0.0,0.0,0.0,0.0,0.0,0.0,0.0,0.0,0.0,0.0,0.0,0.0,0.0,0.0,0.0,0.0,0.0,0.0,0.0,0.0,0.0,0.0,0.0,0.0,0.0,0.0,0.0,0.0,0.0,0.0,0.0,0.0,0.0,0.0,0.0,0.0,0.0,0.0,0.0,0.0,0.0,0.0,0.0,0.0,0.0,0.0,0.0,0.0,0.0,0.0,-0.4808,-0.1513,-0.0373,-0.1057,-0.0341,0.0,0.0,0.0,0.0,0.0,0.0,0.0,0.0,0.0,0.0,0.0,0.0,0.0,0.0,0.0,0.0,0.0,0.0,0.0,0.0,0.0,0.0,0.0,0.0,0.0,0.0,0.0,0.0,0.0,0.0,0.0,0.0,0.0,0.0,0.0,0.0,0.0,0.0,0.0,0.0,0.0,0.0,0.0,0.0,0.0,0.0,0.0,0.0,0.0,0.0,0.0,0.0,0.0,0.0,0.0,0.0,0.0,0.0,0.0,0.0,0.0,0.0,0.0,0.0,0.0,0.0,0.0,0.0,0.0,0.0,0.0,0.0,0.0,0.0,0.0,0.0,0.0,0.0,0.0,0.0,0.0,0.0,0.0,0.0,0.0,0.0,0.0,0.0,0.0,0.0,0.0,0.0,0.0,0.0,0.0,0.0,0.0,0.0,0.0,0.0,0.0,0.0,0.0,0.0,0.0,0.0,0.0,0.0,0.0,0.0,-0.4976,-0.1732,-0.135,-0.4278,-0.1592,0.0,0.0,0.0,0.0,0.0,0.0,0.0,0.0,0.0,0.0,0.0,0.0,0.0,0.0,0.0,0.0,0.0,0.0,0.0,0.0,0.0,0.0,0.0,0.0,0.0,0.0,0.0,0.0,0.0,0.0,0.0,0.0,0.0,0.0,0.0,0.0,0.0,0.0,0.0,0.0,0.0,0.0,0.0,0.0,0.0,0.0,0.0,0.0,0.0,0.0,0.0,0.0,0.0,0.0,0.0,0.0,0.0,0.0,0.0,0.0,0.0,0.0,0.0,0.0,0.0,0.0,0.0,0.0,0.0,0.0,0.0,0.0,0.0,0.0,0.0,0.0,0.0,0.0,0.0,0.0,0.0,0.0,0.0,0.0,0.0,0.0,0.0,0.0,0.0,0.0,0.0,0.0,0.0,0.0,0.0,0.0,0.0,0.0,0.0,0.0,0.0,0.0,0.0,0.0,0.0,0.0,0.0,0.0,0.0,0.0,-0.5442,-0.3848,-0.3493,-0.4653,-0.3318,-0.2874,-0.2672,0.0,0.0,0.0,0.0,0.0,0.0,0.0,0.0,0.0,0.0,0.0,0.0,0.0,0.0,0.0,0.0,0.0,0.0,0.0,0.0,0.0,0.0,0.0,0.0,0.0,0.0,0.0,0.0,0.0,0.0,0.0,0.0,0.0,0.0,0.0,0.0,0.0,0.0,0.0,0.0,0.0,0.0,0.0,0.0,0.0,0.0,0.0,0.0,0.0,0.0,0.0,0.0,0.0,0.0,0.0,0.0,0.0,0.0,0.0,0.0,0.0,0.0,0.0,0.0,0.0,0.0,0.0,0.0,0.0,0.0,0.0,0.0,0.0,0.0,0.0,0.0,0.0,0.0,0.0,0.0,0.0,0.0,0.0,0.0,0.0,0.0,0.0,0.0,0.0,0.0,0.0,0.0,0.0,0.0,0.0,0.0,0.0,0.0,0.0,0.0,0.0,0.0,0.0,0.0,0.0,0.0,0.0,0.0,-0.6121,-0.5076,-0.4791,-0.4983,-0.4558,-0.4346,0.0,0.0,0.0,0.0,0.0,0.0,0.0,0.0,0.0,0.0,0.0,0.0,0.0,0.0,0.0,0.0,0.0,0.0,0.0,0.0,0.0,0.0,0.0,0.0,0.0,0.0,0.0,0.0,0.0,0.0,0.0,0.0,0.0,0.0,0.0,0.0,0.0,0.0,0.0,0.0,0.0,0.0,0.0,0.0,0.0,0.0,0.0,0.0,0.0,0.0,0.0,0.0,0.0,0.0,0.0,0.0,0.0,0.0,0.0,0.0,0.0,0.0,0.0,0.0,0.0,0.0,0.0,0.0,0.0,0.0,0.0,0.0,0.0,0.0,0.0,0.0,0.0,0.0,0.0,0.0,0.0,0.0,0.0,0.0,0.0,0.0,0.0,0.0,0.0,0.0,0.0,0.0,0.0,0.0,0.0,0.0,0.0,0.0,0.0,0.0,0.0,0.0,0.0,0.0,0.0,0.0,0.0,0.0,-0.612,-0.6257,-0.5318,-0.5359,-0.6394,-0.5085,-0.4361,0.0,0.0,0.0,0.0,0.0,0.0,0.0,0.0,0.0,0.0,0.0,0.0,0.0,0.0,0.0,0.0,0.0,0.0,0.0,0.0,0.0,0.0,0.0,0.0,0.0,0.0,0.0,0.0,0.0,0.0,0.0,0.0,0.0,0.0,0.0,0.0,0.0,0.0,0.0,0.0,0.0,0.0,0.0,0.0,0.0,0.0,0.0,0.0,0.0,0.0,0.0,0.0,0.0,0.0,0.0,0.0,0.0,0.0,0.0,0.0,0.0,0.0,0.0,0.0,0.0,0.0,0.0,0.0,0.0,0.0,0.0,0.0,0.0,0.0,0.0,0.0,0.0,0.0,0.0,0.0,0.0,0.0,0.0,0.0,0.0,0.0,0.0,0.0,0.0,0.0,0.0,0.0,0.0,0.0,0.0,0.0,0.0,0.0,0.0,0.0,0.0,0.0,0.0,0.0,0.0,0.0,0.0,0.0,0.0,-0.7106,0.0,-0.7777,-0.9071,-0.7688,-0.662,0.0,0.0,0.0,0.0,0.0,0.0,0.0,0.0,0.0,0.0,0.0,0.0,0.0,0.0,0.0,0.0,0.0,0.0,0.0,0.0,0.0,0.0,0.0,0.0,0.0,0.0,0.0,0.0,0.0,0.0,0.0,0.0,0.0,0.0,0.0,0.0,0.0,0.0,0.0,0.0,0.0,0.0,0.0,0.0,0.0,0.0,0.0,0.0,0.0,0.0,0.0,0.0,0.0,0.0,0.0,0.0,0.0,0.0,0.0,0.0,0.0,0.0,0.0,0.0,0.0,0.0,0.0,0.0,0.0,0.0,0.0,0.0,0.0,0.0,0.0,0.0,0.0,0.0,0.0,0.0,0.0,0.0,0.0,0.0,0.0,0.0,0.0,0.0,0.0,0.0,0.0,0.0,0.0,0.0,0.0,0.0,0.0,0.0,0.0,0.0,0.0,0.0,0.0,0.0,0.0,0.0,0.0,0.0,0.0,-0.7226,-0.8231,-0.9441,-1.0811,-0.988,-0.8998,0.0,0.0,0.0,0.0,0.0,0.0,0.0,0.0,0.0,0.0,0.0,0.0,0.0,0.0,0.0,0.0,0.0,0.0,0.0,0.0,0.0,0.0,0.0,0.0,0.0,0.0,0.0,0.0,0.0,0.0,0.0,0.0,0.0,0.0,0.0,0.0,0.0,0.0,0.0,0.0,0.0,0.0,0.0,0.0,0.0,0.0,0.0,0.0,0.0,0.0,0.0,0.0,0.0,0.0,0.0,0.0,0.0,0.0,0.0,0.0,0.0,0.0,0.0,0.0,0.0,0.0,0.0,0.0,0.0,0.0,0.0,0.0,0.0,0.0,0.0,0.0,0.0,0.0,0.0,0.0,0.0,0.0,0.0,0.0,0.0,0.0,0.0,0.0,0.0,0.0,0.0,0.0,0.0,0.0,0.0,0.0,0.0,0.0,0.0,0.0,0.0,0.0,0.0,0.0,0.0,0.0,0.0,0.0,0.0,-0.722,-0.878,-1.0192,-1.1457,-1.1485,-1.1056,0.0,0.0,0.0,0.0,0.0,0.0,0.0,0.0,0.0,0.0,0.0,0.0,0.0,0.0,0.0,0.0,0.0,0.0,0.0,0.0,0.0,0.0,0.0,0.0,0.0,0.0,0.0,0.0,0.0,0.0,0.0,0.0,0.0,0.0,0.0,0.0,0.0,0.0,0.0,0.0,0.0,0.0,0.0,0.0,0.0,0.0,0.0,0.0,0.0,0.0,0.0,0.0,0.0,0.0,0.0,0.0,0.0,0.0,0.0,0.0,0.0,0.0,0.0,0.0,0.0,0.0,0.0,0.0,0.0,0.0,0.0,0.0,0.0,0.0,0.0,0.0,0.0,0.0,0.0,0.0,0.0,0.0,0.0,0.0,0.0,0.0,0.0,0.0,0.0,0.0,0.0,0.0,0.0,0.0,0.0,0.0,0.0,0.0,0.0,0.0,0.0,0.0,0.0,0.0,0.0,0.0,0.0,0.0,0.0,0.0,-0.9823,-1.0696,-1.0772,-1.1221,-1.1348,-1.1415,0.0,0.0,0.0,0.0,0.0,0.0,0.0,0.0,0.0,0.0,0.0,0.0,0.0,0.0,0.0,0.0,0.0,0.0,0.0,0.0,0.0,0.0,0.0,0.0,0.0,0.0,0.0,0.0,0.0,0.0,0.0,0.0,0.0,0.0,0.0,0.0,0.0,0.0,0.0,0.0,0.0,0.0,0.0,0.0,0.0,0.0,0.0,0.0,0.0,0.0,0.0,0.0,0.0,0.0,0.0,0.0,0.0,0.0,0.0,0.0,0.0,0.0,0.0,0.0,0.0,0.0,0.0,0.0,0.0,0.0,0.0,0.0,0.0,0.0,0.0,0.0,0.0,0.0,0.0,0.0,0.0,0.0,0.0,0.0,0.0,0.0,0.0,0.0,0.0,0.0,0.0,0.0,0.0,0.0,0.0,0.0,0.0,0.0,0.0,0.0,0.0,0.0,0.0,0.0,0.0,0.0,0.0,0.0,0.0,0.0,-1.0786,-0.9949,-1.1724,-1.2381,0.0,0.0,0.0,0.0,0.0,0.0,0.0,0.0,0.0,0.0,0.0,0.0,0.0,0.0,0.0,0.0,0.0,0.0,0.0,0.0,0.0,0.0,0.0,0.0,0.0,0.0,0.0,0.0,0.0,0.0,0.0,0.0,0.0,0.0,0.0,0.0,0.0,0.0,0.0,0.0,0.0,0.0,0.0,0.0,0.0,0.0,0.0,0.0,0.0,0.0,0.0,0.0,0.0,0.0,0.0,0.0,0.0,0.0,0.0,0.0,0.0,0.0,0.0,0.0,0.0,0.0,0.0,0.0,0.0,0.0,0.0,0.0,0.0,0.0,0.0,0.0,0.0,0.0,0.0,0.0,0.0,0.0,0.0,0.0,0.0,0.0,0.0,0.0,0.0,0.0,0.0,0.0,0.0,0.0,0.0,0.0,0.0,0.0,0.0,0.0,0.0,0.0,0.0,0.0,0.0,0.0,0.0,0.0,0.0,0.0,0.0,-1.0686,-0.9738,-1.237,0.0,-1.3348,0.0,0.0,0.0,0.0,0.0,0.0,0.0,0.0,0.0,0.0,0.0,0.0,0.0,0.0,0.0,0.0,0.0,0.0,0.0,0.0,0.0,0.0,0.0,0.0,0.0,0.0,0.0,0.0,0.0,0.0,0.0,0.0,0.0,0.0,0.0,0.0,0.0,0.0,0.0,0.0,0.0,0.0,0.0,0.0,0.0,0.0,0.0,0.0,0.0,0.0,0.0,0.0,0.0,0.0,0.0,0.0,0.0,0.0,0.0,0.0,0.0,0.0,0.0,0.0,0.0,0.0,0.0,0.0,0.0,0.0,0.0,0.0,0.0,0.0,0.0,0.0,0.0,0.0,0.0,0.0,0.0,0.0,0.0,0.0,0.0,0.0,0.0,0.0,0.0,0.0,0.0,0.0,0.0,0.0,0.0,0.0,0.0,0.0,0.0,0.0,0.0,0.0,0.0,0.0,0.0,0.0,0.0,0.0,0.0,0.0,0.0,0.0,-1.3473,-1.3855,-1.3707,0.0,0.0,0.0,0.0,0.0,0.0,0.0,0.0,0.0,0.0,0.0,0.0,0.0,0.0,0.0,0.0,0.0,0.0,0.0,0.0,0.0,0.0,0.0,0.0,0.0,0.0,0.0,0.0,0.0,0.0,0.0,0.0,0.0,0.0,0.0,0.0,0.0,0.0,0.0,0.0,0.0,0.0,0.0,0.0,0.0,0.0,0.0,0.0,0.0,0.0,0.0,0.0,0.0,0.0,0.0,0.0,0.0,0.0,0.0,0.0,0.0,0.0,0.0,0.0,0.0,0.0,0.0,0.0,0.0,0.0,0.0,0.0,0.0,0.0,0.0,0.0,0.0,0.0,0.0,0.0,0.0,0.0,0.0,0.0,0.0,0.0,0.0,0.0,0.0,0.0,0.0,0.0,0.0,0.0,0.0,0.0,0.0,0.0,0.0,0.0,0.0,0.0,0.0,0.0,0.0,0.0,0.0,0.0,0.0,0.0,-1.1901,-1.2924,-1.3125,-1.3802,-1.4693,0.0,0.0,0.0,0.0,0.0,0.0,0.0,0.0,0.0,0.0,0.0,0.0,0.0,0.0,0.0,0.0,0.0,0.0,0.0,0.0,0.0,0.0,0.0,0.0,0.0,0.0,0.0,0.0,0.0,0.0,0.0,0.0,0.0,0.0,0.0,0.0,0.0,0.0,0.0,0.0,0.0,0.0,0.0,0.0,0.0,0.0,0.0,0.0,0.0,0.0,0.0,0.0,0.0,0.0,0.0,0.0,0.0,0.0,0.0,0.0,0.0,0.0,0.0,0.0,0.0,0.0,0.0,0.0,0.0,0.0,0.0,0.0,0.0,0.0,0.0,0.0,0.0,0.0,0.0,0.0,0.0,0.0,0.0,0.0,0.0,0.0,0.0,0.0,0.0,0.0,0.0,0.0,0.0,0.0,0.0,0.0,0.0,0.0,0.0,0.0,0.0,0.0,0.0,0.0,0.0,0.0,0.0,0.0,0.0,0.0,0.0,0.0,0.0,0.0,-1.4929,0.0,0.0,0.0,0.0,0.0,0.0,0.0,0.0,0.0,0.0,0.0,0.0,0.0,0.0,0.0,0.0,0.0,0.0,0.0,0.0,0.0,0.0,0.0,0.0,0.0,0.0,0.0,0.0,0.0,0.0,0.0,0.0,0.0,0.0,0.0,0.0,0.0,0.0,0.0,0.0,0.0,0.0,0.0,0.0,0.0,0.0,0.0,0.0,0.0,0.0,0.0,0.0,0.0,0.0,0.0,0.0,0.0,0.0,0.0,0.0,0.0,0.0,0.0,0.0,0.0,0.0,0.0,0.0,0.0,0.0,0.0,0.0,0.0,0.0,0.0,0.0,0.0,0.0,0.0,0.0,0.0,0.0,0.0,0.0,0.0,0.0,0.0,0.0,0.0,0.0,0.0,0.0,0.0,0.0,0.0,0.0,0.0,0.0,0.0,0.0,0.0,0.0,0.0,0.0,0.0,0.0,0.0,0.0,0.0,0.0,0.0,0.0,0.0,0.0,0.0,0.0,0.0,0.0,0.0,0.0,0.0,0.0,0.0,0.0,0.0,0.0,0.0,0.0,0.0,0.0,0.0,0.0,0.0,0.0,0.0,0.0,0.0,0.0,0.0,0.0,0.0,0.0,0.0,0.0,0.0,0.0,0.0,0.0,0.0,0.0,0.0,0.0,0.0,0.0,0.0,0.0,0.0,0.0,0.0,0.0,0.0,0.0,0.0,0.0,0.0,0.0,0.0,0.0,0.0,0.0,0.0,0.0,0.0,0.0,0.0,0.0,0.0,0.0,0.0,0.0,0.0,0.0,0.0,0.0,0.0,0.0,0.0,0.0,0.0,0.0,0.0,0.0,0.0,0.0,0.0,0.0,0.0,0.0,0.0,0.0,0.0,0.0,0.0,0.0,0.0,0.0,0.0,0.0,0.0,0.0,0.0,0.0,0.0,0.0,0.0,0.0,0.0,0.0,0.0,0.0,0.0,0.0,0.0,0.0,0.0,0.0,0.0,0.0,0.0,0.0,0.0,0.0,0.0,0.0,0.0,0.0,0.0,0.0,0.0,0.0,0.0,0.0,0.0,0.0,0.0,0.0,0.0,0.0,0.0,0.0,0.0,0.0,0.0,0.0,0.0,0.0,0.0,0.0,0.0,0.0,0.0,0.0,0.0,0.0,0.0,0.0,0.0,0.0,0.0,0.0,0.0,0.0,0.0,0.0,0.0,0.0,0.0,0.0,0.0,0.0,0.0,0.0,0.0,0.0,0.0,0.0,0.0,0.0,0.0,0.0,0.0,0.0,0.0,0.0,0.0,0.0,0.0,0.0,0.0,0.0,0.0,0.0,0.0,0.0,0.0,0.0,0.0,0.0,0.0,0.0,0.0,0.0,0.0,0.0,0.0,0.0,0.0,0.0,0.0,0.0,0.0,0.0,0.0,0.0,0.0,0.0,0.0,0.0,0.0,0.0,0.0,0.0,0.0,0.0,0.0,0.0,0.0,0.0,0.0,0.0,0.0,0.0,0.0,0.0,0.0,0.0,0.0,0.0,0.0,0.0,0.0,0.0,0.0,0.0,0.0,0.0,0.0,0.0,0.0,0.0,0.0,0.0,0.0,0.0,0.0,0.0,0.0,0.0,0.0,0.0,0.0,0.0,0.0,0.0,0.0,0.0,0.0,0.0,0.0,0.0,0.0,0.0,0.0,0.0,0.0,0.0,0.0,0.0,0.0,0.0,0.0,0.0,0.0,0.0,0.0,0.0,0.0,0.0,0.0,0.0,0.0,0.0,0.0,0.0,0.0,0.0,0.0,0.0,0.0,0.0,0.0,0.0,0.0,0.0,0.0,0.0,0.0,0.0,0.0,0.0,0.0,0.0,0.0,0.0,0.0,0.0,0.0,0.0,0.0,0.0,0.0,0.0,0.0,0.0,0.0,0.0,0.0,0.0,0.0,0.0,0.0,0.0,0.0,0.0,0.0,0.0,0.0,0.0,0.0,0.0,0.0,0.0,0.0,0.0,0.0,0.0,0.0,0.0,0.0,0.0,0.0,0.0,0.0,0.0,0.0,0.0,0.0,0.0,0.0,0.0,0.0,0.0,0.0,0.0,0.0,0.0,0.0,0.0,0.0,0.0,0.0,0.0,0.0,0.0,0.0,0.0,0.0,0.0,0.0,0.0,0.0,0.0,0.0,0.0,0.0,0.0,0.0,0.0,0.0,0.0,0.0,0.0,0.0,0.0,0.0,0.0,0.0,0.0,0.0,0.0,0.0,0.0,0.0,0.0,0.0,0.0,0.0,0.0,0.0,0.0,0.0,0.0,0.0,0.0,0.0,0.0,0.0,0.0,0.0,0.0,0.0,0.0,0.0,0.0,0.0,0.0,0.0,0.0,0.0,0.0,0.0,0.0,0.0,0.0,0.0,0.0,0.0,0.0,0.0,0.0,0.0,0.0,0.0,0.0,0.0,0.0,0.0,0.0,0.0,0.0,0.0,0.0,0.0,0.0,0.0,0.0,0.0,0.0,0.0,0.0,0.0,0.0,0.0,0.0,0.0,0.0,0.0,0.0,0.0,0.0,0.0,0.0,0.0,0.0,0.0,0.0,0.0,0.0,0.0,0.0,0.0,0.0,0.0,0.0,0.0,0.0,0.0,0.0,0.0,0.0,0.0,0.0,0.0,0.0,0.0,0.0,0.0,0.0,0.0,0.0,0.0,0.0,0.0,0.0,0.0,0.0,0.0,0.0,0.0,0.0,0.0,0.0,0.0,0.0,0.0,0.0,0.0,0.0,0.0,0.0,0.0,0.0,0.0,0.0,0.0,0.0,0.0,0.0,0.0,0.0,0.0,0.0,0.0,0.0,0.0,0.0,0.0,0.0,0.0,0.0,0.0,0.0,0.0,0.0,0.0,0.0,0.0,0.0,0.0,0.0,0.0,0.0,0.0,0.0,0.0,0.0,0.0,0.0,0.0,0.0,0.0,0.0,0.0,0.0,0.0,0.0,0.0,0.0,0.0,0.0,0.0,0.0,0.0,0.0,0.0,0.0,0.0,0.0,0.0,0.0,0.0,0.0,0.0,0.0,0.0,0.0,0.0,0.0,0.0,0.0,0.0,0.0,0.0,0.0,0.0,0.0,0.0,0.0,0.0,0.0,0.0,0.0,0.0,0.0,0.0,0.0,0.0,0.0,0.0,0.0,0.0,0.0,0.0,0.0,0.0,0.0,0.0,0.0,0.0,0.0,0.0,0.0,0.0,0.0,0.0,0.0,0.0,0.0,0.0,0.0,0.0,0.0,0.0,0.0,0.0,0.0,0.0,0.0,0.0,0.0,0.0,0.0,0.0,0.0,0.0,0.0,0.0,0.0,0.0,0.0,0.0,0.0,0.0,0.0,0.0,0.0,0.0,0.0,0.0,0.0,0.0,0.0,0.0,0.0,0.0,0.0,0.0,0.0,0.0,0.0,0.0,0.0,0.0,0.0,0.0,0.0,0.0,0.0,0.0,0.0,0.0,0.0,0.0,0.0,0.0,0.0,0.0,0.0,0.0,0.0,0.0,0.0,0.0,0.0,0.0,0.0,0.0,0.0,0.0,0.0,0.0,0.0,0.0,0.0,0.0,0.0,0.0,0.0,0.0,0.0,0.0,0.0,0.0,0.0,0.0,0.0,0.0,0.0,0.0,0.0,0.0,0.0,0.0,0.0,0.0,0.0,0.0,0.0,0.0,0.0,0.0,0.0,0.0,0.0,0.0,0.0,0.0,0.0,0.0,0.0,0.0,0.0,0.0,0.0,0.0,0.0,0.0,0.0,0.0,0.0,0.0,0.0,0.0,0.0,0.0,0.0,0.0,0.0,0.0,0.0,0.0,0.0,0.0,0.0,0.0,0.0,0.0,0.0,0.0,0.0,0.0,0.0,0.0,0.0,0.0,0.0,0.0,0.0,0.0,0.0,0.0,0.0,0.0,0.0,0.0,0.0,0.0,0.0,0.0,0.0,0.0,0.0,0.0,0.0,0.0,0.0,0.0,0.0,0.0,0.0,0.0,0.0,0.0,0.0,0.0,0.0,0.0,0.0,0.0,0.0,0.0,0.0,0.0,0.0,0.0,0.0,0.0,0.0,0.0,0.0,0.0,0.0,0.0,0.0,0.0,0.0,0.0,0.0,0.0,0.0,0.0,0.0,0.0,0.0,0.0,0.0,0.0,0.0,0.0,0.0,0.0,0.0,0.0,0.0,0.0,0.0,0.0,0.0,0.0,0.0,0.0,0.0,0.0,0.0,0.0,0.0,0.0,0.0,0.0,0.0,0.0,0.0,0.0,0.0,0.0,0.0,0.0,0.0,0.0,0.0,0.0,0.0,0.0,0.0,0.0,0.0,0.0,0.0]}]]]